<?xml version="1.0" encoding="UTF-8" standalone="no" ?>
<gpx xmlns="http://www.topografix.com/GPX/1/1" xmlns:xsi="http://www.w3.org/2001/XMLSchema-instance" xsi:schemaLocation="http://www.topografix.com/GPX/1/1 http://www.topografix.com/GPX/1/1/gpx.xsd" version="1.1" creator="VisuGPX - https://www.visugpx.com">
  <metadata>
    <name>La nuit des Cabornes - 25KM</name>
    <desc><![CDATA[Tracé du parcours de 25 km de la nuit des Cabornes]]></desc>
  </metadata>
  <trk>
    <name><![CDATA[Saint-Romain-au-Mont-d’Or Course à pied]]></name>
    <trkseg>
      <trkpt lat="45.83757" lon="4.8238">
        <ele>203.39999389648</ele>
        <time>2016-09-09T18:31:02.000Z</time>
      </trkpt>
      <trkpt lat="45.83756" lon="4.82377">
        <ele>203.60000610352</ele>
        <time>2016-09-09T18:31:04.000Z</time>
      </trkpt>
      <trkpt lat="45.83742" lon="4.82359">
        <ele>205</ele>
        <time>2016-09-09T18:31:14.000Z</time>
      </trkpt>
      <trkpt lat="45.8373" lon="4.82341">
        <ele>206.19999694824</ele>
        <time>2016-09-09T18:31:24.000Z</time>
      </trkpt>
      <trkpt lat="45.83721" lon="4.82323">
        <ele>207.60000610352</ele>
        <time>2016-09-09T18:31:32.000Z</time>
      </trkpt>
      <trkpt lat="45.83715" lon="4.82318">
        <ele>208</ele>
        <time>2016-09-09T18:31:36.000Z</time>
      </trkpt>
      <trkpt lat="45.83697" lon="4.82309">
        <ele>208.80000305176</ele>
        <time>2016-09-09T18:31:47.000Z</time>
      </trkpt>
      <trkpt lat="45.8368" lon="4.82303">
        <ele>209.39999389648</ele>
        <time>2016-09-09T18:31:56.000Z</time>
      </trkpt>
      <trkpt lat="45.83669" lon="4.82299">
        <ele>209.80000305176</ele>
        <time>2016-09-09T18:32:01.000Z</time>
      </trkpt>
      <trkpt lat="45.83652" lon="4.82291">
        <ele>210.60000610352</ele>
        <time>2016-09-09T18:32:11.000Z</time>
      </trkpt>
      <trkpt lat="45.83634" lon="4.82282">
        <ele>211.60000610352</ele>
        <time>2016-09-09T18:32:22.000Z</time>
      </trkpt>
      <trkpt lat="45.83616" lon="4.82273">
        <ele>212.60000610352</ele>
        <time>2016-09-09T18:32:31.000Z</time>
      </trkpt>
      <trkpt lat="45.83597" lon="4.82277">
        <ele>213.39999389648</ele>
        <time>2016-09-09T18:32:42.000Z</time>
      </trkpt>
      <trkpt lat="45.83598" lon="4.82302">
        <ele>212.39999389648</ele>
        <time>2016-09-09T18:32:53.000Z</time>
      </trkpt>
      <trkpt lat="45.83603" lon="4.82329">
        <ele>211.19999694824</ele>
        <time>2016-09-09T18:33:03.000Z</time>
      </trkpt>
      <trkpt lat="45.83607" lon="4.82356">
        <ele>212.60000610352</ele>
        <time>2016-09-09T18:33:14.000Z</time>
      </trkpt>
      <trkpt lat="45.83605" lon="4.82382">
        <ele>214.60000610352</ele>
        <time>2016-09-09T18:33:23.000Z</time>
      </trkpt>
      <trkpt lat="45.83596" lon="4.82407">
        <ele>216.19999694824</ele>
        <time>2016-09-09T18:33:32.000Z</time>
      </trkpt>
      <trkpt lat="45.83585" lon="4.82428">
        <ele>218.80000305176</ele>
        <time>2016-09-09T18:33:41.000Z</time>
      </trkpt>
      <trkpt lat="45.83573" lon="4.82448">
        <ele>221.39999389648</ele>
        <time>2016-09-09T18:33:50.000Z</time>
      </trkpt>
      <trkpt lat="45.83562" lon="4.8247">
        <ele>223.60000610352</ele>
        <time>2016-09-09T18:34:00.000Z</time>
      </trkpt>
      <trkpt lat="45.83555" lon="4.82496">
        <ele>224.60000610352</ele>
        <time>2016-09-09T18:34:11.000Z</time>
      </trkpt>
      <trkpt lat="45.83551" lon="4.82502">
        <ele>225.39999389648</ele>
        <time>2016-09-09T18:34:15.000Z</time>
      </trkpt>
      <trkpt lat="45.83546" lon="4.82478">
        <ele>226.60000610352</ele>
        <time>2016-09-09T18:34:25.000Z</time>
      </trkpt>
      <trkpt lat="45.83546" lon="4.82472">
        <ele>226.80000305176</ele>
        <time>2016-09-09T18:34:27.000Z</time>
      </trkpt>
      <trkpt lat="45.8354" lon="4.82447">
        <ele>228.19999694824</ele>
        <time>2016-09-09T18:34:36.000Z</time>
      </trkpt>
      <trkpt lat="45.83534" lon="4.8242">
        <ele>229.19999694824</ele>
        <time>2016-09-09T18:34:46.000Z</time>
      </trkpt>
      <trkpt lat="45.83531" lon="4.82394">
        <ele>229.60000610352</ele>
        <time>2016-09-09T18:34:56.000Z</time>
      </trkpt>
      <trkpt lat="45.83526" lon="4.82368">
        <ele>229.80000305176</ele>
        <time>2016-09-09T18:35:07.000Z</time>
      </trkpt>
      <trkpt lat="45.83516" lon="4.82362">
        <ele>231.60000610352</ele>
        <time>2016-09-09T18:35:14.000Z</time>
      </trkpt>
      <trkpt lat="45.83508" lon="4.82364">
        <ele>233.60000610352</ele>
        <time>2016-09-09T18:35:18.000Z</time>
      </trkpt>
      <trkpt lat="45.83488" lon="4.82366">
        <ele>238</ele>
        <time>2016-09-09T18:35:27.000Z</time>
      </trkpt>
      <trkpt lat="45.83469" lon="4.82365">
        <ele>242</ele>
        <time>2016-09-09T18:35:40.000Z</time>
      </trkpt>
      <trkpt lat="45.83456" lon="4.82349">
        <ele>243.39999389648</ele>
        <time>2016-09-09T18:35:51.000Z</time>
      </trkpt>
      <trkpt lat="45.83442" lon="4.82331">
        <ele>244.39999389648</ele>
        <time>2016-09-09T18:36:00.000Z</time>
      </trkpt>
      <trkpt lat="45.83431" lon="4.82307">
        <ele>244.39999389648</ele>
        <time>2016-09-09T18:36:10.000Z</time>
      </trkpt>
      <trkpt lat="45.83417" lon="4.8229">
        <ele>245.60000610352</ele>
        <time>2016-09-09T18:36:22.000Z</time>
      </trkpt>
      <trkpt lat="45.83401" lon="4.82278">
        <ele>247.39999389648</ele>
        <time>2016-09-09T18:36:39.000Z</time>
      </trkpt>
      <trkpt lat="45.83385" lon="4.82266">
        <ele>249.39999389648</ele>
        <time>2016-09-09T18:36:46.000Z</time>
      </trkpt>
      <trkpt lat="45.83379" lon="4.82257">
        <ele>249.39999389648</ele>
        <time>2016-09-09T18:36:49.000Z</time>
      </trkpt>
      <trkpt lat="45.83372" lon="4.82251">
        <ele>250</ele>
        <time>2016-09-09T18:36:53.000Z</time>
      </trkpt>
      <trkpt lat="45.83366" lon="4.82243">
        <ele>250.19999694824</ele>
        <time>2016-09-09T18:36:57.000Z</time>
      </trkpt>
      <trkpt lat="45.8335" lon="4.82229">
        <ele>252.19999694824</ele>
        <time>2016-09-09T18:37:06.000Z</time>
      </trkpt>
      <trkpt lat="45.83336" lon="4.8221">
        <ele>252.80000305176</ele>
        <time>2016-09-09T18:37:16.000Z</time>
      </trkpt>
      <trkpt lat="45.83325" lon="4.82187">
        <ele>252</ele>
        <time>2016-09-09T18:37:28.000Z</time>
      </trkpt>
      <trkpt lat="45.83308" lon="4.82174">
        <ele>254</ele>
        <time>2016-09-09T18:37:38.000Z</time>
      </trkpt>
      <trkpt lat="45.83304" lon="4.82167">
        <ele>254</ele>
        <time>2016-09-09T18:37:42.000Z</time>
      </trkpt>
      <trkpt lat="45.83291" lon="4.82149">
        <ele>255.19999694824</ele>
        <time>2016-09-09T18:37:54.000Z</time>
      </trkpt>
      <trkpt lat="45.83278" lon="4.8213">
        <ele>256</ele>
        <time>2016-09-09T18:38:04.000Z</time>
      </trkpt>
      <trkpt lat="45.83261" lon="4.82116">
        <ele>259</ele>
        <time>2016-09-09T18:38:15.000Z</time>
      </trkpt>
      <trkpt lat="45.83245" lon="4.82105">
        <ele>262.20001220703</ele>
        <time>2016-09-09T18:38:23.000Z</time>
      </trkpt>
      <trkpt lat="45.83228" lon="4.82094">
        <ele>265.60000610352</ele>
        <time>2016-09-09T18:38:33.000Z</time>
      </trkpt>
      <trkpt lat="45.83222" lon="4.82088">
        <ele>266.39999389648</ele>
        <time>2016-09-09T18:38:37.000Z</time>
      </trkpt>
      <trkpt lat="45.83209" lon="4.82074">
        <ele>269.60000610352</ele>
        <time>2016-09-09T18:38:45.000Z</time>
      </trkpt>
      <trkpt lat="45.83202" lon="4.82063">
        <ele>270.20001220703</ele>
        <time>2016-09-09T18:38:50.000Z</time>
      </trkpt>
      <trkpt lat="45.83198" lon="4.82037">
        <ele>267.60000610352</ele>
        <time>2016-09-09T18:38:59.000Z</time>
      </trkpt>
      <trkpt lat="45.83196" lon="4.82034">
        <ele>267.79998779297</ele>
        <time>2016-09-09T18:39:00.000Z</time>
      </trkpt>
      <trkpt lat="45.8319" lon="4.82028">
        <ele>269</ele>
        <time>2016-09-09T18:39:05.000Z</time>
      </trkpt>
      <trkpt lat="45.83188" lon="4.82031">
        <ele>270.60000610352</ele>
        <time>2016-09-09T18:39:07.000Z</time>
      </trkpt>
      <trkpt lat="45.83182" lon="4.82039">
        <ele>274.20001220703</ele>
        <time>2016-09-09T18:39:11.000Z</time>
      </trkpt>
      <trkpt lat="45.83178" lon="4.82062">
        <ele>280</ele>
        <time>2016-09-09T18:39:24.000Z</time>
      </trkpt>
      <trkpt lat="45.83178" lon="4.82087">
        <ele>284.20001220703</ele>
        <time>2016-09-09T18:39:39.000Z</time>
      </trkpt>
      <trkpt lat="45.83182" lon="4.82096">
        <ele>284</ele>
        <time>2016-09-09T18:39:43.000Z</time>
      </trkpt>
      <trkpt lat="45.83195" lon="4.82117">
        <ele>282.39999389648</ele>
        <time>2016-09-09T18:39:49.000Z</time>
      </trkpt>
      <trkpt lat="45.83212" lon="4.8213">
        <ele>278.20001220703</ele>
        <time>2016-09-09T18:39:56.000Z</time>
      </trkpt>
      <trkpt lat="45.83216" lon="4.82133">
        <ele>276.79998779297</ele>
        <time>2016-09-09T18:39:58.000Z</time>
      </trkpt>
      <trkpt lat="45.83231" lon="4.82151">
        <ele>275</ele>
        <time>2016-09-09T18:40:07.000Z</time>
      </trkpt>
      <trkpt lat="45.83237" lon="4.82163">
        <ele>275.39999389648</ele>
        <time>2016-09-09T18:40:13.000Z</time>
      </trkpt>
      <trkpt lat="45.83241" lon="4.82178">
        <ele>276.79998779297</ele>
        <time>2016-09-09T18:40:19.000Z</time>
      </trkpt>
      <trkpt lat="45.83255" lon="4.82197">
        <ele>275.79998779297</ele>
        <time>2016-09-09T18:40:27.000Z</time>
      </trkpt>
      <trkpt lat="45.83263" lon="4.82216">
        <ele>277.60000610352</ele>
        <time>2016-09-09T18:40:37.000Z</time>
      </trkpt>
      <trkpt lat="45.83278" lon="4.82232">
        <ele>276.79998779297</ele>
        <time>2016-09-09T18:40:48.000Z</time>
      </trkpt>
      <trkpt lat="45.83284" lon="4.82238">
        <ele>276.39999389648</ele>
        <time>2016-09-09T18:40:52.000Z</time>
      </trkpt>
      <trkpt lat="45.83299" lon="4.82258">
        <ele>276.20001220703</ele>
        <time>2016-09-09T18:41:01.000Z</time>
      </trkpt>
      <trkpt lat="45.83315" lon="4.82275">
        <ele>275</ele>
        <time>2016-09-09T18:41:07.000Z</time>
      </trkpt>
      <trkpt lat="45.83328" lon="4.82294">
        <ele>275</ele>
        <time>2016-09-09T18:41:14.000Z</time>
      </trkpt>
      <trkpt lat="45.83335" lon="4.8232">
        <ele>277</ele>
        <time>2016-09-09T18:41:23.000Z</time>
      </trkpt>
      <trkpt lat="45.8333" lon="4.82346">
        <ele>282.60000610352</ele>
        <time>2016-09-09T18:41:31.000Z</time>
      </trkpt>
      <trkpt lat="45.83324" lon="4.8237">
        <ele>288.60000610352</ele>
        <time>2016-09-09T18:41:40.000Z</time>
      </trkpt>
      <trkpt lat="45.83321" lon="4.82396">
        <ele>289.20001220703</ele>
        <time>2016-09-09T18:41:50.000Z</time>
      </trkpt>
      <trkpt lat="45.83315" lon="4.82421">
        <ele>289.79998779297</ele>
        <time>2016-09-09T18:41:58.000Z</time>
      </trkpt>
      <trkpt lat="45.83305" lon="4.82445">
        <ele>291.60000610352</ele>
        <time>2016-09-09T18:42:06.000Z</time>
      </trkpt>
      <trkpt lat="45.83294" lon="4.82466">
        <ele>293.39999389648</ele>
        <time>2016-09-09T18:42:13.000Z</time>
      </trkpt>
      <trkpt lat="45.83284" lon="4.82489">
        <ele>294</ele>
        <time>2016-09-09T18:42:21.000Z</time>
      </trkpt>
      <trkpt lat="45.83274" lon="4.8251">
        <ele>295</ele>
        <time>2016-09-09T18:42:28.000Z</time>
      </trkpt>
      <trkpt lat="45.83265" lon="4.82534">
        <ele>295.60000610352</ele>
        <time>2016-09-09T18:42:36.000Z</time>
      </trkpt>
      <trkpt lat="45.83263" lon="4.82562">
        <ele>293.20001220703</ele>
        <time>2016-09-09T18:42:45.000Z</time>
      </trkpt>
      <trkpt lat="45.83257" lon="4.82586">
        <ele>292.60000610352</ele>
        <time>2016-09-09T18:42:52.000Z</time>
      </trkpt>
      <trkpt lat="45.83246" lon="4.8261">
        <ele>293.79998779297</ele>
        <time>2016-09-09T18:43:00.000Z</time>
      </trkpt>
      <trkpt lat="45.8323" lon="4.82628">
        <ele>297.39999389648</ele>
        <time>2016-09-09T18:43:09.000Z</time>
      </trkpt>
      <trkpt lat="45.8322" lon="4.82651">
        <ele>297.20001220703</ele>
        <time>2016-09-09T18:43:21.000Z</time>
      </trkpt>
      <trkpt lat="45.83217" lon="4.82676">
        <ele>295.20001220703</ele>
        <time>2016-09-09T18:43:29.000Z</time>
      </trkpt>
      <trkpt lat="45.83209" lon="4.827">
        <ele>294.79998779297</ele>
        <time>2016-09-09T18:43:37.000Z</time>
      </trkpt>
      <trkpt lat="45.83197" lon="4.82723">
        <ele>297</ele>
        <time>2016-09-09T18:43:44.000Z</time>
      </trkpt>
      <trkpt lat="45.83198" lon="4.82751">
        <ele>295</ele>
        <time>2016-09-09T18:43:52.000Z</time>
      </trkpt>
      <trkpt lat="45.83195" lon="4.8278">
        <ele>292.60000610352</ele>
        <time>2016-09-09T18:44:01.000Z</time>
      </trkpt>
      <trkpt lat="45.83201" lon="4.82811">
        <ele>289.20001220703</ele>
        <time>2016-09-09T18:44:09.000Z</time>
      </trkpt>
      <trkpt lat="45.83199" lon="4.82838">
        <ele>289</ele>
        <time>2016-09-09T18:44:17.000Z</time>
      </trkpt>
      <trkpt lat="45.83192" lon="4.82865">
        <ele>288.79998779297</ele>
        <time>2016-09-09T18:44:26.000Z</time>
      </trkpt>
      <trkpt lat="45.8318" lon="4.82885">
        <ele>289.39999389648</ele>
        <time>2016-09-09T18:44:32.000Z</time>
      </trkpt>
      <trkpt lat="45.83179" lon="4.82902">
        <ele>288.60000610352</ele>
        <time>2016-09-09T18:44:39.000Z</time>
      </trkpt>
      <trkpt lat="45.83177" lon="4.82918">
        <ele>288</ele>
        <time>2016-09-09T18:44:50.000Z</time>
      </trkpt>
      <trkpt lat="45.83168" lon="4.82937">
        <ele>288.20001220703</ele>
        <time>2016-09-09T18:45:02.000Z</time>
      </trkpt>
      <trkpt lat="45.83164" lon="4.82953">
        <ele>288</ele>
        <time>2016-09-09T18:45:11.000Z</time>
      </trkpt>
      <trkpt lat="45.83152" lon="4.82974">
        <ele>289</ele>
        <time>2016-09-09T18:45:21.000Z</time>
      </trkpt>
      <trkpt lat="45.83147" lon="4.83001">
        <ele>289.39999389648</ele>
        <time>2016-09-09T18:45:31.000Z</time>
      </trkpt>
      <trkpt lat="45.83141" lon="4.83016">
        <ele>290.20001220703</ele>
        <time>2016-09-09T18:45:37.000Z</time>
      </trkpt>
      <trkpt lat="45.83141" lon="4.83031">
        <ele>289.79998779297</ele>
        <time>2016-09-09T18:45:49.000Z</time>
      </trkpt>
      <trkpt lat="45.83141" lon="4.83039">
        <ele>289.60000610352</ele>
        <time>2016-09-09T18:45:54.000Z</time>
      </trkpt>
      <trkpt lat="45.83134" lon="4.83062">
        <ele>293.20001220703</ele>
        <time>2016-09-09T18:46:10.000Z</time>
      </trkpt>
      <trkpt lat="45.83137" lon="4.83082">
        <ele>294.60000610352</ele>
        <time>2016-09-09T18:46:21.000Z</time>
      </trkpt>
      <trkpt lat="45.83116" lon="4.83084">
        <ele>298.79998779297</ele>
        <time>2016-09-09T18:46:34.000Z</time>
      </trkpt>
      <trkpt lat="45.83102" lon="4.83081">
        <ele>301.20001220703</ele>
        <time>2016-09-09T18:46:42.000Z</time>
      </trkpt>
      <trkpt lat="45.83083" lon="4.83077">
        <ele>303.39999389648</ele>
        <time>2016-09-09T18:46:53.000Z</time>
      </trkpt>
      <trkpt lat="45.83064" lon="4.83075">
        <ele>305.20001220703</ele>
        <time>2016-09-09T18:47:05.000Z</time>
      </trkpt>
      <trkpt lat="45.83059" lon="4.83077">
        <ele>305.79998779297</ele>
        <time>2016-09-09T18:47:08.000Z</time>
      </trkpt>
      <trkpt lat="45.83044" lon="4.83066">
        <ele>307.79998779297</ele>
        <time>2016-09-09T18:47:15.000Z</time>
      </trkpt>
      <trkpt lat="45.83041" lon="4.83039">
        <ele>308.20001220703</ele>
        <time>2016-09-09T18:47:25.000Z</time>
      </trkpt>
      <trkpt lat="45.8304" lon="4.83013">
        <ele>309.60000610352</ele>
        <time>2016-09-09T18:47:33.000Z</time>
      </trkpt>
      <trkpt lat="45.8304" lon="4.82985">
        <ele>309.60000610352</ele>
        <time>2016-09-09T18:47:42.000Z</time>
      </trkpt>
      <trkpt lat="45.83043" lon="4.82983">
        <ele>308.79998779297</ele>
        <time>2016-09-09T18:47:43.000Z</time>
      </trkpt>
      <trkpt lat="45.83053" lon="4.82961">
        <ele>306.60000610352</ele>
        <time>2016-09-09T18:47:53.000Z</time>
      </trkpt>
      <trkpt lat="45.83054" lon="4.8294">
        <ele>308</ele>
        <time>2016-09-09T18:48:03.000Z</time>
      </trkpt>
      <trkpt lat="45.83059" lon="4.82919">
        <ele>308.79998779297</ele>
        <time>2016-09-09T18:48:26.000Z</time>
      </trkpt>
      <trkpt lat="45.83061" lon="4.82917">
        <ele>308.79998779297</ele>
        <time>2016-09-09T18:48:28.000Z</time>
      </trkpt>
      <trkpt lat="45.83057" lon="4.82908">
        <ele>310.39999389648</ele>
        <time>2016-09-09T18:48:41.000Z</time>
      </trkpt>
      <trkpt lat="45.83055" lon="4.82894">
        <ele>312</ele>
        <time>2016-09-09T18:49:00.000Z</time>
      </trkpt>
      <trkpt lat="45.83048" lon="4.82883">
        <ele>315.20001220703</ele>
        <time>2016-09-09T18:49:42.000Z</time>
      </trkpt>
      <trkpt lat="45.83058" lon="4.82877">
        <ele>313</ele>
        <time>2016-09-09T18:49:53.000Z</time>
      </trkpt>
      <trkpt lat="45.83064" lon="4.82875">
        <ele>312</ele>
        <time>2016-09-09T18:50:28.000Z</time>
      </trkpt>
      <trkpt lat="45.83065" lon="4.82869">
        <ele>312.79998779297</ele>
        <time>2016-09-09T18:50:33.000Z</time>
      </trkpt>
      <trkpt lat="45.83068" lon="4.82855">
        <ele>314.60000610352</ele>
        <time>2016-09-09T18:50:57.000Z</time>
      </trkpt>
      <trkpt lat="45.83066" lon="4.82854">
        <ele>315.39999389648</ele>
        <time>2016-09-09T18:51:00.000Z</time>
      </trkpt>
      <trkpt lat="45.83067" lon="4.82851">
        <ele>315.60000610352</ele>
        <time>2016-09-09T18:51:43.000Z</time>
      </trkpt>
      <trkpt lat="45.83056" lon="4.82844">
        <ele>319.20001220703</ele>
        <time>2016-09-09T18:51:59.000Z</time>
      </trkpt>
      <trkpt lat="45.83048" lon="4.82847">
        <ele>321.39999389648</ele>
        <time>2016-09-09T18:52:06.000Z</time>
      </trkpt>
      <trkpt lat="45.83031" lon="4.82837">
        <ele>329</ele>
        <time>2016-09-09T18:52:15.000Z</time>
      </trkpt>
      <trkpt lat="45.83029" lon="4.82834">
        <ele>330.39999389648</ele>
        <time>2016-09-09T18:52:22.000Z</time>
      </trkpt>
      <trkpt lat="45.83023" lon="4.82828">
        <ele>333.39999389648</ele>
        <time>2016-09-09T18:52:37.000Z</time>
      </trkpt>
      <trkpt lat="45.83024" lon="4.82826">
        <ele>333.60000610352</ele>
        <time>2016-09-09T18:52:41.000Z</time>
      </trkpt>
      <trkpt lat="45.83026" lon="4.82826">
        <ele>332.60000610352</ele>
        <time>2016-09-09T18:52:46.000Z</time>
      </trkpt>
      <trkpt lat="45.83009" lon="4.8282">
        <ele>339.60000610352</ele>
        <time>2016-09-09T18:53:00.000Z</time>
      </trkpt>
      <trkpt lat="45.8299" lon="4.82818">
        <ele>346</ele>
        <time>2016-09-09T18:53:14.000Z</time>
      </trkpt>
      <trkpt lat="45.82972" lon="4.82831">
        <ele>348</ele>
        <time>2016-09-09T18:53:27.000Z</time>
      </trkpt>
      <trkpt lat="45.82955" lon="4.82844">
        <ele>351</ele>
        <time>2016-09-09T18:53:37.000Z</time>
      </trkpt>
      <trkpt lat="45.82936" lon="4.82855">
        <ele>353.39999389648</ele>
        <time>2016-09-09T18:53:46.000Z</time>
      </trkpt>
      <trkpt lat="45.82917" lon="4.82864">
        <ele>355.60000610352</ele>
        <time>2016-09-09T18:53:56.000Z</time>
      </trkpt>
      <trkpt lat="45.82897" lon="4.82868">
        <ele>359</ele>
        <time>2016-09-09T18:54:04.000Z</time>
      </trkpt>
      <trkpt lat="45.82881" lon="4.82867">
        <ele>362.79998779297</ele>
        <time>2016-09-09T18:54:12.000Z</time>
      </trkpt>
      <trkpt lat="45.82871" lon="4.82868">
        <ele>364</ele>
        <time>2016-09-09T18:54:17.000Z</time>
      </trkpt>
      <trkpt lat="45.82851" lon="4.82874">
        <ele>365.39999389648</ele>
        <time>2016-09-09T18:54:27.000Z</time>
      </trkpt>
      <trkpt lat="45.82833" lon="4.82878">
        <ele>367.20001220703</ele>
        <time>2016-09-09T18:54:36.000Z</time>
      </trkpt>
      <trkpt lat="45.82814" lon="4.82878">
        <ele>370</ele>
        <time>2016-09-09T18:54:48.000Z</time>
      </trkpt>
      <trkpt lat="45.82796" lon="4.82875">
        <ele>371.60000610352</ele>
        <time>2016-09-09T18:54:55.000Z</time>
      </trkpt>
      <trkpt lat="45.82775" lon="4.82867">
        <ele>372.20001220703</ele>
        <time>2016-09-09T18:55:03.000Z</time>
      </trkpt>
      <trkpt lat="45.82756" lon="4.82861">
        <ele>372.39999389648</ele>
        <time>2016-09-09T18:55:09.000Z</time>
      </trkpt>
      <trkpt lat="45.82737" lon="4.82855">
        <ele>372.39999389648</ele>
        <time>2016-09-09T18:55:15.000Z</time>
      </trkpt>
      <trkpt lat="45.82721" lon="4.82843">
        <ele>374.20001220703</ele>
        <time>2016-09-09T18:55:22.000Z</time>
      </trkpt>
      <trkpt lat="45.82707" lon="4.82823">
        <ele>375.39999389648</ele>
        <time>2016-09-09T18:55:30.000Z</time>
      </trkpt>
      <trkpt lat="45.82695" lon="4.82802">
        <ele>377</ele>
        <time>2016-09-09T18:55:37.000Z</time>
      </trkpt>
      <trkpt lat="45.82688" lon="4.82797">
        <ele>376.39999389648</ele>
        <time>2016-09-09T18:55:40.000Z</time>
      </trkpt>
      <trkpt lat="45.82675" lon="4.82775">
        <ele>377.60000610352</ele>
        <time>2016-09-09T18:55:49.000Z</time>
      </trkpt>
      <trkpt lat="45.82661" lon="4.8276">
        <ele>377</ele>
        <time>2016-09-09T18:55:56.000Z</time>
      </trkpt>
      <trkpt lat="45.82647" lon="4.82744">
        <ele>376</ele>
        <time>2016-09-09T18:56:03.000Z</time>
      </trkpt>
      <trkpt lat="45.8263" lon="4.82733">
        <ele>374.60000610352</ele>
        <time>2016-09-09T18:56:10.000Z</time>
      </trkpt>
      <trkpt lat="45.8261" lon="4.82727">
        <ele>372.20001220703</ele>
        <time>2016-09-09T18:56:18.000Z</time>
      </trkpt>
      <trkpt lat="45.82592" lon="4.82722">
        <ele>369.39999389648</ele>
        <time>2016-09-09T18:56:24.000Z</time>
      </trkpt>
      <trkpt lat="45.82574" lon="4.82718">
        <ele>366.79998779297</ele>
        <time>2016-09-09T18:56:30.000Z</time>
      </trkpt>
      <trkpt lat="45.82552" lon="4.82714">
        <ele>363.79998779297</ele>
        <time>2016-09-09T18:56:34.000Z</time>
      </trkpt>
      <trkpt lat="45.82536" lon="4.82705">
        <ele>364.79998779297</ele>
        <time>2016-09-09T18:56:40.000Z</time>
      </trkpt>
      <trkpt lat="45.82537" lon="4.82679">
        <ele>372.79998779297</ele>
        <time>2016-09-09T18:56:52.000Z</time>
      </trkpt>
      <trkpt lat="45.82539" lon="4.82671">
        <ele>375.39999389648</ele>
        <time>2016-09-09T18:56:56.000Z</time>
      </trkpt>
      <trkpt lat="45.82553" lon="4.82655">
        <ele>381.39999389648</ele>
        <time>2016-09-09T18:57:09.000Z</time>
      </trkpt>
      <trkpt lat="45.82564" lon="4.82652">
        <ele>384.39999389648</ele>
        <time>2016-09-09T18:57:16.000Z</time>
      </trkpt>
      <trkpt lat="45.82583" lon="4.82648">
        <ele>389.20001220703</ele>
        <time>2016-09-09T18:57:32.000Z</time>
      </trkpt>
      <trkpt lat="45.82601" lon="4.82652">
        <ele>391.20001220703</ele>
        <time>2016-09-09T18:57:44.000Z</time>
      </trkpt>
      <trkpt lat="45.82617" lon="4.82665">
        <ele>390.39999389648</ele>
        <time>2016-09-09T18:57:56.000Z</time>
      </trkpt>
      <trkpt lat="45.82624" lon="4.82667">
        <ele>390.79998779297</ele>
        <time>2016-09-09T18:58:01.000Z</time>
      </trkpt>
      <trkpt lat="45.8263" lon="4.82666">
        <ele>391.79998779297</ele>
        <time>2016-09-09T18:58:05.000Z</time>
      </trkpt>
      <trkpt lat="45.82647" lon="4.82674">
        <ele>393.60000610352</ele>
        <time>2016-09-09T18:58:18.000Z</time>
      </trkpt>
      <trkpt lat="45.82663" lon="4.82684">
        <ele>395.60000610352</ele>
        <time>2016-09-09T18:58:29.000Z</time>
      </trkpt>
      <trkpt lat="45.82672" lon="4.82693">
        <ele>395.79998779297</ele>
        <time>2016-09-09T18:58:37.000Z</time>
      </trkpt>
      <trkpt lat="45.82674" lon="4.82696">
        <ele>395.79998779297</ele>
        <time>2016-09-09T18:58:39.000Z</time>
      </trkpt>
      <trkpt lat="45.82688" lon="4.82712">
        <ele>395.79998779297</ele>
        <time>2016-09-09T18:58:56.000Z</time>
      </trkpt>
      <trkpt lat="45.82689" lon="4.82714">
        <ele>395.60000610352</ele>
        <time>2016-09-09T18:58:57.000Z</time>
      </trkpt>
      <trkpt lat="45.82693" lon="4.82719">
        <ele>395.79998779297</ele>
        <time>2016-09-09T18:59:01.000Z</time>
      </trkpt>
      <trkpt lat="45.82696" lon="4.82722">
        <ele>395.79998779297</ele>
        <time>2016-09-09T18:59:05.000Z</time>
      </trkpt>
      <trkpt lat="45.82702" lon="4.82726">
        <ele>396.79998779297</ele>
        <time>2016-09-09T18:59:12.000Z</time>
      </trkpt>
      <trkpt lat="45.8271" lon="4.82732">
        <ele>397.79998779297</ele>
        <time>2016-09-09T18:59:21.000Z</time>
      </trkpt>
      <trkpt lat="45.82728" lon="4.8274">
        <ele>400.20001220703</ele>
        <time>2016-09-09T18:59:35.000Z</time>
      </trkpt>
      <trkpt lat="45.82748" lon="4.82739">
        <ele>402.60000610352</ele>
        <time>2016-09-09T18:59:50.000Z</time>
      </trkpt>
      <trkpt lat="45.82767" lon="4.82731">
        <ele>405.79998779297</ele>
        <time>2016-09-09T19:00:03.000Z</time>
      </trkpt>
      <trkpt lat="45.8278" lon="4.82721">
        <ele>408.79998779297</ele>
        <time>2016-09-09T19:00:17.000Z</time>
      </trkpt>
      <trkpt lat="45.82796" lon="4.82706">
        <ele>413</ele>
        <time>2016-09-09T19:00:33.000Z</time>
      </trkpt>
      <trkpt lat="45.82798" lon="4.82695">
        <ele>414.60000610352</ele>
        <time>2016-09-09T19:00:38.000Z</time>
      </trkpt>
      <trkpt lat="45.82804" lon="4.82669">
        <ele>418.60000610352</ele>
        <time>2016-09-09T19:00:55.000Z</time>
      </trkpt>
      <trkpt lat="45.82802" lon="4.8265">
        <ele>421</ele>
        <time>2016-09-09T19:01:08.000Z</time>
      </trkpt>
      <trkpt lat="45.82798" lon="4.82624">
        <ele>424</ele>
        <time>2016-09-09T19:01:23.000Z</time>
      </trkpt>
      <trkpt lat="45.8279" lon="4.82599">
        <ele>427.20001220703</ele>
        <time>2016-09-09T19:01:37.000Z</time>
      </trkpt>
      <trkpt lat="45.82787" lon="4.82593">
        <ele>427.79998779297</ele>
        <time>2016-09-09T19:01:41.000Z</time>
      </trkpt>
      <trkpt lat="45.82784" lon="4.82568">
        <ele>430.79998779297</ele>
        <time>2016-09-09T19:01:55.000Z</time>
      </trkpt>
      <trkpt lat="45.82784" lon="4.82558">
        <ele>431.79998779297</ele>
        <time>2016-09-09T19:02:00.000Z</time>
      </trkpt>
      <trkpt lat="45.82789" lon="4.82533">
        <ele>435.20001220703</ele>
        <time>2016-09-09T19:02:13.000Z</time>
      </trkpt>
      <trkpt lat="45.82784" lon="4.82508">
        <ele>437.20001220703</ele>
        <time>2016-09-09T19:02:30.000Z</time>
      </trkpt>
      <trkpt lat="45.82784" lon="4.82506">
        <ele>437.20001220703</ele>
        <time>2016-09-09T19:02:31.000Z</time>
      </trkpt>
      <trkpt lat="45.8278" lon="4.82494">
        <ele>437.79998779297</ele>
        <time>2016-09-09T19:02:39.000Z</time>
      </trkpt>
      <trkpt lat="45.82776" lon="4.82474">
        <ele>438.79998779297</ele>
        <time>2016-09-09T19:02:51.000Z</time>
      </trkpt>
      <trkpt lat="45.82766" lon="4.82451">
        <ele>440.20001220703</ele>
        <time>2016-09-09T19:03:09.000Z</time>
      </trkpt>
      <trkpt lat="45.82762" lon="4.82446">
        <ele>440.79998779297</ele>
        <time>2016-09-09T19:03:12.000Z</time>
      </trkpt>
      <trkpt lat="45.82759" lon="4.82439">
        <ele>441.39999389648</ele>
        <time>2016-09-09T19:03:16.000Z</time>
      </trkpt>
      <trkpt lat="45.82755" lon="4.8243">
        <ele>442.20001220703</ele>
        <time>2016-09-09T19:03:21.000Z</time>
      </trkpt>
      <trkpt lat="45.82743" lon="4.82411">
        <ele>444.20001220703</ele>
        <time>2016-09-09T19:03:33.000Z</time>
      </trkpt>
      <trkpt lat="45.8274" lon="4.82389">
        <ele>445.79998779297</ele>
        <time>2016-09-09T19:03:45.000Z</time>
      </trkpt>
      <trkpt lat="45.82737" lon="4.82384">
        <ele>446.39999389648</ele>
        <time>2016-09-09T19:03:50.000Z</time>
      </trkpt>
      <trkpt lat="45.82729" lon="4.82362">
        <ele>447.39999389648</ele>
        <time>2016-09-09T19:04:02.000Z</time>
      </trkpt>
      <trkpt lat="45.82726" lon="4.8235">
        <ele>447.60000610352</ele>
        <time>2016-09-09T19:04:09.000Z</time>
      </trkpt>
      <trkpt lat="45.82725" lon="4.82349">
        <ele>447.79998779297</ele>
        <time>2016-09-09T19:04:10.000Z</time>
      </trkpt>
      <trkpt lat="45.82722" lon="4.82335">
        <ele>448</ele>
        <time>2016-09-09T19:04:16.000Z</time>
      </trkpt>
      <trkpt lat="45.82718" lon="4.82309">
        <ele>448.39999389648</ele>
        <time>2016-09-09T19:04:27.000Z</time>
      </trkpt>
      <trkpt lat="45.82711" lon="4.82286">
        <ele>448.79998779297</ele>
        <time>2016-09-09T19:04:37.000Z</time>
      </trkpt>
      <trkpt lat="45.82699" lon="4.82264">
        <ele>449.39999389648</ele>
        <time>2016-09-09T19:04:47.000Z</time>
      </trkpt>
      <trkpt lat="45.82687" lon="4.82243">
        <ele>449.39999389648</ele>
        <time>2016-09-09T19:04:57.000Z</time>
      </trkpt>
      <trkpt lat="45.82676" lon="4.82221">
        <ele>449.39999389648</ele>
        <time>2016-09-09T19:05:06.000Z</time>
      </trkpt>
      <trkpt lat="45.82666" lon="4.822">
        <ele>449.20001220703</ele>
        <time>2016-09-09T19:05:14.000Z</time>
      </trkpt>
      <trkpt lat="45.82658" lon="4.82174">
        <ele>448.20001220703</ele>
        <time>2016-09-09T19:05:23.000Z</time>
      </trkpt>
      <trkpt lat="45.82648" lon="4.82149">
        <ele>447.20001220703</ele>
        <time>2016-09-09T19:05:32.000Z</time>
      </trkpt>
      <trkpt lat="45.82638" lon="4.82129">
        <ele>446.79998779297</ele>
        <time>2016-09-09T19:05:41.000Z</time>
      </trkpt>
      <trkpt lat="45.82632" lon="4.82103">
        <ele>448</ele>
        <time>2016-09-09T19:05:50.000Z</time>
      </trkpt>
      <trkpt lat="45.8263" lon="4.82097">
        <ele>448.79998779297</ele>
        <time>2016-09-09T19:05:53.000Z</time>
      </trkpt>
      <trkpt lat="45.82628" lon="4.8208">
        <ele>450.20001220703</ele>
        <time>2016-09-09T19:05:59.000Z</time>
      </trkpt>
      <trkpt lat="45.82625" lon="4.82053">
        <ele>452.39999389648</ele>
        <time>2016-09-09T19:06:06.000Z</time>
      </trkpt>
      <trkpt lat="45.82629" lon="4.82025">
        <ele>452.39999389648</ele>
        <time>2016-09-09T19:06:23.000Z</time>
      </trkpt>
      <trkpt lat="45.82645" lon="4.82031">
        <ele>450.79998779297</ele>
        <time>2016-09-09T19:06:34.000Z</time>
      </trkpt>
      <trkpt lat="45.82655" lon="4.82035">
        <ele>448.20001220703</ele>
        <time>2016-09-09T19:06:44.000Z</time>
      </trkpt>
      <trkpt lat="45.82665" lon="4.82025">
        <ele>446</ele>
        <time>2016-09-09T19:06:53.000Z</time>
      </trkpt>
      <trkpt lat="45.82666" lon="4.82024">
        <ele>445.79998779297</ele>
        <time>2016-09-09T19:06:54.000Z</time>
      </trkpt>
      <trkpt lat="45.82675" lon="4.82019">
        <ele>443.79998779297</ele>
        <time>2016-09-09T19:06:59.000Z</time>
      </trkpt>
      <trkpt lat="45.82694" lon="4.82009">
        <ele>439.60000610352</ele>
        <time>2016-09-09T19:07:09.000Z</time>
      </trkpt>
      <trkpt lat="45.82705" lon="4.82009">
        <ele>438</ele>
        <time>2016-09-09T19:07:15.000Z</time>
      </trkpt>
      <trkpt lat="45.82709" lon="4.8201">
        <ele>437.20001220703</ele>
        <time>2016-09-09T19:07:17.000Z</time>
      </trkpt>
      <trkpt lat="45.82726" lon="4.82002">
        <ele>435.20001220703</ele>
        <time>2016-09-09T19:07:36.000Z</time>
      </trkpt>
      <trkpt lat="45.82736" lon="4.81998">
        <ele>433.60000610352</ele>
        <time>2016-09-09T19:07:42.000Z</time>
      </trkpt>
      <trkpt lat="45.82741" lon="4.81996">
        <ele>433</ele>
        <time>2016-09-09T19:07:45.000Z</time>
      </trkpt>
      <trkpt lat="45.82748" lon="4.81996">
        <ele>431.60000610352</ele>
        <time>2016-09-09T19:07:48.000Z</time>
      </trkpt>
      <trkpt lat="45.82757" lon="4.81996">
        <ele>430</ele>
        <time>2016-09-09T19:07:53.000Z</time>
      </trkpt>
      <trkpt lat="45.82766" lon="4.81998">
        <ele>428</ele>
        <time>2016-09-09T19:07:58.000Z</time>
      </trkpt>
      <trkpt lat="45.82771" lon="4.81999">
        <ele>426.79998779297</ele>
        <time>2016-09-09T19:08:02.000Z</time>
      </trkpt>
      <trkpt lat="45.82792" lon="4.81999">
        <ele>422.60000610352</ele>
        <time>2016-09-09T19:08:19.000Z</time>
      </trkpt>
      <trkpt lat="45.82797" lon="4.81999">
        <ele>421.60000610352</ele>
        <time>2016-09-09T19:08:24.000Z</time>
      </trkpt>
      <trkpt lat="45.82805" lon="4.82">
        <ele>419.79998779297</ele>
        <time>2016-09-09T19:08:28.000Z</time>
      </trkpt>
      <trkpt lat="45.82823" lon="4.82002">
        <ele>416</ele>
        <time>2016-09-09T19:08:37.000Z</time>
      </trkpt>
      <trkpt lat="45.82833" lon="4.82006">
        <ele>413.39999389648</ele>
        <time>2016-09-09T19:08:43.000Z</time>
      </trkpt>
      <trkpt lat="45.82847" lon="4.82011">
        <ele>410.20001220703</ele>
        <time>2016-09-09T19:08:52.000Z</time>
      </trkpt>
      <trkpt lat="45.82864" lon="4.82013">
        <ele>406.60000610352</ele>
        <time>2016-09-09T19:08:59.000Z</time>
      </trkpt>
      <trkpt lat="45.82877" lon="4.82008">
        <ele>403.79998779297</ele>
        <time>2016-09-09T19:09:08.000Z</time>
      </trkpt>
      <trkpt lat="45.82897" lon="4.82002">
        <ele>400.60000610352</ele>
        <time>2016-09-09T19:09:20.000Z</time>
      </trkpt>
      <trkpt lat="45.82904" lon="4.82001">
        <ele>399.79998779297</ele>
        <time>2016-09-09T19:09:25.000Z</time>
      </trkpt>
      <trkpt lat="45.82905" lon="4.82001">
        <ele>399.60000610352</ele>
        <time>2016-09-09T19:09:26.000Z</time>
      </trkpt>
      <trkpt lat="45.82911" lon="4.81997">
        <ele>399.20001220703</ele>
        <time>2016-09-09T19:09:31.000Z</time>
      </trkpt>
      <trkpt lat="45.82929" lon="4.81991">
        <ele>396.60000610352</ele>
        <time>2016-09-09T19:09:39.000Z</time>
      </trkpt>
      <trkpt lat="45.82948" lon="4.8199">
        <ele>392.39999389648</ele>
        <time>2016-09-09T19:09:46.000Z</time>
      </trkpt>
      <trkpt lat="45.82952" lon="4.81989">
        <ele>391.39999389648</ele>
        <time>2016-09-09T19:09:49.000Z</time>
      </trkpt>
      <trkpt lat="45.82957" lon="4.8199">
        <ele>390.39999389648</ele>
        <time>2016-09-09T19:09:57.000Z</time>
      </trkpt>
      <trkpt lat="45.82968" lon="4.81985">
        <ele>387.79998779297</ele>
        <time>2016-09-09T19:10:02.000Z</time>
      </trkpt>
      <trkpt lat="45.82985" lon="4.81976">
        <ele>379.79998779297</ele>
        <time>2016-09-09T19:10:09.000Z</time>
      </trkpt>
      <trkpt lat="45.83001" lon="4.8196">
        <ele>370.39999389648</ele>
        <time>2016-09-09T19:10:17.000Z</time>
      </trkpt>
      <trkpt lat="45.83013" lon="4.81939">
        <ele>362</ele>
        <time>2016-09-09T19:10:29.000Z</time>
      </trkpt>
      <trkpt lat="45.83015" lon="4.81914">
        <ele>358.39999389648</ele>
        <time>2016-09-09T19:10:41.000Z</time>
      </trkpt>
      <trkpt lat="45.83005" lon="4.8189">
        <ele>359.79998779297</ele>
        <time>2016-09-09T19:10:52.000Z</time>
      </trkpt>
      <trkpt lat="45.83004" lon="4.81882">
        <ele>359</ele>
        <time>2016-09-09T19:10:56.000Z</time>
      </trkpt>
      <trkpt lat="45.83003" lon="4.81867">
        <ele>357.20001220703</ele>
        <time>2016-09-09T19:11:02.000Z</time>
      </trkpt>
      <trkpt lat="45.83" lon="4.81839">
        <ele>355.20001220703</ele>
        <time>2016-09-09T19:11:11.000Z</time>
      </trkpt>
      <trkpt lat="45.8299" lon="4.81816">
        <ele>358.20001220703</ele>
        <time>2016-09-09T19:11:22.000Z</time>
      </trkpt>
      <trkpt lat="45.8299" lon="4.8181">
        <ele>357.60000610352</ele>
        <time>2016-09-09T19:11:26.000Z</time>
      </trkpt>
      <trkpt lat="45.82983" lon="4.81802">
        <ele>361.20001220703</ele>
        <time>2016-09-09T19:11:34.000Z</time>
      </trkpt>
      <trkpt lat="45.82968" lon="4.81793">
        <ele>368.39999389648</ele>
        <time>2016-09-09T19:11:44.000Z</time>
      </trkpt>
      <trkpt lat="45.82968" lon="4.81791">
        <ele>368</ele>
        <time>2016-09-09T19:11:45.000Z</time>
      </trkpt>
      <trkpt lat="45.82959" lon="4.81784">
        <ele>371.20001220703</ele>
        <time>2016-09-09T19:11:54.000Z</time>
      </trkpt>
      <trkpt lat="45.82957" lon="4.8178">
        <ele>371.20001220703</ele>
        <time>2016-09-09T19:11:57.000Z</time>
      </trkpt>
      <trkpt lat="45.82952" lon="4.81774">
        <ele>371.79998779297</ele>
        <time>2016-09-09T19:12:03.000Z</time>
      </trkpt>
      <trkpt lat="45.82947" lon="4.81774">
        <ele>374.20001220703</ele>
        <time>2016-09-09T19:12:06.000Z</time>
      </trkpt>
      <trkpt lat="45.82947" lon="4.81758">
        <ele>370.60000610352</ele>
        <time>2016-09-09T19:12:20.000Z</time>
      </trkpt>
      <trkpt lat="45.82948" lon="4.81755">
        <ele>369</ele>
        <time>2016-09-09T19:12:21.000Z</time>
      </trkpt>
      <trkpt lat="45.82939" lon="4.81733">
        <ele>368.39999389648</ele>
        <time>2016-09-09T19:12:33.000Z</time>
      </trkpt>
      <trkpt lat="45.82936" lon="4.81728">
        <ele>368.39999389648</ele>
        <time>2016-09-09T19:12:36.000Z</time>
      </trkpt>
      <trkpt lat="45.82936" lon="4.81716">
        <ele>365.60000610352</ele>
        <time>2016-09-09T19:12:41.000Z</time>
      </trkpt>
      <trkpt lat="45.82936" lon="4.81709">
        <ele>363.60000610352</ele>
        <time>2016-09-09T19:12:44.000Z</time>
      </trkpt>
      <trkpt lat="45.8293" lon="4.81699">
        <ele>364.60000610352</ele>
        <time>2016-09-09T19:12:48.000Z</time>
      </trkpt>
      <trkpt lat="45.82924" lon="4.81672">
        <ele>362.39999389648</ele>
        <time>2016-09-09T19:12:58.000Z</time>
      </trkpt>
      <trkpt lat="45.82917" lon="4.81664">
        <ele>364</ele>
        <time>2016-09-09T19:13:01.000Z</time>
      </trkpt>
      <trkpt lat="45.82904" lon="4.81647">
        <ele>366.79998779297</ele>
        <time>2016-09-09T19:13:08.000Z</time>
      </trkpt>
      <trkpt lat="45.82893" lon="4.81626">
        <ele>367.60000610352</ele>
        <time>2016-09-09T19:13:21.000Z</time>
      </trkpt>
      <trkpt lat="45.82895" lon="4.81621">
        <ele>366.79998779297</ele>
        <time>2016-09-09T19:13:24.000Z</time>
      </trkpt>
      <trkpt lat="45.8289" lon="4.81602">
        <ele>366.39999389648</ele>
        <time>2016-09-09T19:13:33.000Z</time>
      </trkpt>
      <trkpt lat="45.82899" lon="4.81582">
        <ele>361</ele>
        <time>2016-09-09T19:13:39.000Z</time>
      </trkpt>
      <trkpt lat="45.82905" lon="4.81574">
        <ele>358</ele>
        <time>2016-09-09T19:13:41.000Z</time>
      </trkpt>
      <trkpt lat="45.82896" lon="4.81548">
        <ele>358.20001220703</ele>
        <time>2016-09-09T19:13:57.000Z</time>
      </trkpt>
      <trkpt lat="45.82917" lon="4.8152">
        <ele>349.20001220703</ele>
        <time>2016-09-09T19:14:05.000Z</time>
      </trkpt>
      <trkpt lat="45.8292" lon="4.81486">
        <ele>348.20001220703</ele>
        <time>2016-09-09T19:14:16.000Z</time>
      </trkpt>
      <trkpt lat="45.82927" lon="4.81468">
        <ele>342.79998779297</ele>
        <time>2016-09-09T19:14:27.000Z</time>
      </trkpt>
      <trkpt lat="45.8294" lon="4.81443">
        <ele>336.60000610352</ele>
        <time>2016-09-09T19:14:41.000Z</time>
      </trkpt>
      <trkpt lat="45.82937" lon="4.81423">
        <ele>341</ele>
        <time>2016-09-09T19:14:54.000Z</time>
      </trkpt>
      <trkpt lat="45.82946" lon="4.81402">
        <ele>337.60000610352</ele>
        <time>2016-09-09T19:15:07.000Z</time>
      </trkpt>
      <trkpt lat="45.82951" lon="4.81395">
        <ele>335.20001220703</ele>
        <time>2016-09-09T19:15:10.000Z</time>
      </trkpt>
      <trkpt lat="45.8296" lon="4.81373">
        <ele>331.20001220703</ele>
        <time>2016-09-09T19:15:19.000Z</time>
      </trkpt>
      <trkpt lat="45.8297" lon="4.81349">
        <ele>330.79998779297</ele>
        <time>2016-09-09T19:15:29.000Z</time>
      </trkpt>
      <trkpt lat="45.82989" lon="4.81337">
        <ele>331.39999389648</ele>
        <time>2016-09-09T19:15:32.000Z</time>
      </trkpt>
      <trkpt lat="45.83007" lon="4.81326">
        <ele>333</ele>
        <time>2016-09-09T19:15:37.000Z</time>
      </trkpt>
      <trkpt lat="45.83026" lon="4.81314">
        <ele>335</ele>
        <time>2016-09-09T19:15:47.000Z</time>
      </trkpt>
      <trkpt lat="45.83031" lon="4.81303">
        <ele>337.60000610352</ele>
        <time>2016-09-09T19:15:52.000Z</time>
      </trkpt>
      <trkpt lat="45.8303" lon="4.81296">
        <ele>339.20001220703</ele>
        <time>2016-09-09T19:15:58.000Z</time>
      </trkpt>
      <trkpt lat="45.83036" lon="4.81296">
        <ele>339</ele>
        <time>2016-09-09T19:16:00.000Z</time>
      </trkpt>
      <trkpt lat="45.83052" lon="4.81309">
        <ele>335</ele>
        <time>2016-09-09T19:16:15.000Z</time>
      </trkpt>
      <trkpt lat="45.83067" lon="4.81323">
        <ele>332.79998779297</ele>
        <time>2016-09-09T19:16:30.000Z</time>
      </trkpt>
      <trkpt lat="45.83069" lon="4.81325">
        <ele>332.39999389648</ele>
        <time>2016-09-09T19:16:31.000Z</time>
      </trkpt>
      <trkpt lat="45.83077" lon="4.8135">
        <ele>327.39999389648</ele>
        <time>2016-09-09T19:16:41.000Z</time>
      </trkpt>
      <trkpt lat="45.83083" lon="4.81368">
        <ele>323.60000610352</ele>
        <time>2016-09-09T19:16:50.000Z</time>
      </trkpt>
      <trkpt lat="45.83089" lon="4.81363">
        <ele>325.60000610352</ele>
        <time>2016-09-09T19:16:54.000Z</time>
      </trkpt>
      <trkpt lat="45.83107" lon="4.81356">
        <ele>329.79998779297</ele>
        <time>2016-09-09T19:17:05.000Z</time>
      </trkpt>
      <trkpt lat="45.83124" lon="4.8135">
        <ele>333.20001220703</ele>
        <time>2016-09-09T19:17:18.000Z</time>
      </trkpt>
      <trkpt lat="45.83132" lon="4.81344">
        <ele>335</ele>
        <time>2016-09-09T19:17:28.000Z</time>
      </trkpt>
      <trkpt lat="45.83133" lon="4.81338">
        <ele>336</ele>
        <time>2016-09-09T19:17:33.000Z</time>
      </trkpt>
      <trkpt lat="45.83141" lon="4.81315">
        <ele>341.20001220703</ele>
        <time>2016-09-09T19:17:52.000Z</time>
      </trkpt>
      <trkpt lat="45.83141" lon="4.81312">
        <ele>341.79998779297</ele>
        <time>2016-09-09T19:17:55.000Z</time>
      </trkpt>
      <trkpt lat="45.83145" lon="4.81312">
        <ele>342.60000610352</ele>
        <time>2016-09-09T19:18:01.000Z</time>
      </trkpt>
      <trkpt lat="45.83161" lon="4.81321">
        <ele>343.39999389648</ele>
        <time>2016-09-09T19:18:18.000Z</time>
      </trkpt>
      <trkpt lat="45.83173" lon="4.81335">
        <ele>342.79998779297</ele>
        <time>2016-09-09T19:18:34.000Z</time>
      </trkpt>
      <trkpt lat="45.83178" lon="4.81335">
        <ele>343.60000610352</ele>
        <time>2016-09-09T19:18:42.000Z</time>
      </trkpt>
      <trkpt lat="45.83188" lon="4.81342">
        <ele>344</ele>
        <time>2016-09-09T19:18:54.000Z</time>
      </trkpt>
      <trkpt lat="45.83205" lon="4.81347">
        <ele>345.39999389648</ele>
        <time>2016-09-09T19:19:22.000Z</time>
      </trkpt>
      <trkpt lat="45.8321" lon="4.8135">
        <ele>345.60000610352</ele>
        <time>2016-09-09T19:19:26.000Z</time>
      </trkpt>
      <trkpt lat="45.83213" lon="4.81353">
        <ele>345.79998779297</ele>
        <time>2016-09-09T19:19:31.000Z</time>
      </trkpt>
      <trkpt lat="45.83214" lon="4.81353">
        <ele>345.79998779297</ele>
        <time>2016-09-09T19:19:32.000Z</time>
      </trkpt>
      <trkpt lat="45.8323" lon="4.81351">
        <ele>347.20001220703</ele>
        <time>2016-09-09T19:19:46.000Z</time>
      </trkpt>
      <trkpt lat="45.83235" lon="4.8136">
        <ele>346</ele>
        <time>2016-09-09T19:19:52.000Z</time>
      </trkpt>
      <trkpt lat="45.83243" lon="4.81355">
        <ele>347</ele>
        <time>2016-09-09T19:20:03.000Z</time>
      </trkpt>
      <trkpt lat="45.83253" lon="4.8135">
        <ele>347.79998779297</ele>
        <time>2016-09-09T19:20:17.000Z</time>
      </trkpt>
      <trkpt lat="45.83252" lon="4.81338">
        <ele>349.60000610352</ele>
        <time>2016-09-09T19:20:26.000Z</time>
      </trkpt>
      <trkpt lat="45.83262" lon="4.81326">
        <ele>351.60000610352</ele>
        <time>2016-09-09T19:20:38.000Z</time>
      </trkpt>
      <trkpt lat="45.83256" lon="4.81302">
        <ele>356</ele>
        <time>2016-09-09T19:20:55.000Z</time>
      </trkpt>
      <trkpt lat="45.83256" lon="4.81302">
        <ele>356.20001220703</ele>
        <time>2016-09-09T19:20:56.000Z</time>
      </trkpt>
      <trkpt lat="45.83246" lon="4.8128">
        <ele>359</ele>
        <time>2016-09-09T19:21:09.000Z</time>
      </trkpt>
      <trkpt lat="45.83242" lon="4.81253">
        <ele>361.79998779297</ele>
        <time>2016-09-09T19:21:21.000Z</time>
      </trkpt>
      <trkpt lat="45.83245" lon="4.81228">
        <ele>365.20001220703</ele>
        <time>2016-09-09T19:21:30.000Z</time>
      </trkpt>
      <trkpt lat="45.83248" lon="4.81202">
        <ele>368.79998779297</ele>
        <time>2016-09-09T19:21:39.000Z</time>
      </trkpt>
      <trkpt lat="45.83243" lon="4.81175">
        <ele>372</ele>
        <time>2016-09-09T19:21:49.000Z</time>
      </trkpt>
      <trkpt lat="45.83243" lon="4.81149">
        <ele>375.39999389648</ele>
        <time>2016-09-09T19:22:00.000Z</time>
      </trkpt>
      <trkpt lat="45.83251" lon="4.81124">
        <ele>376.60000610352</ele>
        <time>2016-09-09T19:22:12.000Z</time>
      </trkpt>
      <trkpt lat="45.83253" lon="4.81098">
        <ele>382.20001220703</ele>
        <time>2016-09-09T19:22:21.000Z</time>
      </trkpt>
      <trkpt lat="45.83252" lon="4.81095">
        <ele>382.79998779297</ele>
        <time>2016-09-09T19:22:22.000Z</time>
      </trkpt>
      <trkpt lat="45.83241" lon="4.81083">
        <ele>385.60000610352</ele>
        <time>2016-09-09T19:22:29.000Z</time>
      </trkpt>
      <trkpt lat="45.83223" lon="4.81076">
        <ele>387.39999389648</ele>
        <time>2016-09-09T19:22:37.000Z</time>
      </trkpt>
      <trkpt lat="45.83204" lon="4.81067">
        <ele>388</ele>
        <time>2016-09-09T19:22:47.000Z</time>
      </trkpt>
      <trkpt lat="45.83185" lon="4.81065">
        <ele>386.79998779297</ele>
        <time>2016-09-09T19:22:57.000Z</time>
      </trkpt>
      <trkpt lat="45.83168" lon="4.81051">
        <ele>388.60000610352</ele>
        <time>2016-09-09T19:23:08.000Z</time>
      </trkpt>
      <trkpt lat="45.83162" lon="4.81039">
        <ele>390.79998779297</ele>
        <time>2016-09-09T19:23:15.000Z</time>
      </trkpt>
      <trkpt lat="45.83158" lon="4.8103">
        <ele>392.20001220703</ele>
        <time>2016-09-09T19:23:20.000Z</time>
      </trkpt>
      <trkpt lat="45.83151" lon="4.81005">
        <ele>396.39999389648</ele>
        <time>2016-09-09T19:23:32.000Z</time>
      </trkpt>
      <trkpt lat="45.83152" lon="4.80983">
        <ele>400.60000610352</ele>
        <time>2016-09-09T19:23:41.000Z</time>
      </trkpt>
      <trkpt lat="45.83153" lon="4.8097">
        <ele>403.39999389648</ele>
        <time>2016-09-09T19:23:47.000Z</time>
      </trkpt>
      <trkpt lat="45.83156" lon="4.80962">
        <ele>404.60000610352</ele>
        <time>2016-09-09T19:23:54.000Z</time>
      </trkpt>
      <trkpt lat="45.8316" lon="4.80955">
        <ele>405.79998779297</ele>
        <time>2016-09-09T19:23:59.000Z</time>
      </trkpt>
      <trkpt lat="45.83163" lon="4.80951">
        <ele>406.60000610352</ele>
        <time>2016-09-09T19:24:02.000Z</time>
      </trkpt>
      <trkpt lat="45.83166" lon="4.80947">
        <ele>407.20001220703</ele>
        <time>2016-09-09T19:24:05.000Z</time>
      </trkpt>
      <trkpt lat="45.83172" lon="4.80923">
        <ele>411.20001220703</ele>
        <time>2016-09-09T19:24:16.000Z</time>
      </trkpt>
      <trkpt lat="45.83178" lon="4.80899">
        <ele>414.39999389648</ele>
        <time>2016-09-09T19:24:30.000Z</time>
      </trkpt>
      <trkpt lat="45.8318" lon="4.80891">
        <ele>415.20001220703</ele>
        <time>2016-09-09T19:24:34.000Z</time>
      </trkpt>
      <trkpt lat="45.83178" lon="4.80886">
        <ele>415.79998779297</ele>
        <time>2016-09-09T19:24:38.000Z</time>
      </trkpt>
      <trkpt lat="45.83177" lon="4.80877">
        <ele>416.60000610352</ele>
        <time>2016-09-09T19:24:43.000Z</time>
      </trkpt>
      <trkpt lat="45.83184" lon="4.80865">
        <ele>417.20001220703</ele>
        <time>2016-09-09T19:24:55.000Z</time>
      </trkpt>
      <trkpt lat="45.83194" lon="4.80845">
        <ele>418</ele>
        <time>2016-09-09T19:25:13.000Z</time>
      </trkpt>
      <trkpt lat="45.83196" lon="4.80838">
        <ele>418.20001220703</ele>
        <time>2016-09-09T19:25:18.000Z</time>
      </trkpt>
      <trkpt lat="45.83197" lon="4.80834">
        <ele>418.39999389648</ele>
        <time>2016-09-09T19:25:21.000Z</time>
      </trkpt>
      <trkpt lat="45.83205" lon="4.80832">
        <ele>418.39999389648</ele>
        <time>2016-09-09T19:25:26.000Z</time>
      </trkpt>
      <trkpt lat="45.8322" lon="4.80819">
        <ele>418.60000610352</ele>
        <time>2016-09-09T19:25:40.000Z</time>
      </trkpt>
      <trkpt lat="45.83232" lon="4.80798">
        <ele>420</ele>
        <time>2016-09-09T19:25:54.000Z</time>
      </trkpt>
      <trkpt lat="45.83248" lon="4.80787">
        <ele>421.60000610352</ele>
        <time>2016-09-09T19:26:04.000Z</time>
      </trkpt>
      <trkpt lat="45.83256" lon="4.8078">
        <ele>422</ele>
        <time>2016-09-09T19:26:11.000Z</time>
      </trkpt>
      <trkpt lat="45.83263" lon="4.80787">
        <ele>422.39999389648</ele>
        <time>2016-09-09T19:26:16.000Z</time>
      </trkpt>
      <trkpt lat="45.83264" lon="4.80787">
        <ele>422.60000610352</ele>
        <time>2016-09-09T19:26:17.000Z</time>
      </trkpt>
      <trkpt lat="45.83281" lon="4.80792">
        <ele>423.39999389648</ele>
        <time>2016-09-09T19:26:27.000Z</time>
      </trkpt>
      <trkpt lat="45.83287" lon="4.80805">
        <ele>423</ele>
        <time>2016-09-09T19:26:31.000Z</time>
      </trkpt>
      <trkpt lat="45.83292" lon="4.80832">
        <ele>422.20001220703</ele>
        <time>2016-09-09T19:26:39.000Z</time>
      </trkpt>
      <trkpt lat="45.83296" lon="4.80844">
        <ele>421.79998779297</ele>
        <time>2016-09-09T19:26:46.000Z</time>
      </trkpt>
      <trkpt lat="45.83301" lon="4.80838">
        <ele>422.39999389648</ele>
        <time>2016-09-09T19:26:54.000Z</time>
      </trkpt>
      <trkpt lat="45.83313" lon="4.80831">
        <ele>422.60000610352</ele>
        <time>2016-09-09T19:27:03.000Z</time>
      </trkpt>
      <trkpt lat="45.83315" lon="4.80829">
        <ele>422.60000610352</ele>
        <time>2016-09-09T19:27:05.000Z</time>
      </trkpt>
      <trkpt lat="45.83331" lon="4.80813">
        <ele>422.60000610352</ele>
        <time>2016-09-09T19:27:19.000Z</time>
      </trkpt>
      <trkpt lat="45.83346" lon="4.80799">
        <ele>425.20001220703</ele>
        <time>2016-09-09T19:27:31.000Z</time>
      </trkpt>
      <trkpt lat="45.83361" lon="4.80784">
        <ele>427.20001220703</ele>
        <time>2016-09-09T19:27:44.000Z</time>
      </trkpt>
      <trkpt lat="45.83376" lon="4.80765">
        <ele>429.20001220703</ele>
        <time>2016-09-09T19:27:57.000Z</time>
      </trkpt>
      <trkpt lat="45.83392" lon="4.80752">
        <ele>432.20001220703</ele>
        <time>2016-09-09T19:28:05.000Z</time>
      </trkpt>
      <trkpt lat="45.83408" lon="4.80737">
        <ele>432.39999389648</ele>
        <time>2016-09-09T19:28:13.000Z</time>
      </trkpt>
      <trkpt lat="45.83414" lon="4.80715">
        <ele>436.39999389648</ele>
        <time>2016-09-09T19:28:21.000Z</time>
      </trkpt>
      <trkpt lat="45.83406" lon="4.80692">
        <ele>439.39999389648</ele>
        <time>2016-09-09T19:28:28.000Z</time>
      </trkpt>
      <trkpt lat="45.83396" lon="4.80669">
        <ele>440.39999389648</ele>
        <time>2016-09-09T19:28:36.000Z</time>
      </trkpt>
      <trkpt lat="45.83388" lon="4.80645">
        <ele>441.39999389648</ele>
        <time>2016-09-09T19:28:44.000Z</time>
      </trkpt>
      <trkpt lat="45.83384" lon="4.80616">
        <ele>442.79998779297</ele>
        <time>2016-09-09T19:28:52.000Z</time>
      </trkpt>
      <trkpt lat="45.83381" lon="4.8059">
        <ele>444.20001220703</ele>
        <time>2016-09-09T19:29:00.000Z</time>
      </trkpt>
      <trkpt lat="45.83378" lon="4.80564">
        <ele>445.79998779297</ele>
        <time>2016-09-09T19:29:10.000Z</time>
      </trkpt>
      <trkpt lat="45.83395" lon="4.8056">
        <ele>448.39999389648</ele>
        <time>2016-09-09T19:29:24.000Z</time>
      </trkpt>
      <trkpt lat="45.83413" lon="4.80552">
        <ele>451.60000610352</ele>
        <time>2016-09-09T19:29:38.000Z</time>
      </trkpt>
      <trkpt lat="45.83428" lon="4.80537">
        <ele>454.39999389648</ele>
        <time>2016-09-09T19:29:53.000Z</time>
      </trkpt>
      <trkpt lat="45.83443" lon="4.80527">
        <ele>457.20001220703</ele>
        <time>2016-09-09T19:30:07.000Z</time>
      </trkpt>
      <trkpt lat="45.83447" lon="4.80525">
        <ele>458</ele>
        <time>2016-09-09T19:30:11.000Z</time>
      </trkpt>
      <trkpt lat="45.83465" lon="4.80521">
        <ele>460.39999389648</ele>
        <time>2016-09-09T19:30:23.000Z</time>
      </trkpt>
      <trkpt lat="45.83483" lon="4.80514">
        <ele>462.39999389648</ele>
        <time>2016-09-09T19:30:34.000Z</time>
      </trkpt>
      <trkpt lat="45.835" lon="4.80503">
        <ele>464.60000610352</ele>
        <time>2016-09-09T19:30:45.000Z</time>
      </trkpt>
      <trkpt lat="45.83518" lon="4.80491">
        <ele>466.39999389648</ele>
        <time>2016-09-09T19:30:54.000Z</time>
      </trkpt>
      <trkpt lat="45.83536" lon="4.80479">
        <ele>468</ele>
        <time>2016-09-09T19:31:03.000Z</time>
      </trkpt>
      <trkpt lat="45.83554" lon="4.80469">
        <ele>469.20001220703</ele>
        <time>2016-09-09T19:31:16.000Z</time>
      </trkpt>
      <trkpt lat="45.83572" lon="4.80459">
        <ele>469</ele>
        <time>2016-09-09T19:31:28.000Z</time>
      </trkpt>
      <trkpt lat="45.83573" lon="4.80458">
        <ele>469.20001220703</ele>
        <time>2016-09-09T19:31:29.000Z</time>
      </trkpt>
      <trkpt lat="45.83577" lon="4.80453">
        <ele>469.39999389648</ele>
        <time>2016-09-09T19:31:33.000Z</time>
      </trkpt>
      <trkpt lat="45.83594" lon="4.80442">
        <ele>469.39999389648</ele>
        <time>2016-09-09T19:31:46.000Z</time>
      </trkpt>
      <trkpt lat="45.83601" lon="4.80438">
        <ele>469.39999389648</ele>
        <time>2016-09-09T19:31:50.000Z</time>
      </trkpt>
      <trkpt lat="45.83602" lon="4.80426">
        <ele>470</ele>
        <time>2016-09-09T19:31:54.000Z</time>
      </trkpt>
      <trkpt lat="45.836" lon="4.80399">
        <ele>471.39999389648</ele>
        <time>2016-09-09T19:32:04.000Z</time>
      </trkpt>
      <trkpt lat="45.83598" lon="4.80391">
        <ele>471.79998779297</ele>
        <time>2016-09-09T19:32:07.000Z</time>
      </trkpt>
      <trkpt lat="45.83602" lon="4.80383">
        <ele>471.79998779297</ele>
        <time>2016-09-09T19:32:11.000Z</time>
      </trkpt>
      <trkpt lat="45.83618" lon="4.80369">
        <ele>471.39999389648</ele>
        <time>2016-09-09T19:32:23.000Z</time>
      </trkpt>
      <trkpt lat="45.8362" lon="4.8037">
        <ele>471.20001220703</ele>
        <time>2016-09-09T19:32:25.000Z</time>
      </trkpt>
      <trkpt lat="45.83625" lon="4.80376">
        <ele>470.79998779297</ele>
        <time>2016-09-09T19:32:29.000Z</time>
      </trkpt>
      <trkpt lat="45.83639" lon="4.80393">
        <ele>469.20001220703</ele>
        <time>2016-09-09T19:32:37.000Z</time>
      </trkpt>
      <trkpt lat="45.83643" lon="4.804">
        <ele>468.60000610352</ele>
        <time>2016-09-09T19:32:41.000Z</time>
      </trkpt>
      <trkpt lat="45.83651" lon="4.80397">
        <ele>468</ele>
        <time>2016-09-09T19:32:46.000Z</time>
      </trkpt>
      <trkpt lat="45.83652" lon="4.80396">
        <ele>467.79998779297</ele>
        <time>2016-09-09T19:32:47.000Z</time>
      </trkpt>
      <trkpt lat="45.8367" lon="4.80387">
        <ele>467.60000610352</ele>
        <time>2016-09-09T19:32:56.000Z</time>
      </trkpt>
      <trkpt lat="45.83675" lon="4.80385">
        <ele>467.79998779297</ele>
        <time>2016-09-09T19:32:59.000Z</time>
      </trkpt>
      <trkpt lat="45.83682" lon="4.80393">
        <ele>466.79998779297</ele>
        <time>2016-09-09T19:33:03.000Z</time>
      </trkpt>
      <trkpt lat="45.83687" lon="4.80418">
        <ele>463.79998779297</ele>
        <time>2016-09-09T19:33:12.000Z</time>
      </trkpt>
      <trkpt lat="45.83693" lon="4.80444">
        <ele>462.20001220703</ele>
        <time>2016-09-09T19:33:22.000Z</time>
      </trkpt>
      <trkpt lat="45.83699" lon="4.80469">
        <ele>459.60000610352</ele>
        <time>2016-09-09T19:33:32.000Z</time>
      </trkpt>
      <trkpt lat="45.83701" lon="4.80496">
        <ele>456.20001220703</ele>
        <time>2016-09-09T19:33:42.000Z</time>
      </trkpt>
      <trkpt lat="45.83704" lon="4.80521">
        <ele>452.79998779297</ele>
        <time>2016-09-09T19:33:50.000Z</time>
      </trkpt>
      <trkpt lat="45.83707" lon="4.80529">
        <ele>451.60000610352</ele>
        <time>2016-09-09T19:33:53.000Z</time>
      </trkpt>
      <trkpt lat="45.83726" lon="4.80536">
        <ele>450.20001220703</ele>
        <time>2016-09-09T19:34:01.000Z</time>
      </trkpt>
      <trkpt lat="45.83738" lon="4.80536">
        <ele>452.79998779297</ele>
        <time>2016-09-09T19:34:07.000Z</time>
      </trkpt>
      <trkpt lat="45.83756" lon="4.80532">
        <ele>457.60000610352</ele>
        <time>2016-09-09T19:34:16.000Z</time>
      </trkpt>
      <trkpt lat="45.83775" lon="4.80524">
        <ele>462.60000610352</ele>
        <time>2016-09-09T19:34:26.000Z</time>
      </trkpt>
      <trkpt lat="45.83792" lon="4.8053">
        <ele>466</ele>
        <time>2016-09-09T19:34:36.000Z</time>
      </trkpt>
      <trkpt lat="45.83809" lon="4.80543">
        <ele>468.20001220703</ele>
        <time>2016-09-09T19:34:45.000Z</time>
      </trkpt>
      <trkpt lat="45.83822" lon="4.80561">
        <ele>468.79998779297</ele>
        <time>2016-09-09T19:34:56.000Z</time>
      </trkpt>
      <trkpt lat="45.83832" lon="4.80574">
        <ele>469.60000610352</ele>
        <time>2016-09-09T19:35:07.000Z</time>
      </trkpt>
      <trkpt lat="45.83836" lon="4.80572">
        <ele>470.60000610352</ele>
        <time>2016-09-09T19:35:12.000Z</time>
      </trkpt>
      <trkpt lat="45.83837" lon="4.80568">
        <ele>471.39999389648</ele>
        <time>2016-09-09T19:35:16.000Z</time>
      </trkpt>
      <trkpt lat="45.83837" lon="4.80561">
        <ele>472.39999389648</ele>
        <time>2016-09-09T19:35:22.000Z</time>
      </trkpt>
      <trkpt lat="45.83839" lon="4.80535">
        <ele>476.39999389648</ele>
        <time>2016-09-09T19:35:35.000Z</time>
      </trkpt>
      <trkpt lat="45.83839" lon="4.80531">
        <ele>476.79998779297</ele>
        <time>2016-09-09T19:35:37.000Z</time>
      </trkpt>
      <trkpt lat="45.8384" lon="4.80523">
        <ele>477.79998779297</ele>
        <time>2016-09-09T19:35:41.000Z</time>
      </trkpt>
      <trkpt lat="45.83844" lon="4.805">
        <ele>481</ele>
        <time>2016-09-09T19:35:53.000Z</time>
      </trkpt>
      <trkpt lat="45.83845" lon="4.80483">
        <ele>483</ele>
        <time>2016-09-09T19:36:02.000Z</time>
      </trkpt>
      <trkpt lat="45.83848" lon="4.80467">
        <ele>485.60000610352</ele>
        <time>2016-09-09T19:36:12.000Z</time>
      </trkpt>
      <trkpt lat="45.83851" lon="4.80458">
        <ele>487.60000610352</ele>
        <time>2016-09-09T19:36:20.000Z</time>
      </trkpt>
      <trkpt lat="45.83854" lon="4.80433">
        <ele>491.39999389648</ele>
        <time>2016-09-09T19:36:39.000Z</time>
      </trkpt>
      <trkpt lat="45.8386" lon="4.80425">
        <ele>494</ele>
        <time>2016-09-09T19:36:46.000Z</time>
      </trkpt>
      <trkpt lat="45.83874" lon="4.80439">
        <ele>496</ele>
        <time>2016-09-09T19:37:02.000Z</time>
      </trkpt>
      <trkpt lat="45.83876" lon="4.80441">
        <ele>496.20001220703</ele>
        <time>2016-09-09T19:37:04.000Z</time>
      </trkpt>
      <trkpt lat="45.8388" lon="4.80446">
        <ele>496.60000610352</ele>
        <time>2016-09-09T19:37:09.000Z</time>
      </trkpt>
      <trkpt lat="45.83892" lon="4.80457">
        <ele>498.20001220703</ele>
        <time>2016-09-09T19:37:21.000Z</time>
      </trkpt>
      <trkpt lat="45.83897" lon="4.80455">
        <ele>498.79998779297</ele>
        <time>2016-09-09T19:37:25.000Z</time>
      </trkpt>
      <trkpt lat="45.83906" lon="4.80433">
        <ele>502.60000610352</ele>
        <time>2016-09-09T19:37:40.000Z</time>
      </trkpt>
      <trkpt lat="45.83918" lon="4.80411">
        <ele>506.60000610352</ele>
        <time>2016-09-09T19:37:55.000Z</time>
      </trkpt>
      <trkpt lat="45.83919" lon="4.80406">
        <ele>507.39999389648</ele>
        <time>2016-09-09T19:37:58.000Z</time>
      </trkpt>
      <trkpt lat="45.83921" lon="4.804">
        <ele>508.39999389648</ele>
        <time>2016-09-09T19:38:02.000Z</time>
      </trkpt>
      <trkpt lat="45.83929" lon="4.80386">
        <ele>511.79998779297</ele>
        <time>2016-09-09T19:38:12.000Z</time>
      </trkpt>
      <trkpt lat="45.83936" lon="4.80377">
        <ele>514.40002441406</ele>
        <time>2016-09-09T19:38:19.000Z</time>
      </trkpt>
      <trkpt lat="45.83937" lon="4.80377">
        <ele>514.59997558594</ele>
        <time>2016-09-09T19:38:20.000Z</time>
      </trkpt>
      <trkpt lat="45.83941" lon="4.80375">
        <ele>515.40002441406</ele>
        <time>2016-09-09T19:38:24.000Z</time>
      </trkpt>
      <trkpt lat="45.83959" lon="4.8037">
        <ele>518.40002441406</ele>
        <time>2016-09-09T19:38:37.000Z</time>
      </trkpt>
      <trkpt lat="45.83977" lon="4.80362">
        <ele>521.40002441406</ele>
        <time>2016-09-09T19:38:46.000Z</time>
      </trkpt>
      <trkpt lat="45.83994" lon="4.80357">
        <ele>522.40002441406</ele>
        <time>2016-09-09T19:38:58.000Z</time>
      </trkpt>
      <trkpt lat="45.83988" lon="4.80332">
        <ele>525.79998779297</ele>
        <time>2016-09-09T19:39:14.000Z</time>
      </trkpt>
      <trkpt lat="45.83984" lon="4.80308">
        <ele>529.40002441406</ele>
        <time>2016-09-09T19:39:29.000Z</time>
      </trkpt>
      <trkpt lat="45.84003" lon="4.80304">
        <ele>530.59997558594</ele>
        <time>2016-09-09T19:39:47.000Z</time>
      </trkpt>
      <trkpt lat="45.84017" lon="4.80295">
        <ele>532.40002441406</ele>
        <time>2016-09-09T19:39:56.000Z</time>
      </trkpt>
      <trkpt lat="45.84036" lon="4.8029">
        <ele>534</ele>
        <time>2016-09-09T19:40:06.000Z</time>
      </trkpt>
      <trkpt lat="45.8404" lon="4.80287">
        <ele>534.59997558594</ele>
        <time>2016-09-09T19:40:10.000Z</time>
      </trkpt>
      <trkpt lat="45.84043" lon="4.8026">
        <ele>538.79998779297</ele>
        <time>2016-09-09T19:40:25.000Z</time>
      </trkpt>
      <trkpt lat="45.84044" lon="4.80258">
        <ele>539</ele>
        <time>2016-09-09T19:40:26.000Z</time>
      </trkpt>
      <trkpt lat="45.84047" lon="4.80235">
        <ele>542.79998779297</ele>
        <time>2016-09-09T19:40:42.000Z</time>
      </trkpt>
      <trkpt lat="45.8405" lon="4.80224">
        <ele>544.59997558594</ele>
        <time>2016-09-09T19:40:50.000Z</time>
      </trkpt>
      <trkpt lat="45.84051" lon="4.80221">
        <ele>545.20001220703</ele>
        <time>2016-09-09T19:40:53.000Z</time>
      </trkpt>
      <trkpt lat="45.84055" lon="4.80215">
        <ele>546.40002441406</ele>
        <time>2016-09-09T19:40:58.000Z</time>
      </trkpt>
      <trkpt lat="45.84063" lon="4.80206">
        <ele>547.79998779297</ele>
        <time>2016-09-09T19:41:05.000Z</time>
      </trkpt>
      <trkpt lat="45.84069" lon="4.80204">
        <ele>548</ele>
        <time>2016-09-09T19:41:09.000Z</time>
      </trkpt>
      <trkpt lat="45.84076" lon="4.80199">
        <ele>548.59997558594</ele>
        <time>2016-09-09T19:41:15.000Z</time>
      </trkpt>
      <trkpt lat="45.84079" lon="4.80196">
        <ele>549</ele>
        <time>2016-09-09T19:41:19.000Z</time>
      </trkpt>
      <trkpt lat="45.84095" lon="4.80184">
        <ele>550.20001220703</ele>
        <time>2016-09-09T19:41:35.000Z</time>
      </trkpt>
      <trkpt lat="45.84097" lon="4.80183">
        <ele>550.40002441406</ele>
        <time>2016-09-09T19:41:37.000Z</time>
      </trkpt>
      <trkpt lat="45.84116" lon="4.8018">
        <ele>550.59997558594</ele>
        <time>2016-09-09T19:41:48.000Z</time>
      </trkpt>
      <trkpt lat="45.84116" lon="4.80179">
        <ele>550.79998779297</ele>
        <time>2016-09-09T19:41:49.000Z</time>
      </trkpt>
      <trkpt lat="45.84118" lon="4.80171">
        <ele>552</ele>
        <time>2016-09-09T19:41:54.000Z</time>
      </trkpt>
      <trkpt lat="45.8412" lon="4.80163">
        <ele>553.20001220703</ele>
        <time>2016-09-09T19:41:59.000Z</time>
      </trkpt>
      <trkpt lat="45.84127" lon="4.80153">
        <ele>555</ele>
        <time>2016-09-09T19:42:06.000Z</time>
      </trkpt>
      <trkpt lat="45.84128" lon="4.80127">
        <ele>559</ele>
        <time>2016-09-09T19:42:23.000Z</time>
      </trkpt>
      <trkpt lat="45.84128" lon="4.80125">
        <ele>559.40002441406</ele>
        <time>2016-09-09T19:42:25.000Z</time>
      </trkpt>
      <trkpt lat="45.84129" lon="4.80118">
        <ele>560.20001220703</ele>
        <time>2016-09-09T19:42:29.000Z</time>
      </trkpt>
      <trkpt lat="45.84138" lon="4.80103">
        <ele>562</ele>
        <time>2016-09-09T19:42:38.000Z</time>
      </trkpt>
      <trkpt lat="45.84142" lon="4.80091">
        <ele>563.20001220703</ele>
        <time>2016-09-09T19:42:43.000Z</time>
      </trkpt>
      <trkpt lat="45.84147" lon="4.80087">
        <ele>563.40002441406</ele>
        <time>2016-09-09T19:42:46.000Z</time>
      </trkpt>
      <trkpt lat="45.84165" lon="4.80079">
        <ele>563.59997558594</ele>
        <time>2016-09-09T19:42:56.000Z</time>
      </trkpt>
      <trkpt lat="45.84183" lon="4.80081">
        <ele>562.79998779297</ele>
        <time>2016-09-09T19:43:04.000Z</time>
      </trkpt>
      <trkpt lat="45.84202" lon="4.80075">
        <ele>563.59997558594</ele>
        <time>2016-09-09T19:43:13.000Z</time>
      </trkpt>
      <trkpt lat="45.84216" lon="4.80061">
        <ele>565.79998779297</ele>
        <time>2016-09-09T19:43:21.000Z</time>
      </trkpt>
      <trkpt lat="45.84228" lon="4.80039">
        <ele>569</ele>
        <time>2016-09-09T19:43:33.000Z</time>
      </trkpt>
      <trkpt lat="45.84229" lon="4.80035">
        <ele>569.40002441406</ele>
        <time>2016-09-09T19:43:36.000Z</time>
      </trkpt>
      <trkpt lat="45.84239" lon="4.80013">
        <ele>572.20001220703</ele>
        <time>2016-09-09T19:43:49.000Z</time>
      </trkpt>
      <trkpt lat="45.84247" lon="4.79989">
        <ele>575.20001220703</ele>
        <time>2016-09-09T19:44:02.000Z</time>
      </trkpt>
      <trkpt lat="45.8425" lon="4.79963">
        <ele>576.40002441406</ele>
        <time>2016-09-09T19:44:16.000Z</time>
      </trkpt>
      <trkpt lat="45.84251" lon="4.79936">
        <ele>579.20001220703</ele>
        <time>2016-09-09T19:44:25.000Z</time>
      </trkpt>
      <trkpt lat="45.84254" lon="4.79909">
        <ele>582.40002441406</ele>
        <time>2016-09-09T19:44:34.000Z</time>
      </trkpt>
      <trkpt lat="45.84251" lon="4.79881">
        <ele>582.79998779297</ele>
        <time>2016-09-09T19:44:44.000Z</time>
      </trkpt>
      <trkpt lat="45.84239" lon="4.79862">
        <ele>585</ele>
        <time>2016-09-09T19:44:53.000Z</time>
      </trkpt>
      <trkpt lat="45.84232" lon="4.79854">
        <ele>586.59997558594</ele>
        <time>2016-09-09T19:44:58.000Z</time>
      </trkpt>
      <trkpt lat="45.84232" lon="4.7985">
        <ele>586.59997558594</ele>
        <time>2016-09-09T19:46:16.000Z</time>
      </trkpt>
      <trkpt lat="45.84235" lon="4.79842">
        <ele>585.59997558594</ele>
        <time>2016-09-09T19:46:20.000Z</time>
      </trkpt>
      <trkpt lat="45.84232" lon="4.79817">
        <ele>585.40002441406</ele>
        <time>2016-09-09T19:46:29.000Z</time>
      </trkpt>
      <trkpt lat="45.84243" lon="4.79818">
        <ele>582.20001220703</ele>
        <time>2016-09-09T19:46:34.000Z</time>
      </trkpt>
      <trkpt lat="45.84257" lon="4.79837">
        <ele>579.20001220703</ele>
        <time>2016-09-09T19:46:40.000Z</time>
      </trkpt>
      <trkpt lat="45.84271" lon="4.79854">
        <ele>576</ele>
        <time>2016-09-09T19:46:46.000Z</time>
      </trkpt>
      <trkpt lat="45.84283" lon="4.79873">
        <ele>573.40002441406</ele>
        <time>2016-09-09T19:46:52.000Z</time>
      </trkpt>
      <trkpt lat="45.84297" lon="4.79894">
        <ele>570.59997558594</ele>
        <time>2016-09-09T19:46:58.000Z</time>
      </trkpt>
      <trkpt lat="45.84314" lon="4.79909">
        <ele>567.59997558594</ele>
        <time>2016-09-09T19:47:05.000Z</time>
      </trkpt>
      <trkpt lat="45.84329" lon="4.79925">
        <ele>565.40002441406</ele>
        <time>2016-09-09T19:47:11.000Z</time>
      </trkpt>
      <trkpt lat="45.84335" lon="4.7993">
        <ele>564.20001220703</ele>
        <time>2016-09-09T19:47:14.000Z</time>
      </trkpt>
      <trkpt lat="45.84352" lon="4.79925">
        <ele>560.20001220703</ele>
        <time>2016-09-09T19:47:23.000Z</time>
      </trkpt>
      <trkpt lat="45.84355" lon="4.79925">
        <ele>559.59997558594</ele>
        <time>2016-09-09T19:47:25.000Z</time>
      </trkpt>
      <trkpt lat="45.84367" lon="4.79938">
        <ele>557.79998779297</ele>
        <time>2016-09-09T19:47:33.000Z</time>
      </trkpt>
      <trkpt lat="45.8437" lon="4.79939">
        <ele>557.20001220703</ele>
        <time>2016-09-09T19:47:35.000Z</time>
      </trkpt>
      <trkpt lat="45.84377" lon="4.79947">
        <ele>556.20001220703</ele>
        <time>2016-09-09T19:47:40.000Z</time>
      </trkpt>
      <trkpt lat="45.84383" lon="4.79962">
        <ele>556</ele>
        <time>2016-09-09T19:47:48.000Z</time>
      </trkpt>
      <trkpt lat="45.84387" lon="4.79975">
        <ele>556.20001220703</ele>
        <time>2016-09-09T19:47:53.000Z</time>
      </trkpt>
      <trkpt lat="45.84393" lon="4.79984">
        <ele>555</ele>
        <time>2016-09-09T19:47:57.000Z</time>
      </trkpt>
      <trkpt lat="45.84406" lon="4.80004">
        <ele>552.40002441406</ele>
        <time>2016-09-09T19:48:05.000Z</time>
      </trkpt>
      <trkpt lat="45.8441" lon="4.80031">
        <ele>553.40002441406</ele>
        <time>2016-09-09T19:48:14.000Z</time>
      </trkpt>
      <trkpt lat="45.84424" lon="4.80049">
        <ele>551.79998779297</ele>
        <time>2016-09-09T19:48:21.000Z</time>
      </trkpt>
      <trkpt lat="45.84438" lon="4.8007">
        <ele>551.20001220703</ele>
        <time>2016-09-09T19:48:28.000Z</time>
      </trkpt>
      <trkpt lat="45.84449" lon="4.80083">
        <ele>550.59997558594</ele>
        <time>2016-09-09T19:48:32.000Z</time>
      </trkpt>
      <trkpt lat="45.8446" lon="4.80101">
        <ele>550.59997558594</ele>
        <time>2016-09-09T19:48:38.000Z</time>
      </trkpt>
      <trkpt lat="45.84473" lon="4.80094">
        <ele>544.79998779297</ele>
        <time>2016-09-09T19:48:43.000Z</time>
      </trkpt>
      <trkpt lat="45.84485" lon="4.80074">
        <ele>537</ele>
        <time>2016-09-09T19:48:54.000Z</time>
      </trkpt>
      <trkpt lat="45.84481" lon="4.80055">
        <ele>534.20001220703</ele>
        <time>2016-09-09T19:49:04.000Z</time>
      </trkpt>
      <trkpt lat="45.84474" lon="4.80029">
        <ele>530.40002441406</ele>
        <time>2016-09-09T19:49:18.000Z</time>
      </trkpt>
      <trkpt lat="45.84473" lon="4.80022">
        <ele>529.20001220703</ele>
        <time>2016-09-09T19:49:22.000Z</time>
      </trkpt>
      <trkpt lat="45.84466" lon="4.80006">
        <ele>529</ele>
        <time>2016-09-09T19:49:33.000Z</time>
      </trkpt>
      <trkpt lat="45.84465" lon="4.79999">
        <ele>528.20001220703</ele>
        <time>2016-09-09T19:49:37.000Z</time>
      </trkpt>
      <trkpt lat="45.84463" lon="4.79997">
        <ele>528.40002441406</ele>
        <time>2016-09-09T19:49:38.000Z</time>
      </trkpt>
      <trkpt lat="45.8446" lon="4.79992">
        <ele>529</ele>
        <time>2016-09-09T19:49:41.000Z</time>
      </trkpt>
      <trkpt lat="45.8446" lon="4.79977">
        <ele>525.40002441406</ele>
        <time>2016-09-09T19:49:47.000Z</time>
      </trkpt>
      <trkpt lat="45.84461" lon="4.79974">
        <ele>524.20001220703</ele>
        <time>2016-09-09T19:49:49.000Z</time>
      </trkpt>
      <trkpt lat="45.84467" lon="4.79953">
        <ele>517</ele>
        <time>2016-09-09T19:49:59.000Z</time>
      </trkpt>
      <trkpt lat="45.84464" lon="4.79944">
        <ele>517.20001220703</ele>
        <time>2016-09-09T19:50:04.000Z</time>
      </trkpt>
      <trkpt lat="45.84463" lon="4.79943">
        <ele>517.40002441406</ele>
        <time>2016-09-09T19:50:06.000Z</time>
      </trkpt>
      <trkpt lat="45.84447" lon="4.79946">
        <ele>525.59997558594</ele>
        <time>2016-09-09T19:50:31.000Z</time>
      </trkpt>
      <trkpt lat="45.84432" lon="4.79932">
        <ele>530</ele>
        <time>2016-09-09T19:50:45.000Z</time>
      </trkpt>
      <trkpt lat="45.84431" lon="4.79931">
        <ele>530.20001220703</ele>
        <time>2016-09-09T19:50:46.000Z</time>
      </trkpt>
      <trkpt lat="45.84415" lon="4.79916">
        <ele>534.79998779297</ele>
        <time>2016-09-09T19:51:03.000Z</time>
      </trkpt>
      <trkpt lat="45.844" lon="4.799">
        <ele>538.79998779297</ele>
        <time>2016-09-09T19:51:23.000Z</time>
      </trkpt>
      <trkpt lat="45.84393" lon="4.79891">
        <ele>540.79998779297</ele>
        <time>2016-09-09T19:51:34.000Z</time>
      </trkpt>
      <trkpt lat="45.84382" lon="4.7987">
        <ele>541</ele>
        <time>2016-09-09T19:51:45.000Z</time>
      </trkpt>
      <trkpt lat="45.84379" lon="4.79865">
        <ele>541.40002441406</ele>
        <time>2016-09-09T19:51:47.000Z</time>
      </trkpt>
      <trkpt lat="45.84366" lon="4.79844">
        <ele>542</ele>
        <time>2016-09-09T19:52:00.000Z</time>
      </trkpt>
      <trkpt lat="45.84366" lon="4.79844">
        <ele>542.20001220703</ele>
        <time>2016-09-09T19:52:01.000Z</time>
      </trkpt>
      <trkpt lat="45.84352" lon="4.79828">
        <ele>543.79998779297</ele>
        <time>2016-09-09T19:52:15.000Z</time>
      </trkpt>
      <trkpt lat="45.84338" lon="4.79812">
        <ele>545.79998779297</ele>
        <time>2016-09-09T19:52:30.000Z</time>
      </trkpt>
      <trkpt lat="45.84336" lon="4.79808">
        <ele>546</ele>
        <time>2016-09-09T19:52:34.000Z</time>
      </trkpt>
      <trkpt lat="45.84324" lon="4.79787">
        <ele>546.59997558594</ele>
        <time>2016-09-09T19:52:50.000Z</time>
      </trkpt>
      <trkpt lat="45.84311" lon="4.79767">
        <ele>547.20001220703</ele>
        <time>2016-09-09T19:53:02.000Z</time>
      </trkpt>
      <trkpt lat="45.84303" lon="4.79756">
        <ele>548.40002441406</ele>
        <time>2016-09-09T19:53:11.000Z</time>
      </trkpt>
      <trkpt lat="45.84292" lon="4.79734">
        <ele>549</ele>
        <time>2016-09-09T19:53:24.000Z</time>
      </trkpt>
      <trkpt lat="45.84292" lon="4.79732">
        <ele>548.59997558594</ele>
        <time>2016-09-09T19:53:25.000Z</time>
      </trkpt>
      <trkpt lat="45.84282" lon="4.7971">
        <ele>549.20001220703</ele>
        <time>2016-09-09T19:53:37.000Z</time>
      </trkpt>
      <trkpt lat="45.84281" lon="4.797">
        <ele>547.59997558594</ele>
        <time>2016-09-09T19:53:41.000Z</time>
      </trkpt>
      <trkpt lat="45.84283" lon="4.79673">
        <ele>543.40002441406</ele>
        <time>2016-09-09T19:53:51.000Z</time>
      </trkpt>
      <trkpt lat="45.84283" lon="4.7967">
        <ele>543.20001220703</ele>
        <time>2016-09-09T19:53:52.000Z</time>
      </trkpt>
      <trkpt lat="45.84274" lon="4.79647">
        <ele>544.40002441406</ele>
        <time>2016-09-09T19:53:58.000Z</time>
      </trkpt>
      <trkpt lat="45.84278" lon="4.79626">
        <ele>541.59997558594</ele>
        <time>2016-09-09T19:54:06.000Z</time>
      </trkpt>
      <trkpt lat="45.84284" lon="4.79608">
        <ele>536.59997558594</ele>
        <time>2016-09-09T19:54:13.000Z</time>
      </trkpt>
      <trkpt lat="45.84284" lon="4.79579">
        <ele>534.59997558594</ele>
        <time>2016-09-09T19:54:20.000Z</time>
      </trkpt>
      <trkpt lat="45.84283" lon="4.79553">
        <ele>534.20001220703</ele>
        <time>2016-09-09T19:54:27.000Z</time>
      </trkpt>
      <trkpt lat="45.84275" lon="4.79529">
        <ele>533.59997558594</ele>
        <time>2016-09-09T19:54:35.000Z</time>
      </trkpt>
      <trkpt lat="45.84283" lon="4.79502">
        <ele>529.59997558594</ele>
        <time>2016-09-09T19:54:42.000Z</time>
      </trkpt>
      <trkpt lat="45.84292" lon="4.79479">
        <ele>528.40002441406</ele>
        <time>2016-09-09T19:54:48.000Z</time>
      </trkpt>
      <trkpt lat="45.843" lon="4.79453">
        <ele>527.20001220703</ele>
        <time>2016-09-09T19:54:55.000Z</time>
      </trkpt>
      <trkpt lat="45.84308" lon="4.79428">
        <ele>525.40002441406</ele>
        <time>2016-09-09T19:55:02.000Z</time>
      </trkpt>
      <trkpt lat="45.84316" lon="4.79403">
        <ele>523.20001220703</ele>
        <time>2016-09-09T19:55:09.000Z</time>
      </trkpt>
      <trkpt lat="45.84325" lon="4.7938">
        <ele>521.79998779297</ele>
        <time>2016-09-09T19:55:16.000Z</time>
      </trkpt>
      <trkpt lat="45.84327" lon="4.79374">
        <ele>522</ele>
        <time>2016-09-09T19:55:18.000Z</time>
      </trkpt>
      <trkpt lat="45.84326" lon="4.79364">
        <ele>522.40002441406</ele>
        <time>2016-09-09T19:55:21.000Z</time>
      </trkpt>
      <trkpt lat="45.8431" lon="4.79348">
        <ele>523.79998779297</ele>
        <time>2016-09-09T19:55:30.000Z</time>
      </trkpt>
      <trkpt lat="45.84294" lon="4.79335">
        <ele>525</ele>
        <time>2016-09-09T19:55:36.000Z</time>
      </trkpt>
      <trkpt lat="45.84274" lon="4.79333">
        <ele>525.59997558594</ele>
        <time>2016-09-09T19:55:42.000Z</time>
      </trkpt>
      <trkpt lat="45.84253" lon="4.79338">
        <ele>526.40002441406</ele>
        <time>2016-09-09T19:55:48.000Z</time>
      </trkpt>
      <trkpt lat="45.84239" lon="4.79333">
        <ele>527.20001220703</ele>
        <time>2016-09-09T19:55:52.000Z</time>
      </trkpt>
      <trkpt lat="45.84236" lon="4.79308">
        <ele>527.79998779297</ele>
        <time>2016-09-09T19:55:58.000Z</time>
      </trkpt>
      <trkpt lat="45.84243" lon="4.79282">
        <ele>528.79998779297</ele>
        <time>2016-09-09T19:56:05.000Z</time>
      </trkpt>
      <trkpt lat="45.84241" lon="4.79261">
        <ele>530.20001220703</ele>
        <time>2016-09-09T19:56:11.000Z</time>
      </trkpt>
      <trkpt lat="45.8423" lon="4.79239">
        <ele>531.79998779297</ele>
        <time>2016-09-09T19:56:18.000Z</time>
      </trkpt>
      <trkpt lat="45.84216" lon="4.79218">
        <ele>532.79998779297</ele>
        <time>2016-09-09T19:56:25.000Z</time>
      </trkpt>
      <trkpt lat="45.84201" lon="4.79199">
        <ele>533.59997558594</ele>
        <time>2016-09-09T19:56:33.000Z</time>
      </trkpt>
      <trkpt lat="45.84187" lon="4.79183">
        <ele>535.20001220703</ele>
        <time>2016-09-09T19:56:40.000Z</time>
      </trkpt>
      <trkpt lat="45.84172" lon="4.79167">
        <ele>536.59997558594</ele>
        <time>2016-09-09T19:56:47.000Z</time>
      </trkpt>
      <trkpt lat="45.84156" lon="4.7915">
        <ele>538</ele>
        <time>2016-09-09T19:56:55.000Z</time>
      </trkpt>
      <trkpt lat="45.84142" lon="4.79133">
        <ele>539.59997558594</ele>
        <time>2016-09-09T19:57:02.000Z</time>
      </trkpt>
      <trkpt lat="45.84127" lon="4.79113">
        <ele>541.59997558594</ele>
        <time>2016-09-09T19:57:10.000Z</time>
      </trkpt>
      <trkpt lat="45.84114" lon="4.79095">
        <ele>543.20001220703</ele>
        <time>2016-09-09T19:57:17.000Z</time>
      </trkpt>
      <trkpt lat="45.84101" lon="4.79076">
        <ele>545</ele>
        <time>2016-09-09T19:57:24.000Z</time>
      </trkpt>
      <trkpt lat="45.84088" lon="4.79057">
        <ele>547</ele>
        <time>2016-09-09T19:57:31.000Z</time>
      </trkpt>
      <trkpt lat="45.84069" lon="4.79049">
        <ele>547.20001220703</ele>
        <time>2016-09-09T19:57:38.000Z</time>
      </trkpt>
      <trkpt lat="45.8405" lon="4.79041">
        <ele>547.40002441406</ele>
        <time>2016-09-09T19:57:45.000Z</time>
      </trkpt>
      <trkpt lat="45.84032" lon="4.79035">
        <ele>547.40002441406</ele>
        <time>2016-09-09T19:57:52.000Z</time>
      </trkpt>
      <trkpt lat="45.84012" lon="4.79031">
        <ele>547</ele>
        <time>2016-09-09T19:58:00.000Z</time>
      </trkpt>
      <trkpt lat="45.83994" lon="4.79026">
        <ele>546.79998779297</ele>
        <time>2016-09-09T19:58:07.000Z</time>
      </trkpt>
      <trkpt lat="45.83975" lon="4.7902">
        <ele>546.79998779297</ele>
        <time>2016-09-09T19:58:14.000Z</time>
      </trkpt>
      <trkpt lat="45.83956" lon="4.79016">
        <ele>546.40002441406</ele>
        <time>2016-09-09T19:58:21.000Z</time>
      </trkpt>
      <trkpt lat="45.83938" lon="4.79019">
        <ele>545</ele>
        <time>2016-09-09T19:58:28.000Z</time>
      </trkpt>
      <trkpt lat="45.83918" lon="4.79026">
        <ele>543.20001220703</ele>
        <time>2016-09-09T19:58:34.000Z</time>
      </trkpt>
      <trkpt lat="45.83897" lon="4.7903">
        <ele>541.59997558594</ele>
        <time>2016-09-09T19:58:41.000Z</time>
      </trkpt>
      <trkpt lat="45.83878" lon="4.79034">
        <ele>540.20001220703</ele>
        <time>2016-09-09T19:58:47.000Z</time>
      </trkpt>
      <trkpt lat="45.83858" lon="4.79037">
        <ele>539.40002441406</ele>
        <time>2016-09-09T19:58:54.000Z</time>
      </trkpt>
      <trkpt lat="45.83848" lon="4.79037">
        <ele>539.20001220703</ele>
        <time>2016-09-09T19:58:58.000Z</time>
      </trkpt>
      <trkpt lat="45.83848" lon="4.79016">
        <ele>541.40002441406</ele>
        <time>2016-09-09T19:59:07.000Z</time>
      </trkpt>
      <trkpt lat="45.83846" lon="4.7901">
        <ele>542</ele>
        <time>2016-09-09T19:59:10.000Z</time>
      </trkpt>
      <trkpt lat="45.83834" lon="4.7901">
        <ele>541.79998779297</ele>
        <time>2016-09-09T19:59:17.000Z</time>
      </trkpt>
      <trkpt lat="45.83818" lon="4.79023">
        <ele>540</ele>
        <time>2016-09-09T19:59:23.000Z</time>
      </trkpt>
      <trkpt lat="45.83798" lon="4.79025">
        <ele>539.20001220703</ele>
        <time>2016-09-09T19:59:30.000Z</time>
      </trkpt>
      <trkpt lat="45.83794" lon="4.79026">
        <ele>539</ele>
        <time>2016-09-09T19:59:32.000Z</time>
      </trkpt>
      <trkpt lat="45.83784" lon="4.79048">
        <ele>535.59997558594</ele>
        <time>2016-09-09T19:59:40.000Z</time>
      </trkpt>
      <trkpt lat="45.83781" lon="4.7905">
        <ele>535</ele>
        <time>2016-09-09T19:59:41.000Z</time>
      </trkpt>
      <trkpt lat="45.83762" lon="4.79063">
        <ele>532.40002441406</ele>
        <time>2016-09-09T19:59:47.000Z</time>
      </trkpt>
      <trkpt lat="45.83744" lon="4.79078">
        <ele>529.59997558594</ele>
        <time>2016-09-09T19:59:53.000Z</time>
      </trkpt>
      <trkpt lat="45.83725" lon="4.79087">
        <ele>527.59997558594</ele>
        <time>2016-09-09T19:59:59.000Z</time>
      </trkpt>
      <trkpt lat="45.83707" lon="4.79089">
        <ele>526.59997558594</ele>
        <time>2016-09-09T20:00:05.000Z</time>
      </trkpt>
      <trkpt lat="45.83689" lon="4.79085">
        <ele>526.20001220703</ele>
        <time>2016-09-09T20:00:11.000Z</time>
      </trkpt>
      <trkpt lat="45.83669" lon="4.79082">
        <ele>525.79998779297</ele>
        <time>2016-09-09T20:00:18.000Z</time>
      </trkpt>
      <trkpt lat="45.83652" lon="4.79091">
        <ele>524.20001220703</ele>
        <time>2016-09-09T20:00:24.000Z</time>
      </trkpt>
      <trkpt lat="45.83635" lon="4.79103">
        <ele>522</ele>
        <time>2016-09-09T20:00:30.000Z</time>
      </trkpt>
      <trkpt lat="45.83616" lon="4.79109">
        <ele>520.79998779297</ele>
        <time>2016-09-09T20:00:36.000Z</time>
      </trkpt>
      <trkpt lat="45.83606" lon="4.79106">
        <ele>520.59997558594</ele>
        <time>2016-09-09T20:00:39.000Z</time>
      </trkpt>
      <trkpt lat="45.83587" lon="4.79102">
        <ele>520.40002441406</ele>
        <time>2016-09-09T20:00:45.000Z</time>
      </trkpt>
      <trkpt lat="45.83567" lon="4.79108">
        <ele>519</ele>
        <time>2016-09-09T20:00:52.000Z</time>
      </trkpt>
      <trkpt lat="45.83547" lon="4.79112">
        <ele>518.40002441406</ele>
        <time>2016-09-09T20:00:59.000Z</time>
      </trkpt>
      <trkpt lat="45.83527" lon="4.79113">
        <ele>518.79998779297</ele>
        <time>2016-09-09T20:01:05.000Z</time>
      </trkpt>
      <trkpt lat="45.83508" lon="4.79114">
        <ele>519</ele>
        <time>2016-09-09T20:01:11.000Z</time>
      </trkpt>
      <trkpt lat="45.83489" lon="4.79116">
        <ele>519.20001220703</ele>
        <time>2016-09-09T20:01:18.000Z</time>
      </trkpt>
      <trkpt lat="45.83469" lon="4.79125">
        <ele>518.40002441406</ele>
        <time>2016-09-09T20:01:25.000Z</time>
      </trkpt>
      <trkpt lat="45.83451" lon="4.79131">
        <ele>517</ele>
        <time>2016-09-09T20:01:31.000Z</time>
      </trkpt>
      <trkpt lat="45.8343" lon="4.7914">
        <ele>515</ele>
        <time>2016-09-09T20:01:37.000Z</time>
      </trkpt>
      <trkpt lat="45.83411" lon="4.79148">
        <ele>513.20001220703</ele>
        <time>2016-09-09T20:01:43.000Z</time>
      </trkpt>
      <trkpt lat="45.83392" lon="4.7916">
        <ele>511</ele>
        <time>2016-09-09T20:01:49.000Z</time>
      </trkpt>
      <trkpt lat="45.83372" lon="4.79172">
        <ele>509</ele>
        <time>2016-09-09T20:01:55.000Z</time>
      </trkpt>
      <trkpt lat="45.83355" lon="4.79187">
        <ele>506.79998779297</ele>
        <time>2016-09-09T20:02:02.000Z</time>
      </trkpt>
      <trkpt lat="45.83342" lon="4.7921">
        <ele>503.79998779297</ele>
        <time>2016-09-09T20:02:08.000Z</time>
      </trkpt>
      <trkpt lat="45.83324" lon="4.7922">
        <ele>502.60000610352</ele>
        <time>2016-09-09T20:02:14.000Z</time>
      </trkpt>
      <trkpt lat="45.83304" lon="4.79224">
        <ele>501.39999389648</ele>
        <time>2016-09-09T20:02:20.000Z</time>
      </trkpt>
      <trkpt lat="45.83285" lon="4.7923">
        <ele>501</ele>
        <time>2016-09-09T20:02:26.000Z</time>
      </trkpt>
      <trkpt lat="45.83265" lon="4.79236">
        <ele>500.39999389648</ele>
        <time>2016-09-09T20:02:32.000Z</time>
      </trkpt>
      <trkpt lat="45.83247" lon="4.7924">
        <ele>499.79998779297</ele>
        <time>2016-09-09T20:02:38.000Z</time>
      </trkpt>
      <trkpt lat="45.8323" lon="4.79254">
        <ele>497.39999389648</ele>
        <time>2016-09-09T20:02:44.000Z</time>
      </trkpt>
      <trkpt lat="45.8321" lon="4.79264">
        <ele>494.60000610352</ele>
        <time>2016-09-09T20:02:51.000Z</time>
      </trkpt>
      <trkpt lat="45.83197" lon="4.79269">
        <ele>493</ele>
        <time>2016-09-09T20:02:55.000Z</time>
      </trkpt>
      <trkpt lat="45.83193" lon="4.79255">
        <ele>494.39999389648</ele>
        <time>2016-09-09T20:03:03.000Z</time>
      </trkpt>
      <trkpt lat="45.83198" lon="4.79241">
        <ele>497</ele>
        <time>2016-09-09T20:03:12.000Z</time>
      </trkpt>
      <trkpt lat="45.83207" lon="4.79217">
        <ele>501.79998779297</ele>
        <time>2016-09-09T20:03:25.000Z</time>
      </trkpt>
      <trkpt lat="45.83214" lon="4.79202">
        <ele>504.39999389648</ele>
        <time>2016-09-09T20:03:34.000Z</time>
      </trkpt>
      <trkpt lat="45.83218" lon="4.79189">
        <ele>506</ele>
        <time>2016-09-09T20:03:41.000Z</time>
      </trkpt>
      <trkpt lat="45.83226" lon="4.79165">
        <ele>508.79998779297</ele>
        <time>2016-09-09T20:03:53.000Z</time>
      </trkpt>
      <trkpt lat="45.83235" lon="4.79142">
        <ele>511</ele>
        <time>2016-09-09T20:04:05.000Z</time>
      </trkpt>
      <trkpt lat="45.83241" lon="4.79115">
        <ele>513.79998779297</ele>
        <time>2016-09-09T20:04:17.000Z</time>
      </trkpt>
      <trkpt lat="45.83249" lon="4.79091">
        <ele>516</ele>
        <time>2016-09-09T20:04:28.000Z</time>
      </trkpt>
      <trkpt lat="45.83259" lon="4.79068">
        <ele>518.20001220703</ele>
        <time>2016-09-09T20:04:40.000Z</time>
      </trkpt>
      <trkpt lat="45.83263" lon="4.79063">
        <ele>518.79998779297</ele>
        <time>2016-09-09T20:04:44.000Z</time>
      </trkpt>
      <trkpt lat="45.83282" lon="4.79069">
        <ele>518.79998779297</ele>
        <time>2016-09-09T20:04:53.000Z</time>
      </trkpt>
      <trkpt lat="45.833" lon="4.79073">
        <ele>519</ele>
        <time>2016-09-09T20:05:02.000Z</time>
      </trkpt>
      <trkpt lat="45.83318" lon="4.79068">
        <ele>520.20001220703</ele>
        <time>2016-09-09T20:05:10.000Z</time>
      </trkpt>
      <trkpt lat="45.8332" lon="4.79066">
        <ele>520.40002441406</ele>
        <time>2016-09-09T20:05:11.000Z</time>
      </trkpt>
      <trkpt lat="45.83324" lon="4.79043">
        <ele>523</ele>
        <time>2016-09-09T20:05:20.000Z</time>
      </trkpt>
      <trkpt lat="45.83337" lon="4.79033">
        <ele>524.59997558594</ele>
        <time>2016-09-09T20:05:28.000Z</time>
      </trkpt>
      <trkpt lat="45.83341" lon="4.79009">
        <ele>527.40002441406</ele>
        <time>2016-09-09T20:05:37.000Z</time>
      </trkpt>
      <trkpt lat="45.83339" lon="4.78983">
        <ele>530.20001220703</ele>
        <time>2016-09-09T20:05:48.000Z</time>
      </trkpt>
      <trkpt lat="45.8334" lon="4.78974">
        <ele>531.20001220703</ele>
        <time>2016-09-09T20:05:53.000Z</time>
      </trkpt>
      <trkpt lat="45.83339" lon="4.78954">
        <ele>533.20001220703</ele>
        <time>2016-09-09T20:06:02.000Z</time>
      </trkpt>
      <trkpt lat="45.83338" lon="4.78932">
        <ele>535.59997558594</ele>
        <time>2016-09-09T20:06:13.000Z</time>
      </trkpt>
      <trkpt lat="45.83339" lon="4.78921">
        <ele>536.79998779297</ele>
        <time>2016-09-09T20:06:18.000Z</time>
      </trkpt>
      <trkpt lat="45.83338" lon="4.78916">
        <ele>537.40002441406</ele>
        <time>2016-09-09T20:06:22.000Z</time>
      </trkpt>
      <trkpt lat="45.83338" lon="4.7891">
        <ele>538</ele>
        <time>2016-09-09T20:06:25.000Z</time>
      </trkpt>
      <trkpt lat="45.83339" lon="4.78904">
        <ele>538.59997558594</ele>
        <time>2016-09-09T20:06:29.000Z</time>
      </trkpt>
      <trkpt lat="45.8334" lon="4.78901">
        <ele>539.20001220703</ele>
        <time>2016-09-09T20:06:32.000Z</time>
      </trkpt>
      <trkpt lat="45.83338" lon="4.78874">
        <ele>542.59997558594</ele>
        <time>2016-09-09T20:06:47.000Z</time>
      </trkpt>
      <trkpt lat="45.83338" lon="4.78847">
        <ele>542</ele>
        <time>2016-09-09T20:07:00.000Z</time>
      </trkpt>
      <trkpt lat="45.83338" lon="4.78827">
        <ele>541.40002441406</ele>
        <time>2016-09-09T20:07:10.000Z</time>
      </trkpt>
      <trkpt lat="45.83338" lon="4.78815">
        <ele>541.40002441406</ele>
        <time>2016-09-09T20:07:17.000Z</time>
      </trkpt>
      <trkpt lat="45.83336" lon="4.7881">
        <ele>541.40002441406</ele>
        <time>2016-09-09T20:07:20.000Z</time>
      </trkpt>
      <trkpt lat="45.83324" lon="4.78812">
        <ele>540</ele>
        <time>2016-09-09T20:07:26.000Z</time>
      </trkpt>
      <trkpt lat="45.83306" lon="4.78824">
        <ele>539.40002441406</ele>
        <time>2016-09-09T20:07:34.000Z</time>
      </trkpt>
      <trkpt lat="45.83293" lon="4.78831">
        <ele>537.20001220703</ele>
        <time>2016-09-09T20:07:39.000Z</time>
      </trkpt>
      <trkpt lat="45.83274" lon="4.78837">
        <ele>533.59997558594</ele>
        <time>2016-09-09T20:07:47.000Z</time>
      </trkpt>
      <trkpt lat="45.83255" lon="4.78844">
        <ele>531.20001220703</ele>
        <time>2016-09-09T20:07:54.000Z</time>
      </trkpt>
      <trkpt lat="45.83238" lon="4.78854">
        <ele>529.20001220703</ele>
        <time>2016-09-09T20:08:01.000Z</time>
      </trkpt>
      <trkpt lat="45.83221" lon="4.78865">
        <ele>527.20001220703</ele>
        <time>2016-09-09T20:08:07.000Z</time>
      </trkpt>
      <trkpt lat="45.83203" lon="4.78873">
        <ele>524.59997558594</ele>
        <time>2016-09-09T20:08:13.000Z</time>
      </trkpt>
      <trkpt lat="45.83187" lon="4.7888">
        <ele>521.40002441406</ele>
        <time>2016-09-09T20:08:19.000Z</time>
      </trkpt>
      <trkpt lat="45.83192" lon="4.78862">
        <ele>521.59997558594</ele>
        <time>2016-09-09T20:08:26.000Z</time>
      </trkpt>
      <trkpt lat="45.83205" lon="4.78844">
        <ele>522.40002441406</ele>
        <time>2016-09-09T20:08:33.000Z</time>
      </trkpt>
      <trkpt lat="45.83218" lon="4.78823">
        <ele>523.79998779297</ele>
        <time>2016-09-09T20:08:41.000Z</time>
      </trkpt>
      <trkpt lat="45.83232" lon="4.78806">
        <ele>524.79998779297</ele>
        <time>2016-09-09T20:08:50.000Z</time>
      </trkpt>
      <trkpt lat="45.83249" lon="4.7879">
        <ele>527.20001220703</ele>
        <time>2016-09-09T20:08:58.000Z</time>
      </trkpt>
      <trkpt lat="45.83266" lon="4.78775">
        <ele>529</ele>
        <time>2016-09-09T20:09:07.000Z</time>
      </trkpt>
      <trkpt lat="45.83283" lon="4.78762">
        <ele>531</ele>
        <time>2016-09-09T20:09:17.000Z</time>
      </trkpt>
      <trkpt lat="45.83299" lon="4.78749">
        <ele>532.20001220703</ele>
        <time>2016-09-09T20:09:27.000Z</time>
      </trkpt>
      <trkpt lat="45.83315" lon="4.78736">
        <ele>533.20001220703</ele>
        <time>2016-09-09T20:09:37.000Z</time>
      </trkpt>
      <trkpt lat="45.83318" lon="4.78734">
        <ele>533.20001220703</ele>
        <time>2016-09-09T20:09:40.000Z</time>
      </trkpt>
      <trkpt lat="45.83325" lon="4.78732">
        <ele>534.20001220703</ele>
        <time>2016-09-09T20:09:46.000Z</time>
      </trkpt>
      <trkpt lat="45.83342" lon="4.78724">
        <ele>536.40002441406</ele>
        <time>2016-09-09T20:10:00.000Z</time>
      </trkpt>
      <trkpt lat="45.83356" lon="4.78715">
        <ele>538.40002441406</ele>
        <time>2016-09-09T20:10:10.000Z</time>
      </trkpt>
      <trkpt lat="45.83374" lon="4.78711">
        <ele>541.59997558594</ele>
        <time>2016-09-09T20:10:21.000Z</time>
      </trkpt>
      <trkpt lat="45.83377" lon="4.78711">
        <ele>542.20001220703</ele>
        <time>2016-09-09T20:10:24.000Z</time>
      </trkpt>
      <trkpt lat="45.83378" lon="4.7871">
        <ele>542.20001220703</ele>
        <time>2016-09-09T20:10:25.000Z</time>
      </trkpt>
      <trkpt lat="45.83383" lon="4.78708">
        <ele>543</ele>
        <time>2016-09-09T20:10:31.000Z</time>
      </trkpt>
      <trkpt lat="45.83386" lon="4.78712">
        <ele>544</ele>
        <time>2016-09-09T20:10:35.000Z</time>
      </trkpt>
      <trkpt lat="45.834" lon="4.78723">
        <ele>546.59997558594</ele>
        <time>2016-09-09T20:10:49.000Z</time>
      </trkpt>
      <trkpt lat="45.83405" lon="4.78731">
        <ele>547.59997558594</ele>
        <time>2016-09-09T20:10:58.000Z</time>
      </trkpt>
      <trkpt lat="45.83413" lon="4.78749">
        <ele>549.79998779297</ele>
        <time>2016-09-09T20:11:22.000Z</time>
      </trkpt>
      <trkpt lat="45.83431" lon="4.78743">
        <ele>551.59997558594</ele>
        <time>2016-09-09T20:11:33.000Z</time>
      </trkpt>
      <trkpt lat="45.8345" lon="4.78737">
        <ele>555</ele>
        <time>2016-09-09T20:11:42.000Z</time>
      </trkpt>
      <trkpt lat="45.83452" lon="4.78735">
        <ele>555.40002441406</ele>
        <time>2016-09-09T20:11:44.000Z</time>
      </trkpt>
      <trkpt lat="45.83467" lon="4.78731">
        <ele>558</ele>
        <time>2016-09-09T20:11:53.000Z</time>
      </trkpt>
      <trkpt lat="45.83469" lon="4.78731">
        <ele>558.40002441406</ele>
        <time>2016-09-09T20:11:54.000Z</time>
      </trkpt>
      <trkpt lat="45.83487" lon="4.78726">
        <ele>559.79998779297</ele>
        <time>2016-09-09T20:12:06.000Z</time>
      </trkpt>
      <trkpt lat="45.83506" lon="4.7872">
        <ele>562.59997558594</ele>
        <time>2016-09-09T20:12:16.000Z</time>
      </trkpt>
      <trkpt lat="45.83524" lon="4.78712">
        <ele>565.79998779297</ele>
        <time>2016-09-09T20:12:24.000Z</time>
      </trkpt>
      <trkpt lat="45.83543" lon="4.78705">
        <ele>569.20001220703</ele>
        <time>2016-09-09T20:12:32.000Z</time>
      </trkpt>
      <trkpt lat="45.83558" lon="4.78691">
        <ele>570.79998779297</ele>
        <time>2016-09-09T20:12:42.000Z</time>
      </trkpt>
      <trkpt lat="45.8356" lon="4.78684">
        <ele>570.79998779297</ele>
        <time>2016-09-09T20:12:45.000Z</time>
      </trkpt>
      <trkpt lat="45.83568" lon="4.78678">
        <ele>571.20001220703</ele>
        <time>2016-09-09T20:12:49.000Z</time>
      </trkpt>
      <trkpt lat="45.83585" lon="4.78667">
        <ele>572.20001220703</ele>
        <time>2016-09-09T20:12:58.000Z</time>
      </trkpt>
      <trkpt lat="45.83596" lon="4.78664">
        <ele>573</ele>
        <time>2016-09-09T20:13:07.000Z</time>
      </trkpt>
      <trkpt lat="45.83604" lon="4.78654">
        <ele>573.40002441406</ele>
        <time>2016-09-09T20:14:13.000Z</time>
      </trkpt>
      <trkpt lat="45.83617" lon="4.78665">
        <ele>574.59997558594</ele>
        <time>2016-09-09T20:15:01.000Z</time>
      </trkpt>
      <trkpt lat="45.83637" lon="4.78658">
        <ele>576.20001220703</ele>
        <time>2016-09-09T20:15:10.000Z</time>
      </trkpt>
      <trkpt lat="45.83655" lon="4.78648">
        <ele>576.79998779297</ele>
        <time>2016-09-09T20:15:17.000Z</time>
      </trkpt>
      <trkpt lat="45.83674" lon="4.7864">
        <ele>577.79998779297</ele>
        <time>2016-09-09T20:15:24.000Z</time>
      </trkpt>
      <trkpt lat="45.83682" lon="4.78632">
        <ele>578.79998779297</ele>
        <time>2016-09-09T20:15:28.000Z</time>
      </trkpt>
      <trkpt lat="45.83679" lon="4.78617">
        <ele>578.59997558594</ele>
        <time>2016-09-09T20:15:33.000Z</time>
      </trkpt>
      <trkpt lat="45.83671" lon="4.78591">
        <ele>575.79998779297</ele>
        <time>2016-09-09T20:15:41.000Z</time>
      </trkpt>
      <trkpt lat="45.83672" lon="4.78586">
        <ele>575.40002441406</ele>
        <time>2016-09-09T20:15:42.000Z</time>
      </trkpt>
      <trkpt lat="45.83679" lon="4.78562">
        <ele>574.20001220703</ele>
        <time>2016-09-09T20:15:49.000Z</time>
      </trkpt>
      <trkpt lat="45.83692" lon="4.78543">
        <ele>574.40002441406</ele>
        <time>2016-09-09T20:15:58.000Z</time>
      </trkpt>
      <trkpt lat="45.83696" lon="4.78539">
        <ele>574.59997558594</ele>
        <time>2016-09-09T20:16:00.000Z</time>
      </trkpt>
      <trkpt lat="45.83714" lon="4.78531">
        <ele>575.40002441406</ele>
        <time>2016-09-09T20:16:10.000Z</time>
      </trkpt>
      <trkpt lat="45.83733" lon="4.78533">
        <ele>576.40002441406</ele>
        <time>2016-09-09T20:16:19.000Z</time>
      </trkpt>
      <trkpt lat="45.83752" lon="4.78532">
        <ele>576.79998779297</ele>
        <time>2016-09-09T20:16:27.000Z</time>
      </trkpt>
      <trkpt lat="45.83772" lon="4.78529">
        <ele>576.59997558594</ele>
        <time>2016-09-09T20:16:36.000Z</time>
      </trkpt>
      <trkpt lat="45.83791" lon="4.78528">
        <ele>577</ele>
        <time>2016-09-09T20:16:46.000Z</time>
      </trkpt>
      <trkpt lat="45.8381" lon="4.78528">
        <ele>577.59997558594</ele>
        <time>2016-09-09T20:16:56.000Z</time>
      </trkpt>
      <trkpt lat="45.83831" lon="4.78528">
        <ele>577.79998779297</ele>
        <time>2016-09-09T20:17:04.000Z</time>
      </trkpt>
      <trkpt lat="45.83851" lon="4.78527">
        <ele>578</ele>
        <time>2016-09-09T20:17:11.000Z</time>
      </trkpt>
      <trkpt lat="45.8387" lon="4.78524">
        <ele>577.79998779297</ele>
        <time>2016-09-09T20:17:17.000Z</time>
      </trkpt>
      <trkpt lat="45.83887" lon="4.78516">
        <ele>577</ele>
        <time>2016-09-09T20:17:23.000Z</time>
      </trkpt>
      <trkpt lat="45.83902" lon="4.78502">
        <ele>575.59997558594</ele>
        <time>2016-09-09T20:17:33.000Z</time>
      </trkpt>
      <trkpt lat="45.83914" lon="4.78482">
        <ele>573.20001220703</ele>
        <time>2016-09-09T20:17:42.000Z</time>
      </trkpt>
      <trkpt lat="45.83927" lon="4.78461">
        <ele>570</ele>
        <time>2016-09-09T20:17:51.000Z</time>
      </trkpt>
      <trkpt lat="45.83941" lon="4.78444">
        <ele>566.20001220703</ele>
        <time>2016-09-09T20:17:58.000Z</time>
      </trkpt>
      <trkpt lat="45.83956" lon="4.78426">
        <ele>561.79998779297</ele>
        <time>2016-09-09T20:18:05.000Z</time>
      </trkpt>
      <trkpt lat="45.83971" lon="4.78412">
        <ele>558.59997558594</ele>
        <time>2016-09-09T20:18:14.000Z</time>
      </trkpt>
      <trkpt lat="45.83991" lon="4.78411">
        <ele>557.79998779297</ele>
        <time>2016-09-09T20:18:21.000Z</time>
      </trkpt>
      <trkpt lat="45.84009" lon="4.78407">
        <ele>556.20001220703</ele>
        <time>2016-09-09T20:18:31.000Z</time>
      </trkpt>
      <trkpt lat="45.84027" lon="4.78419">
        <ele>558.59997558594</ele>
        <time>2016-09-09T20:18:42.000Z</time>
      </trkpt>
      <trkpt lat="45.84037" lon="4.78423">
        <ele>559.20001220703</ele>
        <time>2016-09-09T20:18:47.000Z</time>
      </trkpt>
      <trkpt lat="45.84047" lon="4.78424">
        <ele>559.40002441406</ele>
        <time>2016-09-09T20:18:51.000Z</time>
      </trkpt>
      <trkpt lat="45.84065" lon="4.78423">
        <ele>558.59997558594</ele>
        <time>2016-09-09T20:18:58.000Z</time>
      </trkpt>
      <trkpt lat="45.84083" lon="4.78415">
        <ele>556.59997558594</ele>
        <time>2016-09-09T20:19:06.000Z</time>
      </trkpt>
      <trkpt lat="45.84102" lon="4.78408">
        <ele>555.59997558594</ele>
        <time>2016-09-09T20:19:11.000Z</time>
      </trkpt>
      <trkpt lat="45.8412" lon="4.78398">
        <ele>555.59997558594</ele>
        <time>2016-09-09T20:19:16.000Z</time>
      </trkpt>
      <trkpt lat="45.84137" lon="4.78387">
        <ele>555.20001220703</ele>
        <time>2016-09-09T20:19:21.000Z</time>
      </trkpt>
      <trkpt lat="45.84154" lon="4.78368">
        <ele>551.59997558594</ele>
        <time>2016-09-09T20:19:26.000Z</time>
      </trkpt>
      <trkpt lat="45.84172" lon="4.78354">
        <ele>549.20001220703</ele>
        <time>2016-09-09T20:19:31.000Z</time>
      </trkpt>
      <trkpt lat="45.84187" lon="4.78334">
        <ele>547</ele>
        <time>2016-09-09T20:19:37.000Z</time>
      </trkpt>
      <trkpt lat="45.842" lon="4.7831">
        <ele>549.79998779297</ele>
        <time>2016-09-09T20:19:44.000Z</time>
      </trkpt>
      <trkpt lat="45.84216" lon="4.78292">
        <ele>552.20001220703</ele>
        <time>2016-09-09T20:19:50.000Z</time>
      </trkpt>
      <trkpt lat="45.84228" lon="4.78289">
        <ele>552.79998779297</ele>
        <time>2016-09-09T20:19:57.000Z</time>
      </trkpt>
      <trkpt lat="45.84233" lon="4.78314">
        <ele>550</ele>
        <time>2016-09-09T20:20:04.000Z</time>
      </trkpt>
      <trkpt lat="45.84247" lon="4.78335">
        <ele>547</ele>
        <time>2016-09-09T20:20:11.000Z</time>
      </trkpt>
      <trkpt lat="45.84258" lon="4.78343">
        <ele>545.40002441406</ele>
        <time>2016-09-09T20:20:16.000Z</time>
      </trkpt>
      <trkpt lat="45.84273" lon="4.78329">
        <ele>546.20001220703</ele>
        <time>2016-09-09T20:20:22.000Z</time>
      </trkpt>
      <trkpt lat="45.84292" lon="4.78324">
        <ele>547.40002441406</ele>
        <time>2016-09-09T20:20:30.000Z</time>
      </trkpt>
      <trkpt lat="45.84313" lon="4.78322">
        <ele>549</ele>
        <time>2016-09-09T20:20:36.000Z</time>
      </trkpt>
      <trkpt lat="45.84332" lon="4.78323">
        <ele>551.40002441406</ele>
        <time>2016-09-09T20:20:41.000Z</time>
      </trkpt>
      <trkpt lat="45.84351" lon="4.7833">
        <ele>552.79998779297</ele>
        <time>2016-09-09T20:20:46.000Z</time>
      </trkpt>
      <trkpt lat="45.84368" lon="4.7834">
        <ele>553.20001220703</ele>
        <time>2016-09-09T20:20:51.000Z</time>
      </trkpt>
      <trkpt lat="45.84376" lon="4.78355">
        <ele>552</ele>
        <time>2016-09-09T20:20:56.000Z</time>
      </trkpt>
      <trkpt lat="45.84365" lon="4.78379">
        <ele>546.40002441406</ele>
        <time>2016-09-09T20:21:13.000Z</time>
      </trkpt>
      <trkpt lat="45.84366" lon="4.78404">
        <ele>543</ele>
        <time>2016-09-09T20:21:21.000Z</time>
      </trkpt>
      <trkpt lat="45.84382" lon="4.7842">
        <ele>543</ele>
        <time>2016-09-09T20:21:30.000Z</time>
      </trkpt>
      <trkpt lat="45.84397" lon="4.78439">
        <ele>542.20001220703</ele>
        <time>2016-09-09T20:21:39.000Z</time>
      </trkpt>
      <trkpt lat="45.84402" lon="4.78446">
        <ele>541.59997558594</ele>
        <time>2016-09-09T20:21:42.000Z</time>
      </trkpt>
      <trkpt lat="45.84411" lon="4.78452">
        <ele>541.79998779297</ele>
        <time>2016-09-09T20:21:46.000Z</time>
      </trkpt>
      <trkpt lat="45.8443" lon="4.78464">
        <ele>541.20001220703</ele>
        <time>2016-09-09T20:21:53.000Z</time>
      </trkpt>
      <trkpt lat="45.8444" lon="4.78488">
        <ele>537</ele>
        <time>2016-09-09T20:22:00.000Z</time>
      </trkpt>
      <trkpt lat="45.84451" lon="4.78514">
        <ele>532.20001220703</ele>
        <time>2016-09-09T20:22:07.000Z</time>
      </trkpt>
      <trkpt lat="45.84463" lon="4.78537">
        <ele>528.79998779297</ele>
        <time>2016-09-09T20:22:12.000Z</time>
      </trkpt>
      <trkpt lat="45.84475" lon="4.78557">
        <ele>525.20001220703</ele>
        <time>2016-09-09T20:22:18.000Z</time>
      </trkpt>
      <trkpt lat="45.84487" lon="4.78583">
        <ele>521.40002441406</ele>
        <time>2016-09-09T20:22:25.000Z</time>
      </trkpt>
      <trkpt lat="45.845" lon="4.78602">
        <ele>519.20001220703</ele>
        <time>2016-09-09T20:22:31.000Z</time>
      </trkpt>
      <trkpt lat="45.84506" lon="4.78608">
        <ele>518.59997558594</ele>
        <time>2016-09-09T20:22:33.000Z</time>
      </trkpt>
      <trkpt lat="45.84524" lon="4.78622">
        <ele>518.20001220703</ele>
        <time>2016-09-09T20:22:38.000Z</time>
      </trkpt>
      <trkpt lat="45.8454" lon="4.78641">
        <ele>516.20001220703</ele>
        <time>2016-09-09T20:22:44.000Z</time>
      </trkpt>
      <trkpt lat="45.84554" lon="4.78657">
        <ele>514.59997558594</ele>
        <time>2016-09-09T20:22:50.000Z</time>
      </trkpt>
      <trkpt lat="45.84567" lon="4.78677">
        <ele>511.39999389648</ele>
        <time>2016-09-09T20:22:56.000Z</time>
      </trkpt>
      <trkpt lat="45.84585" lon="4.78692">
        <ele>509.79998779297</ele>
        <time>2016-09-09T20:23:01.000Z</time>
      </trkpt>
      <trkpt lat="45.84603" lon="4.78696">
        <ele>510.60000610352</ele>
        <time>2016-09-09T20:23:05.000Z</time>
      </trkpt>
      <trkpt lat="45.84613" lon="4.78718">
        <ele>506.20001220703</ele>
        <time>2016-09-09T20:23:11.000Z</time>
      </trkpt>
      <trkpt lat="45.84613" lon="4.78746">
        <ele>499.39999389648</ele>
        <time>2016-09-09T20:23:17.000Z</time>
      </trkpt>
      <trkpt lat="45.84618" lon="4.78772">
        <ele>493.39999389648</ele>
        <time>2016-09-09T20:23:24.000Z</time>
      </trkpt>
      <trkpt lat="45.84627" lon="4.78795">
        <ele>488.79998779297</ele>
        <time>2016-09-09T20:23:30.000Z</time>
      </trkpt>
      <trkpt lat="45.8464" lon="4.78816">
        <ele>486.60000610352</ele>
        <time>2016-09-09T20:23:37.000Z</time>
      </trkpt>
      <trkpt lat="45.84656" lon="4.78834">
        <ele>485</ele>
        <time>2016-09-09T20:23:44.000Z</time>
      </trkpt>
      <trkpt lat="45.84674" lon="4.78846">
        <ele>485.20001220703</ele>
        <time>2016-09-09T20:23:50.000Z</time>
      </trkpt>
      <trkpt lat="45.84695" lon="4.78854">
        <ele>486</ele>
        <time>2016-09-09T20:23:56.000Z</time>
      </trkpt>
      <trkpt lat="45.84714" lon="4.78858">
        <ele>487.60000610352</ele>
        <time>2016-09-09T20:24:01.000Z</time>
      </trkpt>
      <trkpt lat="45.84731" lon="4.78869">
        <ele>487.60000610352</ele>
        <time>2016-09-09T20:24:06.000Z</time>
      </trkpt>
      <trkpt lat="45.8475" lon="4.78885">
        <ele>485.39999389648</ele>
        <time>2016-09-09T20:24:12.000Z</time>
      </trkpt>
      <trkpt lat="45.84764" lon="4.78901">
        <ele>482.39999389648</ele>
        <time>2016-09-09T20:24:17.000Z</time>
      </trkpt>
      <trkpt lat="45.84782" lon="4.78915">
        <ele>480.39999389648</ele>
        <time>2016-09-09T20:24:22.000Z</time>
      </trkpt>
      <trkpt lat="45.84801" lon="4.78922">
        <ele>480.39999389648</ele>
        <time>2016-09-09T20:24:31.000Z</time>
      </trkpt>
      <trkpt lat="45.84809" lon="4.78925">
        <ele>480.60000610352</ele>
        <time>2016-09-09T20:24:35.000Z</time>
      </trkpt>
      <trkpt lat="45.84814" lon="4.78931">
        <ele>479.39999389648</ele>
        <time>2016-09-09T20:24:39.000Z</time>
      </trkpt>
      <trkpt lat="45.84833" lon="4.78942">
        <ele>478.20001220703</ele>
        <time>2016-09-09T20:24:52.000Z</time>
      </trkpt>
      <trkpt lat="45.84844" lon="4.78961">
        <ele>474.79998779297</ele>
        <time>2016-09-09T20:25:02.000Z</time>
      </trkpt>
      <trkpt lat="45.84859" lon="4.78978">
        <ele>473.60000610352</ele>
        <time>2016-09-09T20:25:12.000Z</time>
      </trkpt>
      <trkpt lat="45.8486" lon="4.7898">
        <ele>473.39999389648</ele>
        <time>2016-09-09T20:25:13.000Z</time>
      </trkpt>
      <trkpt lat="45.84865" lon="4.79007">
        <ele>469.60000610352</ele>
        <time>2016-09-09T20:25:23.000Z</time>
      </trkpt>
      <trkpt lat="45.84872" lon="4.7903">
        <ele>466</ele>
        <time>2016-09-09T20:25:31.000Z</time>
      </trkpt>
      <trkpt lat="45.84884" lon="4.79051">
        <ele>464.39999389648</ele>
        <time>2016-09-09T20:25:40.000Z</time>
      </trkpt>
      <trkpt lat="45.84889" lon="4.79063">
        <ele>463.60000610352</ele>
        <time>2016-09-09T20:25:46.000Z</time>
      </trkpt>
      <trkpt lat="45.84892" lon="4.79091">
        <ele>460.60000610352</ele>
        <time>2016-09-09T20:25:56.000Z</time>
      </trkpt>
      <trkpt lat="45.84886" lon="4.79119">
        <ele>456</ele>
        <time>2016-09-09T20:26:00.000Z</time>
      </trkpt>
      <trkpt lat="45.84881" lon="4.79148">
        <ele>453.39999389648</ele>
        <time>2016-09-09T20:26:05.000Z</time>
      </trkpt>
      <trkpt lat="45.84879" lon="4.79174">
        <ele>451.20001220703</ele>
        <time>2016-09-09T20:26:13.000Z</time>
      </trkpt>
      <trkpt lat="45.84884" lon="4.79201">
        <ele>449.20001220703</ele>
        <time>2016-09-09T20:26:23.000Z</time>
      </trkpt>
      <trkpt lat="45.84894" lon="4.79226">
        <ele>450.60000610352</ele>
        <time>2016-09-09T20:26:31.000Z</time>
      </trkpt>
      <trkpt lat="45.84901" lon="4.7925">
        <ele>453</ele>
        <time>2016-09-09T20:26:39.000Z</time>
      </trkpt>
      <trkpt lat="45.84911" lon="4.79274">
        <ele>455.79998779297</ele>
        <time>2016-09-09T20:26:50.000Z</time>
      </trkpt>
      <trkpt lat="45.84929" lon="4.79284">
        <ele>459.79998779297</ele>
        <time>2016-09-09T20:27:01.000Z</time>
      </trkpt>
      <trkpt lat="45.84943" lon="4.79287">
        <ele>463</ele>
        <time>2016-09-09T20:27:11.000Z</time>
      </trkpt>
      <trkpt lat="45.84955" lon="4.79287">
        <ele>465.20001220703</ele>
        <time>2016-09-09T20:27:15.000Z</time>
      </trkpt>
      <trkpt lat="45.84953" lon="4.79284">
        <ele>464.79998779297</ele>
        <time>2016-09-09T20:27:19.000Z</time>
      </trkpt>
      <trkpt lat="45.84948" lon="4.79274">
        <ele>463.39999389648</ele>
        <time>2016-09-09T20:27:27.000Z</time>
      </trkpt>
      <trkpt lat="45.84944" lon="4.79268">
        <ele>462.39999389648</ele>
        <time>2016-09-09T20:27:31.000Z</time>
      </trkpt>
      <trkpt lat="45.84937" lon="4.79248">
        <ele>460.20001220703</ele>
        <time>2016-09-09T20:27:40.000Z</time>
      </trkpt>
      <trkpt lat="45.84945" lon="4.79242">
        <ele>461.20001220703</ele>
        <time>2016-09-09T20:27:44.000Z</time>
      </trkpt>
      <trkpt lat="45.84961" lon="4.7924">
        <ele>464</ele>
        <time>2016-09-09T20:27:53.000Z</time>
      </trkpt>
      <trkpt lat="45.8497" lon="4.79238">
        <ele>465.60000610352</ele>
        <time>2016-09-09T20:27:59.000Z</time>
      </trkpt>
      <trkpt lat="45.84978" lon="4.79237">
        <ele>466.60000610352</ele>
        <time>2016-09-09T20:28:03.000Z</time>
      </trkpt>
      <trkpt lat="45.84984" lon="4.79239">
        <ele>467.39999389648</ele>
        <time>2016-09-09T20:28:07.000Z</time>
      </trkpt>
      <trkpt lat="45.85003" lon="4.79239">
        <ele>469.60000610352</ele>
        <time>2016-09-09T20:28:18.000Z</time>
      </trkpt>
      <trkpt lat="45.85022" lon="4.79246">
        <ele>473.39999389648</ele>
        <time>2016-09-09T20:28:30.000Z</time>
      </trkpt>
      <trkpt lat="45.8504" lon="4.79248">
        <ele>477.20001220703</ele>
        <time>2016-09-09T20:28:39.000Z</time>
      </trkpt>
      <trkpt lat="45.85041" lon="4.7925">
        <ele>477.39999389648</ele>
        <time>2016-09-09T20:28:40.000Z</time>
      </trkpt>
      <trkpt lat="45.85056" lon="4.79267">
        <ele>480</ele>
        <time>2016-09-09T20:28:50.000Z</time>
      </trkpt>
      <trkpt lat="45.85061" lon="4.79268">
        <ele>480.20001220703</ele>
        <time>2016-09-09T20:28:53.000Z</time>
      </trkpt>
      <trkpt lat="45.85065" lon="4.79267">
        <ele>480.39999389648</ele>
        <time>2016-09-09T20:28:54.000Z</time>
      </trkpt>
      <trkpt lat="45.85084" lon="4.79265">
        <ele>481.39999389648</ele>
        <time>2016-09-09T20:29:02.000Z</time>
      </trkpt>
      <trkpt lat="45.85103" lon="4.79267">
        <ele>482.20001220703</ele>
        <time>2016-09-09T20:29:10.000Z</time>
      </trkpt>
      <trkpt lat="45.85121" lon="4.79268">
        <ele>483.20001220703</ele>
        <time>2016-09-09T20:29:19.000Z</time>
      </trkpt>
      <trkpt lat="45.85128" lon="4.79268">
        <ele>483.79998779297</ele>
        <time>2016-09-09T20:29:23.000Z</time>
      </trkpt>
      <trkpt lat="45.85147" lon="4.79262">
        <ele>485.79998779297</ele>
        <time>2016-09-09T20:29:32.000Z</time>
      </trkpt>
      <trkpt lat="45.85164" lon="4.79271">
        <ele>485.20001220703</ele>
        <time>2016-09-09T20:29:41.000Z</time>
      </trkpt>
      <trkpt lat="45.8518" lon="4.79286">
        <ele>484.20001220703</ele>
        <time>2016-09-09T20:29:51.000Z</time>
      </trkpt>
      <trkpt lat="45.85197" lon="4.793">
        <ele>481.20001220703</ele>
        <time>2016-09-09T20:29:57.000Z</time>
      </trkpt>
      <trkpt lat="45.85215" lon="4.79311">
        <ele>478.79998779297</ele>
        <time>2016-09-09T20:30:05.000Z</time>
      </trkpt>
      <trkpt lat="45.85236" lon="4.79317">
        <ele>475.60000610352</ele>
        <time>2016-09-09T20:30:13.000Z</time>
      </trkpt>
      <trkpt lat="45.85249" lon="4.79318">
        <ele>473.60000610352</ele>
        <time>2016-09-09T20:30:20.000Z</time>
      </trkpt>
      <trkpt lat="45.85265" lon="4.79324">
        <ele>469.39999389648</ele>
        <time>2016-09-09T20:30:33.000Z</time>
      </trkpt>
      <trkpt lat="45.85283" lon="4.79328">
        <ele>464</ele>
        <time>2016-09-09T20:30:44.000Z</time>
      </trkpt>
      <trkpt lat="45.85288" lon="4.79339">
        <ele>461</ele>
        <time>2016-09-09T20:30:51.000Z</time>
      </trkpt>
      <trkpt lat="45.85306" lon="4.79348">
        <ele>455.39999389648</ele>
        <time>2016-09-09T20:30:57.000Z</time>
      </trkpt>
      <trkpt lat="45.85327" lon="4.79351">
        <ele>454</ele>
        <time>2016-09-09T20:31:02.000Z</time>
      </trkpt>
      <trkpt lat="45.85346" lon="4.79357">
        <ele>452.20001220703</ele>
        <time>2016-09-09T20:31:08.000Z</time>
      </trkpt>
      <trkpt lat="45.85364" lon="4.79366">
        <ele>450</ele>
        <time>2016-09-09T20:31:16.000Z</time>
      </trkpt>
      <trkpt lat="45.8537" lon="4.79364">
        <ele>450</ele>
        <time>2016-09-09T20:31:18.000Z</time>
      </trkpt>
      <trkpt lat="45.85386" lon="4.79346">
        <ele>450</ele>
        <time>2016-09-09T20:31:24.000Z</time>
      </trkpt>
      <trkpt lat="45.85394" lon="4.7932">
        <ele>451.39999389648</ele>
        <time>2016-09-09T20:31:32.000Z</time>
      </trkpt>
      <trkpt lat="45.85404" lon="4.79296">
        <ele>453.39999389648</ele>
        <time>2016-09-09T20:31:40.000Z</time>
      </trkpt>
      <trkpt lat="45.85423" lon="4.79295">
        <ele>454.39999389648</ele>
        <time>2016-09-09T20:31:47.000Z</time>
      </trkpt>
      <trkpt lat="45.85442" lon="4.79301">
        <ele>455</ele>
        <time>2016-09-09T20:31:56.000Z</time>
      </trkpt>
      <trkpt lat="45.85461" lon="4.79308">
        <ele>455.60000610352</ele>
        <time>2016-09-09T20:32:05.000Z</time>
      </trkpt>
      <trkpt lat="45.85471" lon="4.79308">
        <ele>456</ele>
        <time>2016-09-09T20:32:10.000Z</time>
      </trkpt>
      <trkpt lat="45.85474" lon="4.79296">
        <ele>456.79998779297</ele>
        <time>2016-09-09T20:32:15.000Z</time>
      </trkpt>
      <trkpt lat="45.85482" lon="4.79273">
        <ele>459.39999389648</ele>
        <time>2016-09-09T20:32:23.000Z</time>
      </trkpt>
      <trkpt lat="45.85501" lon="4.79269">
        <ele>462.60000610352</ele>
        <time>2016-09-09T20:32:31.000Z</time>
      </trkpt>
      <trkpt lat="45.85521" lon="4.79266">
        <ele>465.60000610352</ele>
        <time>2016-09-09T20:32:40.000Z</time>
      </trkpt>
      <trkpt lat="45.85541" lon="4.79264">
        <ele>468.39999389648</ele>
        <time>2016-09-09T20:32:49.000Z</time>
      </trkpt>
      <trkpt lat="45.8556" lon="4.79264">
        <ele>470.60000610352</ele>
        <time>2016-09-09T20:32:58.000Z</time>
      </trkpt>
      <trkpt lat="45.85574" lon="4.79279">
        <ele>471</ele>
        <time>2016-09-09T20:33:08.000Z</time>
      </trkpt>
      <trkpt lat="45.85587" lon="4.793">
        <ele>471.39999389648</ele>
        <time>2016-09-09T20:33:18.000Z</time>
      </trkpt>
      <trkpt lat="45.85599" lon="4.79321">
        <ele>471.79998779297</ele>
        <time>2016-09-09T20:33:27.000Z</time>
      </trkpt>
      <trkpt lat="45.85611" lon="4.79343">
        <ele>472.39999389648</ele>
        <time>2016-09-09T20:33:36.000Z</time>
      </trkpt>
      <trkpt lat="45.85615" lon="4.79346">
        <ele>472.60000610352</ele>
        <time>2016-09-09T20:33:38.000Z</time>
      </trkpt>
      <trkpt lat="45.85617" lon="4.79323">
        <ele>473.39999389648</ele>
        <time>2016-09-09T20:33:47.000Z</time>
      </trkpt>
      <trkpt lat="45.85612" lon="4.79297">
        <ele>473.39999389648</ele>
        <time>2016-09-09T20:33:55.000Z</time>
      </trkpt>
      <trkpt lat="45.85606" lon="4.79271">
        <ele>474</ele>
        <time>2016-09-09T20:34:03.000Z</time>
      </trkpt>
      <trkpt lat="45.85602" lon="4.79244">
        <ele>475.39999389648</ele>
        <time>2016-09-09T20:34:11.000Z</time>
      </trkpt>
      <trkpt lat="45.85602" lon="4.79216">
        <ele>478.39999389648</ele>
        <time>2016-09-09T20:34:20.000Z</time>
      </trkpt>
      <trkpt lat="45.85602" lon="4.79209">
        <ele>479.20001220703</ele>
        <time>2016-09-09T20:34:22.000Z</time>
      </trkpt>
      <trkpt lat="45.85603" lon="4.79194">
        <ele>481.20001220703</ele>
        <time>2016-09-09T20:34:27.000Z</time>
      </trkpt>
      <trkpt lat="45.85605" lon="4.79168">
        <ele>484.79998779297</ele>
        <time>2016-09-09T20:34:36.000Z</time>
      </trkpt>
      <trkpt lat="45.85606" lon="4.79142">
        <ele>487.79998779297</ele>
        <time>2016-09-09T20:34:44.000Z</time>
      </trkpt>
      <trkpt lat="45.85604" lon="4.79116">
        <ele>490.39999389648</ele>
        <time>2016-09-09T20:34:53.000Z</time>
      </trkpt>
      <trkpt lat="45.85596" lon="4.79091">
        <ele>492.39999389648</ele>
        <time>2016-09-09T20:35:02.000Z</time>
      </trkpt>
      <trkpt lat="45.8558" lon="4.79077">
        <ele>492.20001220703</ele>
        <time>2016-09-09T20:35:10.000Z</time>
      </trkpt>
      <trkpt lat="45.85574" lon="4.79074">
        <ele>492</ele>
        <time>2016-09-09T20:35:14.000Z</time>
      </trkpt>
      <trkpt lat="45.85573" lon="4.79073">
        <ele>491.79998779297</ele>
        <time>2016-09-09T20:35:15.000Z</time>
      </trkpt>
      <trkpt lat="45.85561" lon="4.79061">
        <ele>491.79998779297</ele>
        <time>2016-09-09T20:35:22.000Z</time>
      </trkpt>
      <trkpt lat="45.85544" lon="4.79047">
        <ele>492.39999389648</ele>
        <time>2016-09-09T20:35:31.000Z</time>
      </trkpt>
      <trkpt lat="45.85532" lon="4.79034">
        <ele>493.39999389648</ele>
        <time>2016-09-09T20:35:38.000Z</time>
      </trkpt>
      <trkpt lat="45.85523" lon="4.79029">
        <ele>493.39999389648</ele>
        <time>2016-09-09T20:35:42.000Z</time>
      </trkpt>
      <trkpt lat="45.85507" lon="4.79015">
        <ele>494.39999389648</ele>
        <time>2016-09-09T20:35:51.000Z</time>
      </trkpt>
      <trkpt lat="45.8552" lon="4.79017">
        <ele>494.79998779297</ele>
        <time>2016-09-09T20:36:01.000Z</time>
      </trkpt>
      <trkpt lat="45.85537" lon="4.79029">
        <ele>494.20001220703</ele>
        <time>2016-09-09T20:36:10.000Z</time>
      </trkpt>
      <trkpt lat="45.85547" lon="4.79036">
        <ele>493.79998779297</ele>
        <time>2016-09-09T20:36:15.000Z</time>
      </trkpt>
      <trkpt lat="45.85564" lon="4.79046">
        <ele>494</ele>
        <time>2016-09-09T20:36:25.000Z</time>
      </trkpt>
      <trkpt lat="45.85582" lon="4.79051">
        <ele>495.39999389648</ele>
        <time>2016-09-09T20:36:39.000Z</time>
      </trkpt>
      <trkpt lat="45.85602" lon="4.79052">
        <ele>497.39999389648</ele>
        <time>2016-09-09T20:36:49.000Z</time>
      </trkpt>
      <trkpt lat="45.85609" lon="4.79055">
        <ele>498</ele>
        <time>2016-09-09T20:36:52.000Z</time>
      </trkpt>
      <trkpt lat="45.85613" lon="4.79057">
        <ele>498.20001220703</ele>
        <time>2016-09-09T20:36:55.000Z</time>
      </trkpt>
      <trkpt lat="45.8563" lon="4.79064">
        <ele>499.20001220703</ele>
        <time>2016-09-09T20:37:06.000Z</time>
      </trkpt>
      <trkpt lat="45.85647" lon="4.79077">
        <ele>500</ele>
        <time>2016-09-09T20:37:18.000Z</time>
      </trkpt>
      <trkpt lat="45.85648" lon="4.79078">
        <ele>500</ele>
        <time>2016-09-09T20:37:19.000Z</time>
      </trkpt>
      <trkpt lat="45.85651" lon="4.79082">
        <ele>500</ele>
        <time>2016-09-09T20:37:22.000Z</time>
      </trkpt>
      <trkpt lat="45.85667" lon="4.79093">
        <ele>501.39999389648</ele>
        <time>2016-09-09T20:37:31.000Z</time>
      </trkpt>
      <trkpt lat="45.85683" lon="4.79108">
        <ele>502.20001220703</ele>
        <time>2016-09-09T20:37:43.000Z</time>
      </trkpt>
      <trkpt lat="45.85699" lon="4.79117">
        <ele>503.79998779297</ele>
        <time>2016-09-09T20:37:53.000Z</time>
      </trkpt>
      <trkpt lat="45.85719" lon="4.79124">
        <ele>506.20001220703</ele>
        <time>2016-09-09T20:38:03.000Z</time>
      </trkpt>
      <trkpt lat="45.85737" lon="4.79129">
        <ele>507.60000610352</ele>
        <time>2016-09-09T20:38:13.000Z</time>
      </trkpt>
      <trkpt lat="45.85754" lon="4.79134">
        <ele>508.39999389648</ele>
        <time>2016-09-09T20:38:22.000Z</time>
      </trkpt>
      <trkpt lat="45.85771" lon="4.79147">
        <ele>508.60000610352</ele>
        <time>2016-09-09T20:38:32.000Z</time>
      </trkpt>
      <trkpt lat="45.8579" lon="4.79153">
        <ele>509.60000610352</ele>
        <time>2016-09-09T20:38:41.000Z</time>
      </trkpt>
      <trkpt lat="45.85807" lon="4.79163">
        <ele>510.20001220703</ele>
        <time>2016-09-09T20:38:49.000Z</time>
      </trkpt>
      <trkpt lat="45.85825" lon="4.79172">
        <ele>512.40002441406</ele>
        <time>2016-09-09T20:38:58.000Z</time>
      </trkpt>
      <trkpt lat="45.85844" lon="4.79182">
        <ele>514.59997558594</ele>
        <time>2016-09-09T20:39:07.000Z</time>
      </trkpt>
      <trkpt lat="45.85846" lon="4.79182">
        <ele>515</ele>
        <time>2016-09-09T20:39:08.000Z</time>
      </trkpt>
      <trkpt lat="45.85859" lon="4.7916">
        <ele>519.20001220703</ele>
        <time>2016-09-09T20:39:18.000Z</time>
      </trkpt>
      <trkpt lat="45.85858" lon="4.79147">
        <ele>520.59997558594</ele>
        <time>2016-09-09T20:39:23.000Z</time>
      </trkpt>
      <trkpt lat="45.85852" lon="4.79122">
        <ele>522.20001220703</ele>
        <time>2016-09-09T20:39:32.000Z</time>
      </trkpt>
      <trkpt lat="45.85844" lon="4.79097">
        <ele>523.79998779297</ele>
        <time>2016-09-09T20:39:42.000Z</time>
      </trkpt>
      <trkpt lat="45.85837" lon="4.79073">
        <ele>525</ele>
        <time>2016-09-09T20:39:52.000Z</time>
      </trkpt>
      <trkpt lat="45.85828" lon="4.79049">
        <ele>526.40002441406</ele>
        <time>2016-09-09T20:40:03.000Z</time>
      </trkpt>
      <trkpt lat="45.85819" lon="4.79026">
        <ele>527.20001220703</ele>
        <time>2016-09-09T20:40:13.000Z</time>
      </trkpt>
      <trkpt lat="45.85813" lon="4.79001">
        <ele>528.59997558594</ele>
        <time>2016-09-09T20:40:25.000Z</time>
      </trkpt>
      <trkpt lat="45.85812" lon="4.78999">
        <ele>528.59997558594</ele>
        <time>2016-09-09T20:40:26.000Z</time>
      </trkpt>
      <trkpt lat="45.8581" lon="4.7899">
        <ele>529</ele>
        <time>2016-09-09T20:40:30.000Z</time>
      </trkpt>
      <trkpt lat="45.85806" lon="4.78964">
        <ele>531</ele>
        <time>2016-09-09T20:40:40.000Z</time>
      </trkpt>
      <trkpt lat="45.85801" lon="4.78938">
        <ele>532</ele>
        <time>2016-09-09T20:40:49.000Z</time>
      </trkpt>
      <trkpt lat="45.85796" lon="4.78913">
        <ele>532</ele>
        <time>2016-09-09T20:40:57.000Z</time>
      </trkpt>
      <trkpt lat="45.85793" lon="4.78886">
        <ele>532.40002441406</ele>
        <time>2016-09-09T20:41:06.000Z</time>
      </trkpt>
      <trkpt lat="45.85796" lon="4.78869">
        <ele>533.40002441406</ele>
        <time>2016-09-09T20:41:14.000Z</time>
      </trkpt>
      <trkpt lat="45.85798" lon="4.78863">
        <ele>534.20001220703</ele>
        <time>2016-09-09T20:41:18.000Z</time>
      </trkpt>
      <trkpt lat="45.85798" lon="4.78861">
        <ele>534</ele>
        <time>2016-09-09T20:41:19.000Z</time>
      </trkpt>
      <trkpt lat="45.85803" lon="4.78842">
        <ele>531</ele>
        <time>2016-09-09T20:41:29.000Z</time>
      </trkpt>
      <trkpt lat="45.8581" lon="4.78818">
        <ele>527.59997558594</ele>
        <time>2016-09-09T20:41:41.000Z</time>
      </trkpt>
      <trkpt lat="45.85813" lon="4.78813">
        <ele>527.20001220703</ele>
        <time>2016-09-09T20:41:44.000Z</time>
      </trkpt>
      <trkpt lat="45.85821" lon="4.78808">
        <ele>526.59997558594</ele>
        <time>2016-09-09T20:41:50.000Z</time>
      </trkpt>
      <trkpt lat="45.85832" lon="4.78804">
        <ele>524.40002441406</ele>
        <time>2016-09-09T20:41:57.000Z</time>
      </trkpt>
      <trkpt lat="45.85841" lon="4.78811">
        <ele>525</ele>
        <time>2016-09-09T20:42:02.000Z</time>
      </trkpt>
      <trkpt lat="45.85847" lon="4.78826">
        <ele>528.40002441406</ele>
        <time>2016-09-09T20:42:09.000Z</time>
      </trkpt>
      <trkpt lat="45.85864" lon="4.78817">
        <ele>522.40002441406</ele>
        <time>2016-09-09T20:42:20.000Z</time>
      </trkpt>
      <trkpt lat="45.85868" lon="4.78816">
        <ele>521.40002441406</ele>
        <time>2016-09-09T20:42:22.000Z</time>
      </trkpt>
      <trkpt lat="45.85888" lon="4.78819">
        <ele>518.79998779297</ele>
        <time>2016-09-09T20:42:30.000Z</time>
      </trkpt>
      <trkpt lat="45.85906" lon="4.78824">
        <ele>516.59997558594</ele>
        <time>2016-09-09T20:42:39.000Z</time>
      </trkpt>
      <trkpt lat="45.85912" lon="4.78826">
        <ele>516.20001220703</ele>
        <time>2016-09-09T20:42:42.000Z</time>
      </trkpt>
      <trkpt lat="45.85921" lon="4.78824">
        <ele>513.59997558594</ele>
        <time>2016-09-09T20:42:47.000Z</time>
      </trkpt>
      <trkpt lat="45.85939" lon="4.78825">
        <ele>511.60000610352</ele>
        <time>2016-09-09T20:42:54.000Z</time>
      </trkpt>
      <trkpt lat="45.85958" lon="4.78832">
        <ele>510.79998779297</ele>
        <time>2016-09-09T20:43:03.000Z</time>
      </trkpt>
      <trkpt lat="45.85973" lon="4.78845">
        <ele>511.79998779297</ele>
        <time>2016-09-09T20:43:14.000Z</time>
      </trkpt>
      <trkpt lat="45.85991" lon="4.78853">
        <ele>510.79998779297</ele>
        <time>2016-09-09T20:43:23.000Z</time>
      </trkpt>
      <trkpt lat="45.86009" lon="4.78866">
        <ele>511</ele>
        <time>2016-09-09T20:43:31.000Z</time>
      </trkpt>
      <trkpt lat="45.86019" lon="4.78872">
        <ele>510.79998779297</ele>
        <time>2016-09-09T20:43:37.000Z</time>
      </trkpt>
      <trkpt lat="45.86036" lon="4.78885">
        <ele>512.20001220703</ele>
        <time>2016-09-09T20:43:44.000Z</time>
      </trkpt>
      <trkpt lat="45.86055" lon="4.78894">
        <ele>511.79998779297</ele>
        <time>2016-09-09T20:43:50.000Z</time>
      </trkpt>
      <trkpt lat="45.86073" lon="4.78902">
        <ele>509.79998779297</ele>
        <time>2016-09-09T20:43:54.000Z</time>
      </trkpt>
      <trkpt lat="45.8609" lon="4.78915">
        <ele>509.39999389648</ele>
        <time>2016-09-09T20:44:01.000Z</time>
      </trkpt>
      <trkpt lat="45.86104" lon="4.78932">
        <ele>511</ele>
        <time>2016-09-09T20:44:10.000Z</time>
      </trkpt>
      <trkpt lat="45.86113" lon="4.78957">
        <ele>516</ele>
        <time>2016-09-09T20:44:18.000Z</time>
      </trkpt>
      <trkpt lat="45.86127" lon="4.78979">
        <ele>515.59997558594</ele>
        <time>2016-09-09T20:44:26.000Z</time>
      </trkpt>
      <trkpt lat="45.8614" lon="4.78998">
        <ele>515</ele>
        <time>2016-09-09T20:44:35.000Z</time>
      </trkpt>
      <trkpt lat="45.86154" lon="4.79018">
        <ele>513.20001220703</ele>
        <time>2016-09-09T20:44:42.000Z</time>
      </trkpt>
      <trkpt lat="45.86169" lon="4.79033">
        <ele>510.20001220703</ele>
        <time>2016-09-09T20:44:48.000Z</time>
      </trkpt>
      <trkpt lat="45.86185" lon="4.79051">
        <ele>507.79998779297</ele>
        <time>2016-09-09T20:44:55.000Z</time>
      </trkpt>
      <trkpt lat="45.86199" lon="4.7907">
        <ele>506</ele>
        <time>2016-09-09T20:45:03.000Z</time>
      </trkpt>
      <trkpt lat="45.86202" lon="4.79072">
        <ele>505.39999389648</ele>
        <time>2016-09-09T20:45:04.000Z</time>
      </trkpt>
      <trkpt lat="45.86219" lon="4.79085">
        <ele>501.60000610352</ele>
        <time>2016-09-09T20:45:11.000Z</time>
      </trkpt>
      <trkpt lat="45.86233" lon="4.79105">
        <ele>500.20001220703</ele>
        <time>2016-09-09T20:45:19.000Z</time>
      </trkpt>
      <trkpt lat="45.86245" lon="4.79126">
        <ele>499.60000610352</ele>
        <time>2016-09-09T20:45:27.000Z</time>
      </trkpt>
      <trkpt lat="45.86256" lon="4.79149">
        <ele>500.39999389648</ele>
        <time>2016-09-09T20:45:35.000Z</time>
      </trkpt>
      <trkpt lat="45.86273" lon="4.79166">
        <ele>498.39999389648</ele>
        <time>2016-09-09T20:45:43.000Z</time>
      </trkpt>
      <trkpt lat="45.86289" lon="4.7918">
        <ele>495.79998779297</ele>
        <time>2016-09-09T20:45:50.000Z</time>
      </trkpt>
      <trkpt lat="45.86304" lon="4.79199">
        <ele>494.60000610352</ele>
        <time>2016-09-09T20:45:58.000Z</time>
      </trkpt>
      <trkpt lat="45.8632" lon="4.79216">
        <ele>492.79998779297</ele>
        <time>2016-09-09T20:46:07.000Z</time>
      </trkpt>
      <trkpt lat="45.86333" lon="4.79234">
        <ele>492.39999389648</ele>
        <time>2016-09-09T20:46:15.000Z</time>
      </trkpt>
      <trkpt lat="45.86346" lon="4.79251">
        <ele>491.79998779297</ele>
        <time>2016-09-09T20:46:23.000Z</time>
      </trkpt>
      <trkpt lat="45.86362" lon="4.79268">
        <ele>490.20001220703</ele>
        <time>2016-09-09T20:46:30.000Z</time>
      </trkpt>
      <trkpt lat="45.86377" lon="4.79283">
        <ele>488.39999389648</ele>
        <time>2016-09-09T20:46:37.000Z</time>
      </trkpt>
      <trkpt lat="45.86389" lon="4.79297">
        <ele>486.79998779297</ele>
        <time>2016-09-09T20:46:43.000Z</time>
      </trkpt>
      <trkpt lat="45.86402" lon="4.79317">
        <ele>485.39999389648</ele>
        <time>2016-09-09T20:46:49.000Z</time>
      </trkpt>
      <trkpt lat="45.86421" lon="4.79332">
        <ele>481</ele>
        <time>2016-09-09T20:46:55.000Z</time>
      </trkpt>
      <trkpt lat="45.86438" lon="4.79345">
        <ele>477.39999389648</ele>
        <time>2016-09-09T20:47:01.000Z</time>
      </trkpt>
      <trkpt lat="45.86452" lon="4.79363">
        <ele>475</ele>
        <time>2016-09-09T20:47:08.000Z</time>
      </trkpt>
      <trkpt lat="45.86469" lon="4.7938">
        <ele>472.60000610352</ele>
        <time>2016-09-09T20:47:16.000Z</time>
      </trkpt>
      <trkpt lat="45.86486" lon="4.79398">
        <ele>471</ele>
        <time>2016-09-09T20:47:24.000Z</time>
      </trkpt>
      <trkpt lat="45.86502" lon="4.79416">
        <ele>469.79998779297</ele>
        <time>2016-09-09T20:47:32.000Z</time>
      </trkpt>
      <trkpt lat="45.8652" lon="4.79433">
        <ele>467.79998779297</ele>
        <time>2016-09-09T20:47:39.000Z</time>
      </trkpt>
      <trkpt lat="45.86533" lon="4.7945">
        <ele>467.20001220703</ele>
        <time>2016-09-09T20:47:46.000Z</time>
      </trkpt>
      <trkpt lat="45.86546" lon="4.79472">
        <ele>467.20001220703</ele>
        <time>2016-09-09T20:47:53.000Z</time>
      </trkpt>
      <trkpt lat="45.8656" lon="4.79491">
        <ele>465.79998779297</ele>
        <time>2016-09-09T20:47:58.000Z</time>
      </trkpt>
      <trkpt lat="45.86575" lon="4.7951">
        <ele>463.60000610352</ele>
        <time>2016-09-09T20:48:04.000Z</time>
      </trkpt>
      <trkpt lat="45.8659" lon="4.7953">
        <ele>461.20001220703</ele>
        <time>2016-09-09T20:48:10.000Z</time>
      </trkpt>
      <trkpt lat="45.86601" lon="4.79554">
        <ele>459.60000610352</ele>
        <time>2016-09-09T20:48:17.000Z</time>
      </trkpt>
      <trkpt lat="45.86617" lon="4.79577">
        <ele>455.20001220703</ele>
        <time>2016-09-09T20:48:24.000Z</time>
      </trkpt>
      <trkpt lat="45.86628" lon="4.79599">
        <ele>452.60000610352</ele>
        <time>2016-09-09T20:48:30.000Z</time>
      </trkpt>
      <trkpt lat="45.86639" lon="4.79624">
        <ele>450.39999389648</ele>
        <time>2016-09-09T20:48:36.000Z</time>
      </trkpt>
      <trkpt lat="45.86648" lon="4.79647">
        <ele>447.60000610352</ele>
        <time>2016-09-09T20:48:43.000Z</time>
      </trkpt>
      <trkpt lat="45.86656" lon="4.79675">
        <ele>445.79998779297</ele>
        <time>2016-09-09T20:48:49.000Z</time>
      </trkpt>
      <trkpt lat="45.86659" lon="4.79703">
        <ele>445.60000610352</ele>
        <time>2016-09-09T20:48:56.000Z</time>
      </trkpt>
      <trkpt lat="45.86655" lon="4.79733">
        <ele>445.39999389648</ele>
        <time>2016-09-09T20:49:04.000Z</time>
      </trkpt>
      <trkpt lat="45.86654" lon="4.79752">
        <ele>445</ele>
        <time>2016-09-09T20:49:11.000Z</time>
      </trkpt>
      <trkpt lat="45.86643" lon="4.79775">
        <ele>448.39999389648</ele>
        <time>2016-09-09T20:49:22.000Z</time>
      </trkpt>
      <trkpt lat="45.86635" lon="4.79802">
        <ele>448.79998779297</ele>
        <time>2016-09-09T20:49:31.000Z</time>
      </trkpt>
      <trkpt lat="45.86633" lon="4.79813">
        <ele>448.20001220703</ele>
        <time>2016-09-09T20:49:35.000Z</time>
      </trkpt>
      <trkpt lat="45.86627" lon="4.7984">
        <ele>446.79998779297</ele>
        <time>2016-09-09T20:49:47.000Z</time>
      </trkpt>
      <trkpt lat="45.86614" lon="4.79861">
        <ele>447</ele>
        <time>2016-09-09T20:49:57.000Z</time>
      </trkpt>
      <trkpt lat="45.866" lon="4.79877">
        <ele>447.79998779297</ele>
        <time>2016-09-09T20:50:07.000Z</time>
      </trkpt>
      <trkpt lat="45.86589" lon="4.79899">
        <ele>450.60000610352</ele>
        <time>2016-09-09T20:50:15.000Z</time>
      </trkpt>
      <trkpt lat="45.86589" lon="4.79903">
        <ele>450.60000610352</ele>
        <time>2016-09-09T20:50:16.000Z</time>
      </trkpt>
      <trkpt lat="45.86601" lon="4.79919">
        <ele>448.20001220703</ele>
        <time>2016-09-09T20:50:22.000Z</time>
      </trkpt>
      <trkpt lat="45.86619" lon="4.7993">
        <ele>444.79998779297</ele>
        <time>2016-09-09T20:50:29.000Z</time>
      </trkpt>
      <trkpt lat="45.86637" lon="4.79939">
        <ele>441.20001220703</ele>
        <time>2016-09-09T20:50:36.000Z</time>
      </trkpt>
      <trkpt lat="45.86655" lon="4.79953">
        <ele>437.20001220703</ele>
        <time>2016-09-09T20:50:43.000Z</time>
      </trkpt>
      <trkpt lat="45.86671" lon="4.79969">
        <ele>436.79998779297</ele>
        <time>2016-09-09T20:50:50.000Z</time>
      </trkpt>
      <trkpt lat="45.86684" lon="4.79989">
        <ele>438.60000610352</ele>
        <time>2016-09-09T20:50:57.000Z</time>
      </trkpt>
      <trkpt lat="45.867" lon="4.80004">
        <ele>438.39999389648</ele>
        <time>2016-09-09T20:51:05.000Z</time>
      </trkpt>
      <trkpt lat="45.86714" lon="4.80021">
        <ele>439</ele>
        <time>2016-09-09T20:51:16.000Z</time>
      </trkpt>
      <trkpt lat="45.86719" lon="4.80038">
        <ele>441.20001220703</ele>
        <time>2016-09-09T20:51:24.000Z</time>
      </trkpt>
      <trkpt lat="45.86719" lon="4.80048">
        <ele>442.60000610352</ele>
        <time>2016-09-09T20:51:29.000Z</time>
      </trkpt>
      <trkpt lat="45.86725" lon="4.80073">
        <ele>445.60000610352</ele>
        <time>2016-09-09T20:51:41.000Z</time>
      </trkpt>
      <trkpt lat="45.86728" lon="4.80081">
        <ele>446</ele>
        <time>2016-09-09T20:51:45.000Z</time>
      </trkpt>
      <trkpt lat="45.86736" lon="4.80103">
        <ele>447.20001220703</ele>
        <time>2016-09-09T20:51:56.000Z</time>
      </trkpt>
      <trkpt lat="45.86747" lon="4.80127">
        <ele>448</ele>
        <time>2016-09-09T20:52:10.000Z</time>
      </trkpt>
      <trkpt lat="45.86755" lon="4.80136">
        <ele>447.39999389648</ele>
        <time>2016-09-09T20:52:19.000Z</time>
      </trkpt>
      <trkpt lat="45.86768" lon="4.80148">
        <ele>446.20001220703</ele>
        <time>2016-09-09T20:52:27.000Z</time>
      </trkpt>
      <trkpt lat="45.8678" lon="4.80169">
        <ele>446.79998779297</ele>
        <time>2016-09-09T20:52:36.000Z</time>
      </trkpt>
      <trkpt lat="45.86788" lon="4.80195">
        <ele>447.60000610352</ele>
        <time>2016-09-09T20:52:45.000Z</time>
      </trkpt>
      <trkpt lat="45.86791" lon="4.80207">
        <ele>447.60000610352</ele>
        <time>2016-09-09T20:52:49.000Z</time>
      </trkpt>
      <trkpt lat="45.86803" lon="4.8023">
        <ele>447.60000610352</ele>
        <time>2016-09-09T20:52:57.000Z</time>
      </trkpt>
      <trkpt lat="45.86813" lon="4.80251">
        <ele>445.79998779297</ele>
        <time>2016-09-09T20:53:04.000Z</time>
      </trkpt>
      <trkpt lat="45.8682" lon="4.80257">
        <ele>443.20001220703</ele>
        <time>2016-09-09T20:53:08.000Z</time>
      </trkpt>
      <trkpt lat="45.86818" lon="4.80275">
        <ele>444.79998779297</ele>
        <time>2016-09-09T20:53:15.000Z</time>
      </trkpt>
      <trkpt lat="45.8681" lon="4.8029">
        <ele>448.60000610352</ele>
        <time>2016-09-09T20:53:21.000Z</time>
      </trkpt>
      <trkpt lat="45.86805" lon="4.80294">
        <ele>449.60000610352</ele>
        <time>2016-09-09T20:53:25.000Z</time>
      </trkpt>
      <trkpt lat="45.86801" lon="4.80305">
        <ele>449</ele>
        <time>2016-09-09T20:53:30.000Z</time>
      </trkpt>
      <trkpt lat="45.86798" lon="4.80311">
        <ele>448.79998779297</ele>
        <time>2016-09-09T20:53:33.000Z</time>
      </trkpt>
      <trkpt lat="45.86793" lon="4.80317">
        <ele>448.39999389648</ele>
        <time>2016-09-09T20:53:37.000Z</time>
      </trkpt>
      <trkpt lat="45.86792" lon="4.80324">
        <ele>448</ele>
        <time>2016-09-09T20:53:41.000Z</time>
      </trkpt>
      <trkpt lat="45.86795" lon="4.80351">
        <ele>446.79998779297</ele>
        <time>2016-09-09T20:53:51.000Z</time>
      </trkpt>
      <trkpt lat="45.86797" lon="4.80378">
        <ele>444</ele>
        <time>2016-09-09T20:54:04.000Z</time>
      </trkpt>
      <trkpt lat="45.868" lon="4.80384">
        <ele>443.39999389648</ele>
        <time>2016-09-09T20:54:07.000Z</time>
      </trkpt>
      <trkpt lat="45.86811" lon="4.80398">
        <ele>441.39999389648</ele>
        <time>2016-09-09T20:54:15.000Z</time>
      </trkpt>
      <trkpt lat="45.86809" lon="4.80409">
        <ele>440</ele>
        <time>2016-09-09T20:54:21.000Z</time>
      </trkpt>
      <trkpt lat="45.86795" lon="4.80431">
        <ele>435.79998779297</ele>
        <time>2016-09-09T20:54:31.000Z</time>
      </trkpt>
      <trkpt lat="45.86793" lon="4.80434">
        <ele>435</ele>
        <time>2016-09-09T20:54:33.000Z</time>
      </trkpt>
      <trkpt lat="45.86782" lon="4.80435">
        <ele>433.79998779297</ele>
        <time>2016-09-09T20:54:38.000Z</time>
      </trkpt>
      <trkpt lat="45.86766" lon="4.80427">
        <ele>433.60000610352</ele>
        <time>2016-09-09T20:54:47.000Z</time>
      </trkpt>
      <trkpt lat="45.86757" lon="4.8043">
        <ele>432.20001220703</ele>
        <time>2016-09-09T20:54:52.000Z</time>
      </trkpt>
      <trkpt lat="45.86739" lon="4.80426">
        <ele>431.20001220703</ele>
        <time>2016-09-09T20:54:59.000Z</time>
      </trkpt>
      <trkpt lat="45.86723" lon="4.80409">
        <ele>432.20001220703</ele>
        <time>2016-09-09T20:55:06.000Z</time>
      </trkpt>
      <trkpt lat="45.8672" lon="4.80407">
        <ele>431.60000610352</ele>
        <time>2016-09-09T20:55:10.000Z</time>
      </trkpt>
      <trkpt lat="45.86719" lon="4.80436">
        <ele>427</ele>
        <time>2016-09-09T20:55:19.000Z</time>
      </trkpt>
      <trkpt lat="45.86727" lon="4.8046">
        <ele>424.60000610352</ele>
        <time>2016-09-09T20:55:28.000Z</time>
      </trkpt>
      <trkpt lat="45.86738" lon="4.80481">
        <ele>421.60000610352</ele>
        <time>2016-09-09T20:55:37.000Z</time>
      </trkpt>
      <trkpt lat="45.86744" lon="4.8051">
        <ele>417.20001220703</ele>
        <time>2016-09-09T20:55:44.000Z</time>
      </trkpt>
      <trkpt lat="45.86742" lon="4.80522">
        <ele>415.20001220703</ele>
        <time>2016-09-09T20:55:46.000Z</time>
      </trkpt>
      <trkpt lat="45.86757" lon="4.80542">
        <ele>413.20001220703</ele>
        <time>2016-09-09T20:55:52.000Z</time>
      </trkpt>
      <trkpt lat="45.86771" lon="4.80557">
        <ele>412.39999389648</ele>
        <time>2016-09-09T20:55:58.000Z</time>
      </trkpt>
      <trkpt lat="45.86784" lon="4.80576">
        <ele>411.39999389648</ele>
        <time>2016-09-09T20:56:03.000Z</time>
      </trkpt>
      <trkpt lat="45.86796" lon="4.80596">
        <ele>410</ele>
        <time>2016-09-09T20:56:08.000Z</time>
      </trkpt>
      <trkpt lat="45.86799" lon="4.80621">
        <ele>407.39999389648</ele>
        <time>2016-09-09T20:56:14.000Z</time>
      </trkpt>
      <trkpt lat="45.868" lon="4.80631">
        <ele>407</ele>
        <time>2016-09-09T20:56:17.000Z</time>
      </trkpt>
      <trkpt lat="45.86796" lon="4.80659">
        <ele>405.20001220703</ele>
        <time>2016-09-09T20:56:25.000Z</time>
      </trkpt>
      <trkpt lat="45.86797" lon="4.80686">
        <ele>403.79998779297</ele>
        <time>2016-09-09T20:56:33.000Z</time>
      </trkpt>
      <trkpt lat="45.86797" lon="4.80714">
        <ele>401.60000610352</ele>
        <time>2016-09-09T20:56:41.000Z</time>
      </trkpt>
      <trkpt lat="45.86799" lon="4.80719">
        <ele>401.60000610352</ele>
        <time>2016-09-09T20:56:43.000Z</time>
      </trkpt>
      <trkpt lat="45.86789" lon="4.80742">
        <ele>398.20001220703</ele>
        <time>2016-09-09T20:56:59.000Z</time>
      </trkpt>
      <trkpt lat="45.86772" lon="4.80732">
        <ele>395</ele>
        <time>2016-09-09T20:57:13.000Z</time>
      </trkpt>
      <trkpt lat="45.86755" lon="4.8072">
        <ele>392</ele>
        <time>2016-09-09T20:57:24.000Z</time>
      </trkpt>
      <trkpt lat="45.8674" lon="4.80709">
        <ele>389.60000610352</ele>
        <time>2016-09-09T20:57:33.000Z</time>
      </trkpt>
      <trkpt lat="45.8673" lon="4.8072">
        <ele>386.20001220703</ele>
        <time>2016-09-09T20:57:42.000Z</time>
      </trkpt>
      <trkpt lat="45.86726" lon="4.80735">
        <ele>383.39999389648</ele>
        <time>2016-09-09T20:57:50.000Z</time>
      </trkpt>
      <trkpt lat="45.86724" lon="4.80747">
        <ele>381.39999389648</ele>
        <time>2016-09-09T20:57:57.000Z</time>
      </trkpt>
      <trkpt lat="45.86728" lon="4.80773">
        <ele>379.20001220703</ele>
        <time>2016-09-09T20:58:05.000Z</time>
      </trkpt>
      <trkpt lat="45.86725" lon="4.80788">
        <ele>376.60000610352</ele>
        <time>2016-09-09T20:58:08.000Z</time>
      </trkpt>
      <trkpt lat="45.86725" lon="4.80816">
        <ele>372.79998779297</ele>
        <time>2016-09-09T20:58:15.000Z</time>
      </trkpt>
      <trkpt lat="45.86731" lon="4.80836">
        <ele>372</ele>
        <time>2016-09-09T20:58:24.000Z</time>
      </trkpt>
      <trkpt lat="45.86735" lon="4.80862">
        <ele>369.39999389648</ele>
        <time>2016-09-09T20:58:35.000Z</time>
      </trkpt>
      <trkpt lat="45.86738" lon="4.80888">
        <ele>367.60000610352</ele>
        <time>2016-09-09T20:58:45.000Z</time>
      </trkpt>
      <trkpt lat="45.86741" lon="4.80893">
        <ele>368</ele>
        <time>2016-09-09T20:58:47.000Z</time>
      </trkpt>
      <trkpt lat="45.86745" lon="4.80921">
        <ele>364</ele>
        <time>2016-09-09T20:58:55.000Z</time>
      </trkpt>
      <trkpt lat="45.86756" lon="4.80944">
        <ele>364</ele>
        <time>2016-09-09T20:59:03.000Z</time>
      </trkpt>
      <trkpt lat="45.86756" lon="4.80949">
        <ele>362.60000610352</ele>
        <time>2016-09-09T20:59:04.000Z</time>
      </trkpt>
      <trkpt lat="45.86753" lon="4.8098">
        <ele>356.39999389648</ele>
        <time>2016-09-09T20:59:12.000Z</time>
      </trkpt>
      <trkpt lat="45.86742" lon="4.80994">
        <ele>348.60000610352</ele>
        <time>2016-09-09T20:59:16.000Z</time>
      </trkpt>
      <trkpt lat="45.86723" lon="4.81011">
        <ele>336.20001220703</ele>
        <time>2016-09-09T20:59:22.000Z</time>
      </trkpt>
      <trkpt lat="45.86721" lon="4.81013">
        <ele>335</ele>
        <time>2016-09-09T20:59:23.000Z</time>
      </trkpt>
      <trkpt lat="45.8671" lon="4.81038">
        <ele>328</ele>
        <time>2016-09-09T20:59:27.000Z</time>
      </trkpt>
      <trkpt lat="45.8671" lon="4.81067">
        <ele>324</ele>
        <time>2016-09-09T20:59:33.000Z</time>
      </trkpt>
      <trkpt lat="45.86718" lon="4.81092">
        <ele>322.79998779297</ele>
        <time>2016-09-09T20:59:40.000Z</time>
      </trkpt>
      <trkpt lat="45.86722" lon="4.8112">
        <ele>320</ele>
        <time>2016-09-09T20:59:46.000Z</time>
      </trkpt>
      <trkpt lat="45.86729" lon="4.81146">
        <ele>319</ele>
        <time>2016-09-09T20:59:52.000Z</time>
      </trkpt>
      <trkpt lat="45.86736" lon="4.81171">
        <ele>318.20001220703</ele>
        <time>2016-09-09T20:59:58.000Z</time>
      </trkpt>
      <trkpt lat="45.8674" lon="4.81199">
        <ele>315.39999389648</ele>
        <time>2016-09-09T21:00:04.000Z</time>
      </trkpt>
      <trkpt lat="45.8675" lon="4.81222">
        <ele>315.79998779297</ele>
        <time>2016-09-09T21:00:11.000Z</time>
      </trkpt>
      <trkpt lat="45.86757" lon="4.81247">
        <ele>314.20001220703</ele>
        <time>2016-09-09T21:00:18.000Z</time>
      </trkpt>
      <trkpt lat="45.86766" lon="4.8127">
        <ele>313.79998779297</ele>
        <time>2016-09-09T21:00:24.000Z</time>
      </trkpt>
      <trkpt lat="45.86775" lon="4.81293">
        <ele>313.39999389648</ele>
        <time>2016-09-09T21:00:30.000Z</time>
      </trkpt>
      <trkpt lat="45.86784" lon="4.81319">
        <ele>311</ele>
        <time>2016-09-09T21:00:36.000Z</time>
      </trkpt>
      <trkpt lat="45.86792" lon="4.81346">
        <ele>307.60000610352</ele>
        <time>2016-09-09T21:00:42.000Z</time>
      </trkpt>
      <trkpt lat="45.86792" lon="4.81377">
        <ele>300.60000610352</ele>
        <time>2016-09-09T21:00:48.000Z</time>
      </trkpt>
      <trkpt lat="45.86801" lon="4.81403">
        <ele>299.39999389648</ele>
        <time>2016-09-09T21:00:54.000Z</time>
      </trkpt>
      <trkpt lat="45.86816" lon="4.8142">
        <ele>302.60000610352</ele>
        <time>2016-09-09T21:01:00.000Z</time>
      </trkpt>
      <trkpt lat="45.86826" lon="4.81445">
        <ele>301.79998779297</ele>
        <time>2016-09-09T21:01:06.000Z</time>
      </trkpt>
      <trkpt lat="45.8684" lon="4.81462">
        <ele>305</ele>
        <time>2016-09-09T21:01:12.000Z</time>
      </trkpt>
      <trkpt lat="45.86849" lon="4.8149">
        <ele>304.20001220703</ele>
        <time>2016-09-09T21:01:20.000Z</time>
      </trkpt>
      <trkpt lat="45.8685" lon="4.81518">
        <ele>300</ele>
        <time>2016-09-09T21:01:26.000Z</time>
      </trkpt>
      <trkpt lat="45.86843" lon="4.81553">
        <ele>291.20001220703</ele>
        <time>2016-09-09T21:01:31.000Z</time>
      </trkpt>
      <trkpt lat="45.86838" lon="4.81581">
        <ele>284.39999389648</ele>
        <time>2016-09-09T21:01:35.000Z</time>
      </trkpt>
      <trkpt lat="45.86839" lon="4.8161">
        <ele>280.60000610352</ele>
        <time>2016-09-09T21:01:41.000Z</time>
      </trkpt>
      <trkpt lat="45.8684" lon="4.81637">
        <ele>276.39999389648</ele>
        <time>2016-09-09T21:01:48.000Z</time>
      </trkpt>
      <trkpt lat="45.86844" lon="4.8167">
        <ele>271.39999389648</ele>
        <time>2016-09-09T21:01:57.000Z</time>
      </trkpt>
      <trkpt lat="45.86835" lon="4.81695">
        <ele>264.79998779297</ele>
        <time>2016-09-09T21:02:00.000Z</time>
      </trkpt>
      <trkpt lat="45.86833" lon="4.81703">
        <ele>262.79998779297</ele>
        <time>2016-09-09T21:02:01.000Z</time>
      </trkpt>
      <trkpt lat="45.86827" lon="4.81731">
        <ele>254.39999389648</ele>
        <time>2016-09-09T21:02:05.000Z</time>
      </trkpt>
      <trkpt lat="45.86828" lon="4.81757">
        <ele>249.80000305176</ele>
        <time>2016-09-09T21:02:10.000Z</time>
      </trkpt>
      <trkpt lat="45.86832" lon="4.81787">
        <ele>245.19999694824</ele>
        <time>2016-09-09T21:02:16.000Z</time>
      </trkpt>
      <trkpt lat="45.86835" lon="4.81815">
        <ele>238.60000610352</ele>
        <time>2016-09-09T21:02:21.000Z</time>
      </trkpt>
      <trkpt lat="45.86841" lon="4.81841">
        <ele>236.19999694824</ele>
        <time>2016-09-09T21:02:27.000Z</time>
      </trkpt>
      <trkpt lat="45.86851" lon="4.81864">
        <ele>234.80000305176</ele>
        <time>2016-09-09T21:02:33.000Z</time>
      </trkpt>
      <trkpt lat="45.8686" lon="4.81886">
        <ele>232.60000610352</ele>
        <time>2016-09-09T21:02:39.000Z</time>
      </trkpt>
      <trkpt lat="45.86872" lon="4.81908">
        <ele>230.39999389648</ele>
        <time>2016-09-09T21:02:46.000Z</time>
      </trkpt>
      <trkpt lat="45.86883" lon="4.81933">
        <ele>227.80000305176</ele>
        <time>2016-09-09T21:02:53.000Z</time>
      </trkpt>
      <trkpt lat="45.86887" lon="4.81939">
        <ele>227.19999694824</ele>
        <time>2016-09-09T21:02:57.000Z</time>
      </trkpt>
      <trkpt lat="45.8688" lon="4.81945">
        <ele>225.60000610352</ele>
        <time>2016-09-09T21:03:47.000Z</time>
      </trkpt>
      <trkpt lat="45.86861" lon="4.81947">
        <ele>227.80000305176</ele>
        <time>2016-09-09T21:03:55.000Z</time>
      </trkpt>
      <trkpt lat="45.86844" lon="4.81954">
        <ele>230.39999389648</ele>
        <time>2016-09-09T21:04:03.000Z</time>
      </trkpt>
      <trkpt lat="45.86825" lon="4.8196">
        <ele>232.80000305176</ele>
        <time>2016-09-09T21:04:16.000Z</time>
      </trkpt>
      <trkpt lat="45.86808" lon="4.8197">
        <ele>236.19999694824</ele>
        <time>2016-09-09T21:04:31.000Z</time>
      </trkpt>
      <trkpt lat="45.8679" lon="4.81974">
        <ele>239.19999694824</ele>
        <time>2016-09-09T21:04:43.000Z</time>
      </trkpt>
      <trkpt lat="45.86774" lon="4.81983">
        <ele>242.60000610352</ele>
        <time>2016-09-09T21:04:54.000Z</time>
      </trkpt>
      <trkpt lat="45.8676" lon="4.81991">
        <ele>245.39999389648</ele>
        <time>2016-09-09T21:05:01.000Z</time>
      </trkpt>
      <trkpt lat="45.86743" lon="4.81998">
        <ele>248.39999389648</ele>
        <time>2016-09-09T21:05:10.000Z</time>
      </trkpt>
      <trkpt lat="45.86741" lon="4.81999">
        <ele>248.80000305176</ele>
        <time>2016-09-09T21:05:11.000Z</time>
      </trkpt>
      <trkpt lat="45.86722" lon="4.82001">
        <ele>251.60000610352</ele>
        <time>2016-09-09T21:05:23.000Z</time>
      </trkpt>
      <trkpt lat="45.86709" lon="4.82003">
        <ele>255.19999694824</ele>
        <time>2016-09-09T21:05:33.000Z</time>
      </trkpt>
      <trkpt lat="45.86709" lon="4.82012">
        <ele>256</ele>
        <time>2016-09-09T21:05:41.000Z</time>
      </trkpt>
      <trkpt lat="45.86713" lon="4.82015">
        <ele>255.39999389648</ele>
        <time>2016-09-09T21:05:44.000Z</time>
      </trkpt>
      <trkpt lat="45.8672" lon="4.82018">
        <ele>253.80000305176</ele>
        <time>2016-09-09T21:05:48.000Z</time>
      </trkpt>
      <trkpt lat="45.86738" lon="4.82021">
        <ele>251.19999694824</ele>
        <time>2016-09-09T21:05:57.000Z</time>
      </trkpt>
      <trkpt lat="45.86759" lon="4.82021">
        <ele>248.60000610352</ele>
        <time>2016-09-09T21:06:09.000Z</time>
      </trkpt>
      <trkpt lat="45.86778" lon="4.82028">
        <ele>246.60000610352</ele>
        <time>2016-09-09T21:06:18.000Z</time>
      </trkpt>
      <trkpt lat="45.86795" lon="4.82043">
        <ele>246.19999694824</ele>
        <time>2016-09-09T21:06:28.000Z</time>
      </trkpt>
      <trkpt lat="45.86801" lon="4.82051">
        <ele>246.19999694824</ele>
        <time>2016-09-09T21:06:32.000Z</time>
      </trkpt>
      <trkpt lat="45.86798" lon="4.8206">
        <ele>247.80000305176</ele>
        <time>2016-09-09T21:06:39.000Z</time>
      </trkpt>
      <trkpt lat="45.86781" lon="4.82059">
        <ele>250</ele>
        <time>2016-09-09T21:06:57.000Z</time>
      </trkpt>
      <trkpt lat="45.86761" lon="4.82056">
        <ele>252.19999694824</ele>
        <time>2016-09-09T21:07:07.000Z</time>
      </trkpt>
      <trkpt lat="45.86743" lon="4.82061">
        <ele>255.39999389648</ele>
        <time>2016-09-09T21:07:16.000Z</time>
      </trkpt>
      <trkpt lat="45.86725" lon="4.8207">
        <ele>258.39999389648</ele>
        <time>2016-09-09T21:07:28.000Z</time>
      </trkpt>
      <trkpt lat="45.86724" lon="4.8207">
        <ele>258.60000610352</ele>
        <time>2016-09-09T21:07:29.000Z</time>
      </trkpt>
      <trkpt lat="45.86704" lon="4.82073">
        <ele>261</ele>
        <time>2016-09-09T21:07:43.000Z</time>
      </trkpt>
      <trkpt lat="45.86686" lon="4.82072">
        <ele>262.39999389648</ele>
        <time>2016-09-09T21:07:53.000Z</time>
      </trkpt>
      <trkpt lat="45.86667" lon="4.82073">
        <ele>264.60000610352</ele>
        <time>2016-09-09T21:08:04.000Z</time>
      </trkpt>
      <trkpt lat="45.86648" lon="4.82075">
        <ele>266.79998779297</ele>
        <time>2016-09-09T21:08:15.000Z</time>
      </trkpt>
      <trkpt lat="45.8664" lon="4.82075">
        <ele>267.60000610352</ele>
        <time>2016-09-09T21:08:19.000Z</time>
      </trkpt>
      <trkpt lat="45.86622" lon="4.82073">
        <ele>268.39999389648</ele>
        <time>2016-09-09T21:08:32.000Z</time>
      </trkpt>
      <trkpt lat="45.86613" lon="4.82067">
        <ele>268</ele>
        <time>2016-09-09T21:08:36.000Z</time>
      </trkpt>
      <trkpt lat="45.86597" lon="4.82053">
        <ele>267</ele>
        <time>2016-09-09T21:08:43.000Z</time>
      </trkpt>
      <trkpt lat="45.86582" lon="4.82039">
        <ele>265.79998779297</ele>
        <time>2016-09-09T21:08:49.000Z</time>
      </trkpt>
      <trkpt lat="45.86564" lon="4.82025">
        <ele>268.20001220703</ele>
        <time>2016-09-09T21:08:56.000Z</time>
      </trkpt>
      <trkpt lat="45.86548" lon="4.82011">
        <ele>271</ele>
        <time>2016-09-09T21:09:03.000Z</time>
      </trkpt>
      <trkpt lat="45.86532" lon="4.81995">
        <ele>274.20001220703</ele>
        <time>2016-09-09T21:09:11.000Z</time>
      </trkpt>
      <trkpt lat="45.86519" lon="4.81975">
        <ele>277.79998779297</ele>
        <time>2016-09-09T21:09:18.000Z</time>
      </trkpt>
      <trkpt lat="45.86516" lon="4.81949">
        <ele>281.39999389648</ele>
        <time>2016-09-09T21:09:26.000Z</time>
      </trkpt>
      <trkpt lat="45.86514" lon="4.81945">
        <ele>282.20001220703</ele>
        <time>2016-09-09T21:09:28.000Z</time>
      </trkpt>
      <trkpt lat="45.86507" lon="4.81936">
        <ele>284.39999389648</ele>
        <time>2016-09-09T21:09:32.000Z</time>
      </trkpt>
      <trkpt lat="45.86488" lon="4.81937">
        <ele>285.79998779297</ele>
        <time>2016-09-09T21:09:42.000Z</time>
      </trkpt>
      <trkpt lat="45.86469" lon="4.81939">
        <ele>286.79998779297</ele>
        <time>2016-09-09T21:09:53.000Z</time>
      </trkpt>
      <trkpt lat="45.86452" lon="4.81932">
        <ele>288.20001220703</ele>
        <time>2016-09-09T21:10:04.000Z</time>
      </trkpt>
      <trkpt lat="45.8644" lon="4.81926">
        <ele>289.39999389648</ele>
        <time>2016-09-09T21:10:12.000Z</time>
      </trkpt>
      <trkpt lat="45.86424" lon="4.81912">
        <ele>291.79998779297</ele>
        <time>2016-09-09T21:10:21.000Z</time>
      </trkpt>
      <trkpt lat="45.8642" lon="4.81911">
        <ele>292.20001220703</ele>
        <time>2016-09-09T21:10:23.000Z</time>
      </trkpt>
      <trkpt lat="45.86404" lon="4.81902">
        <ele>294</ele>
        <time>2016-09-09T21:10:33.000Z</time>
      </trkpt>
      <trkpt lat="45.86387" lon="4.81892">
        <ele>295.79998779297</ele>
        <time>2016-09-09T21:10:44.000Z</time>
      </trkpt>
      <trkpt lat="45.86377" lon="4.8187">
        <ele>298.60000610352</ele>
        <time>2016-09-09T21:10:54.000Z</time>
      </trkpt>
      <trkpt lat="45.86382" lon="4.81853">
        <ele>301.39999389648</ele>
        <time>2016-09-09T21:11:08.000Z</time>
      </trkpt>
      <trkpt lat="45.86384" lon="4.81849">
        <ele>302.20001220703</ele>
        <time>2016-09-09T21:11:11.000Z</time>
      </trkpt>
      <trkpt lat="45.86397" lon="4.81833">
        <ele>305</ele>
        <time>2016-09-09T21:11:45.000Z</time>
      </trkpt>
      <trkpt lat="45.86405" lon="4.8181">
        <ele>308.60000610352</ele>
        <time>2016-09-09T21:12:09.000Z</time>
      </trkpt>
      <trkpt lat="45.86416" lon="4.8179">
        <ele>308.60000610352</ele>
        <time>2016-09-09T21:12:36.000Z</time>
      </trkpt>
      <trkpt lat="45.86418" lon="4.81763">
        <ele>312.79998779297</ele>
        <time>2016-09-09T21:12:51.000Z</time>
      </trkpt>
      <trkpt lat="45.8642" lon="4.81737">
        <ele>317</ele>
        <time>2016-09-09T21:13:03.000Z</time>
      </trkpt>
      <trkpt lat="45.8642" lon="4.81709">
        <ele>318.60000610352</ele>
        <time>2016-09-09T21:13:14.000Z</time>
      </trkpt>
      <trkpt lat="45.8642" lon="4.81699">
        <ele>319.20001220703</ele>
        <time>2016-09-09T21:13:18.000Z</time>
      </trkpt>
      <trkpt lat="45.8642" lon="4.81686">
        <ele>320</ele>
        <time>2016-09-09T21:13:24.000Z</time>
      </trkpt>
      <trkpt lat="45.86427" lon="4.81662">
        <ele>320</ele>
        <time>2016-09-09T21:13:38.000Z</time>
      </trkpt>
      <trkpt lat="45.86429" lon="4.81657">
        <ele>319.60000610352</ele>
        <time>2016-09-09T21:13:41.000Z</time>
      </trkpt>
      <trkpt lat="45.86432" lon="4.81648">
        <ele>318.20001220703</ele>
        <time>2016-09-09T21:13:45.000Z</time>
      </trkpt>
      <trkpt lat="45.86433" lon="4.81644">
        <ele>317.60000610352</ele>
        <time>2016-09-09T21:13:48.000Z</time>
      </trkpt>
      <trkpt lat="45.86432" lon="4.81619">
        <ele>316.79998779297</ele>
        <time>2016-09-09T21:13:59.000Z</time>
      </trkpt>
      <trkpt lat="45.86433" lon="4.81614">
        <ele>315.20001220703</ele>
        <time>2016-09-09T21:14:01.000Z</time>
      </trkpt>
      <trkpt lat="45.86427" lon="4.81589">
        <ele>312.39999389648</ele>
        <time>2016-09-09T21:14:13.000Z</time>
      </trkpt>
      <trkpt lat="45.8642" lon="4.81575">
        <ele>311.79998779297</ele>
        <time>2016-09-09T21:14:21.000Z</time>
      </trkpt>
      <trkpt lat="45.8641" lon="4.81581">
        <ele>316.39999389648</ele>
        <time>2016-09-09T21:14:41.000Z</time>
      </trkpt>
      <trkpt lat="45.8641" lon="4.81583">
        <ele>316.79998779297</ele>
        <time>2016-09-09T21:14:42.000Z</time>
      </trkpt>
      <trkpt lat="45.8641" lon="4.8159">
        <ele>318.39999389648</ele>
        <time>2016-09-09T21:14:47.000Z</time>
      </trkpt>
      <trkpt lat="45.86409" lon="4.81595">
        <ele>319.60000610352</ele>
        <time>2016-09-09T21:14:51.000Z</time>
      </trkpt>
      <trkpt lat="45.86395" lon="4.81613">
        <ele>328</ele>
        <time>2016-09-09T21:15:03.000Z</time>
      </trkpt>
      <trkpt lat="45.8638" lon="4.81617">
        <ele>333.20001220703</ele>
        <time>2016-09-09T21:15:16.000Z</time>
      </trkpt>
      <trkpt lat="45.86367" lon="4.81602">
        <ele>334</ele>
        <time>2016-09-09T21:15:32.000Z</time>
      </trkpt>
      <trkpt lat="45.86363" lon="4.81592">
        <ele>333.60000610352</ele>
        <time>2016-09-09T21:15:39.000Z</time>
      </trkpt>
      <trkpt lat="45.86361" lon="4.81589">
        <ele>333.39999389648</ele>
        <time>2016-09-09T21:15:42.000Z</time>
      </trkpt>
      <trkpt lat="45.86358" lon="4.8158">
        <ele>332.60000610352</ele>
        <time>2016-09-09T21:15:47.000Z</time>
      </trkpt>
      <trkpt lat="45.8635" lon="4.81572">
        <ele>333.39999389648</ele>
        <time>2016-09-09T21:15:55.000Z</time>
      </trkpt>
      <trkpt lat="45.86342" lon="4.81569">
        <ele>334.79998779297</ele>
        <time>2016-09-09T21:16:00.000Z</time>
      </trkpt>
      <trkpt lat="45.86325" lon="4.81558">
        <ele>337.39999389648</ele>
        <time>2016-09-09T21:16:13.000Z</time>
      </trkpt>
      <trkpt lat="45.86313" lon="4.81548">
        <ele>338.60000610352</ele>
        <time>2016-09-09T21:16:24.000Z</time>
      </trkpt>
      <trkpt lat="45.86307" lon="4.81545">
        <ele>339.39999389648</ele>
        <time>2016-09-09T21:16:28.000Z</time>
      </trkpt>
      <trkpt lat="45.86288" lon="4.81536">
        <ele>340.39999389648</ele>
        <time>2016-09-09T21:16:38.000Z</time>
      </trkpt>
      <trkpt lat="45.86272" lon="4.81523">
        <ele>337.39999389648</ele>
        <time>2016-09-09T21:16:46.000Z</time>
      </trkpt>
      <trkpt lat="45.86253" lon="4.81516">
        <ele>337.39999389648</ele>
        <time>2016-09-09T21:16:55.000Z</time>
      </trkpt>
      <trkpt lat="45.86236" lon="4.81506">
        <ele>335.39999389648</ele>
        <time>2016-09-09T21:17:04.000Z</time>
      </trkpt>
      <trkpt lat="45.86217" lon="4.81497">
        <ele>334.39999389648</ele>
        <time>2016-09-09T21:17:12.000Z</time>
      </trkpt>
      <trkpt lat="45.86198" lon="4.81488">
        <ele>333.39999389648</ele>
        <time>2016-09-09T21:17:20.000Z</time>
      </trkpt>
      <trkpt lat="45.86179" lon="4.8148">
        <ele>333.39999389648</ele>
        <time>2016-09-09T21:17:27.000Z</time>
      </trkpt>
      <trkpt lat="45.8616" lon="4.81472">
        <ele>332.79998779297</ele>
        <time>2016-09-09T21:17:35.000Z</time>
      </trkpt>
      <trkpt lat="45.86142" lon="4.81465">
        <ele>331.39999389648</ele>
        <time>2016-09-09T21:17:43.000Z</time>
      </trkpt>
      <trkpt lat="45.86124" lon="4.81456">
        <ele>331.20001220703</ele>
        <time>2016-09-09T21:17:51.000Z</time>
      </trkpt>
      <trkpt lat="45.86105" lon="4.81447">
        <ele>330.79998779297</ele>
        <time>2016-09-09T21:17:59.000Z</time>
      </trkpt>
      <trkpt lat="45.86085" lon="4.81439">
        <ele>330.39999389648</ele>
        <time>2016-09-09T21:18:07.000Z</time>
      </trkpt>
      <trkpt lat="45.86068" lon="4.81436">
        <ele>331.60000610352</ele>
        <time>2016-09-09T21:18:15.000Z</time>
      </trkpt>
      <trkpt lat="45.86049" lon="4.81429">
        <ele>333</ele>
        <time>2016-09-09T21:18:25.000Z</time>
      </trkpt>
      <trkpt lat="45.8603" lon="4.81424">
        <ele>337</ele>
        <time>2016-09-09T21:18:33.000Z</time>
      </trkpt>
      <trkpt lat="45.86012" lon="4.81415">
        <ele>338.79998779297</ele>
        <time>2016-09-09T21:18:42.000Z</time>
      </trkpt>
      <trkpt lat="45.85993" lon="4.81404">
        <ele>339.20001220703</ele>
        <time>2016-09-09T21:18:50.000Z</time>
      </trkpt>
      <trkpt lat="45.85977" lon="4.81391">
        <ele>339</ele>
        <time>2016-09-09T21:18:59.000Z</time>
      </trkpt>
      <trkpt lat="45.85959" lon="4.81381">
        <ele>341.60000610352</ele>
        <time>2016-09-09T21:19:09.000Z</time>
      </trkpt>
      <trkpt lat="45.85941" lon="4.8137">
        <ele>344.60000610352</ele>
        <time>2016-09-09T21:19:17.000Z</time>
      </trkpt>
      <trkpt lat="45.85924" lon="4.81359">
        <ele>347.60000610352</ele>
        <time>2016-09-09T21:19:27.000Z</time>
      </trkpt>
      <trkpt lat="45.85923" lon="4.81359">
        <ele>348</ele>
        <time>2016-09-09T21:19:28.000Z</time>
      </trkpt>
      <trkpt lat="45.85906" lon="4.81372">
        <ele>356.60000610352</ele>
        <time>2016-09-09T21:19:40.000Z</time>
      </trkpt>
      <trkpt lat="45.85905" lon="4.81373">
        <ele>357.20001220703</ele>
        <time>2016-09-09T21:19:41.000Z</time>
      </trkpt>
      <trkpt lat="45.85897" lon="4.8138">
        <ele>361.39999389648</ele>
        <time>2016-09-09T21:19:48.000Z</time>
      </trkpt>
      <trkpt lat="45.85892" lon="4.81383">
        <ele>362.20001220703</ele>
        <time>2016-09-09T21:19:52.000Z</time>
      </trkpt>
      <trkpt lat="45.85886" lon="4.81389">
        <ele>363.79998779297</ele>
        <time>2016-09-09T21:19:59.000Z</time>
      </trkpt>
      <trkpt lat="45.85879" lon="4.81396">
        <ele>366</ele>
        <time>2016-09-09T21:20:07.000Z</time>
      </trkpt>
      <trkpt lat="45.85868" lon="4.81399">
        <ele>369</ele>
        <time>2016-09-09T21:20:19.000Z</time>
      </trkpt>
      <trkpt lat="45.85848" lon="4.81402">
        <ele>374.39999389648</ele>
        <time>2016-09-09T21:20:38.000Z</time>
      </trkpt>
      <trkpt lat="45.85843" lon="4.81406">
        <ele>375.79998779297</ele>
        <time>2016-09-09T21:20:47.000Z</time>
      </trkpt>
      <trkpt lat="45.85839" lon="4.81407">
        <ele>377</ele>
        <time>2016-09-09T21:20:51.000Z</time>
      </trkpt>
      <trkpt lat="45.85838" lon="4.81408">
        <ele>377.20001220703</ele>
        <time>2016-09-09T21:20:52.000Z</time>
      </trkpt>
      <trkpt lat="45.85832" lon="4.81413">
        <ele>379.39999389648</ele>
        <time>2016-09-09T21:21:03.000Z</time>
      </trkpt>
      <trkpt lat="45.85825" lon="4.81418">
        <ele>382</ele>
        <time>2016-09-09T21:21:11.000Z</time>
      </trkpt>
      <trkpt lat="45.85806" lon="4.81424">
        <ele>388</ele>
        <time>2016-09-09T21:21:39.000Z</time>
      </trkpt>
      <trkpt lat="45.85798" lon="4.81424">
        <ele>389.60000610352</ele>
        <time>2016-09-09T21:21:49.000Z</time>
      </trkpt>
      <trkpt lat="45.85793" lon="4.81421">
        <ele>390.20001220703</ele>
        <time>2016-09-09T21:21:55.000Z</time>
      </trkpt>
      <trkpt lat="45.85785" lon="4.81422">
        <ele>391.79998779297</ele>
        <time>2016-09-09T21:22:03.000Z</time>
      </trkpt>
      <trkpt lat="45.85784" lon="4.81423">
        <ele>392</ele>
        <time>2016-09-09T21:22:04.000Z</time>
      </trkpt>
      <trkpt lat="45.85778" lon="4.81421">
        <ele>393.20001220703</ele>
        <time>2016-09-09T21:22:11.000Z</time>
      </trkpt>
      <trkpt lat="45.85759" lon="4.81414">
        <ele>396.20001220703</ele>
        <time>2016-09-09T21:22:29.000Z</time>
      </trkpt>
      <trkpt lat="45.85752" lon="4.81407">
        <ele>396.79998779297</ele>
        <time>2016-09-09T21:22:36.000Z</time>
      </trkpt>
      <trkpt lat="45.85745" lon="4.81405">
        <ele>398.39999389648</ele>
        <time>2016-09-09T21:22:44.000Z</time>
      </trkpt>
      <trkpt lat="45.85729" lon="4.81399">
        <ele>401.20001220703</ele>
        <time>2016-09-09T21:23:00.000Z</time>
      </trkpt>
      <trkpt lat="45.85721" lon="4.81397">
        <ele>402.60000610352</ele>
        <time>2016-09-09T21:23:07.000Z</time>
      </trkpt>
      <trkpt lat="45.85714" lon="4.81391">
        <ele>403.20001220703</ele>
        <time>2016-09-09T21:23:15.000Z</time>
      </trkpt>
      <trkpt lat="45.85696" lon="4.81385">
        <ele>405.60000610352</ele>
        <time>2016-09-09T21:23:27.000Z</time>
      </trkpt>
      <trkpt lat="45.85695" lon="4.81384">
        <ele>405.60000610352</ele>
        <time>2016-09-09T21:23:28.000Z</time>
      </trkpt>
      <trkpt lat="45.85678" lon="4.81372">
        <ele>407</ele>
        <time>2016-09-09T21:23:43.000Z</time>
      </trkpt>
      <trkpt lat="45.85661" lon="4.8136">
        <ele>406.20001220703</ele>
        <time>2016-09-09T21:23:56.000Z</time>
      </trkpt>
      <trkpt lat="45.85643" lon="4.81351">
        <ele>406.20001220703</ele>
        <time>2016-09-09T21:24:09.000Z</time>
      </trkpt>
      <trkpt lat="45.85626" lon="4.8134">
        <ele>407.39999389648</ele>
        <time>2016-09-09T21:24:22.000Z</time>
      </trkpt>
      <trkpt lat="45.85609" lon="4.81331">
        <ele>409.60000610352</ele>
        <time>2016-09-09T21:24:37.000Z</time>
      </trkpt>
      <trkpt lat="45.85592" lon="4.81322">
        <ele>411.60000610352</ele>
        <time>2016-09-09T21:24:49.000Z</time>
      </trkpt>
      <trkpt lat="45.85573" lon="4.81316">
        <ele>413.60000610352</ele>
        <time>2016-09-09T21:24:59.000Z</time>
      </trkpt>
      <trkpt lat="45.85555" lon="4.81305">
        <ele>414.39999389648</ele>
        <time>2016-09-09T21:25:09.000Z</time>
      </trkpt>
      <trkpt lat="45.85538" lon="4.81298">
        <ele>417.60000610352</ele>
        <time>2016-09-09T21:25:20.000Z</time>
      </trkpt>
      <trkpt lat="45.8552" lon="4.81293">
        <ele>421.39999389648</ele>
        <time>2016-09-09T21:25:31.000Z</time>
      </trkpt>
      <trkpt lat="45.85513" lon="4.81285">
        <ele>421</ele>
        <time>2016-09-09T21:25:36.000Z</time>
      </trkpt>
      <trkpt lat="45.85503" lon="4.81266">
        <ele>416.79998779297</ele>
        <time>2016-09-09T21:25:44.000Z</time>
      </trkpt>
      <trkpt lat="45.85491" lon="4.81246">
        <ele>412.79998779297</ele>
        <time>2016-09-09T21:25:53.000Z</time>
      </trkpt>
      <trkpt lat="45.85485" lon="4.81234">
        <ele>410.20001220703</ele>
        <time>2016-09-09T21:25:59.000Z</time>
      </trkpt>
      <trkpt lat="45.85476" lon="4.81212">
        <ele>404.60000610352</ele>
        <time>2016-09-09T21:26:08.000Z</time>
      </trkpt>
      <trkpt lat="45.85474" lon="4.81207">
        <ele>403.39999389648</ele>
        <time>2016-09-09T21:26:10.000Z</time>
      </trkpt>
      <trkpt lat="45.85462" lon="4.81184">
        <ele>399.20001220703</ele>
        <time>2016-09-09T21:26:20.000Z</time>
      </trkpt>
      <trkpt lat="45.8545" lon="4.81162">
        <ele>395.79998779297</ele>
        <time>2016-09-09T21:26:27.000Z</time>
      </trkpt>
      <trkpt lat="45.85437" lon="4.8114">
        <ele>392.39999389648</ele>
        <time>2016-09-09T21:26:34.000Z</time>
      </trkpt>
      <trkpt lat="45.85424" lon="4.81117">
        <ele>389</ele>
        <time>2016-09-09T21:26:41.000Z</time>
      </trkpt>
      <trkpt lat="45.85411" lon="4.81097">
        <ele>386.79998779297</ele>
        <time>2016-09-09T21:26:48.000Z</time>
      </trkpt>
      <trkpt lat="45.85398" lon="4.81073">
        <ele>383.39999389648</ele>
        <time>2016-09-09T21:26:57.000Z</time>
      </trkpt>
      <trkpt lat="45.85389" lon="4.8105">
        <ele>379</ele>
        <time>2016-09-09T21:27:04.000Z</time>
      </trkpt>
      <trkpt lat="45.85382" lon="4.81024">
        <ele>374.79998779297</ele>
        <time>2016-09-09T21:27:10.000Z</time>
      </trkpt>
      <trkpt lat="45.85374" lon="4.80999">
        <ele>373</ele>
        <time>2016-09-09T21:27:17.000Z</time>
      </trkpt>
      <trkpt lat="45.85369" lon="4.80973">
        <ele>369.79998779297</ele>
        <time>2016-09-09T21:27:26.000Z</time>
      </trkpt>
      <trkpt lat="45.85364" lon="4.80961">
        <ele>369.20001220703</ele>
        <time>2016-09-09T21:27:31.000Z</time>
      </trkpt>
      <trkpt lat="45.85358" lon="4.80959">
        <ele>370.60000610352</ele>
        <time>2016-09-09T21:27:36.000Z</time>
      </trkpt>
      <trkpt lat="45.85357" lon="4.80959">
        <ele>371</ele>
        <time>2016-09-09T21:27:38.000Z</time>
      </trkpt>
      <trkpt lat="45.85349" lon="4.8096">
        <ele>373.79998779297</ele>
        <time>2016-09-09T21:27:46.000Z</time>
      </trkpt>
      <trkpt lat="45.8533" lon="4.80961">
        <ele>380</ele>
        <time>2016-09-09T21:28:02.000Z</time>
      </trkpt>
      <trkpt lat="45.85322" lon="4.80956">
        <ele>381.79998779297</ele>
        <time>2016-09-09T21:28:10.000Z</time>
      </trkpt>
      <trkpt lat="45.8532" lon="4.80954">
        <ele>382.39999389648</ele>
        <time>2016-09-09T21:28:13.000Z</time>
      </trkpt>
      <trkpt lat="45.85301" lon="4.80949">
        <ele>387.60000610352</ele>
        <time>2016-09-09T21:28:25.000Z</time>
      </trkpt>
      <trkpt lat="45.8529" lon="4.80946">
        <ele>390.79998779297</ele>
        <time>2016-09-09T21:28:32.000Z</time>
      </trkpt>
      <trkpt lat="45.85279" lon="4.80941">
        <ele>393.79998779297</ele>
        <time>2016-09-09T21:28:39.000Z</time>
      </trkpt>
      <trkpt lat="45.85272" lon="4.80936">
        <ele>395.39999389648</ele>
        <time>2016-09-09T21:28:45.000Z</time>
      </trkpt>
      <trkpt lat="45.85269" lon="4.80933">
        <ele>395.60000610352</ele>
        <time>2016-09-09T21:28:47.000Z</time>
      </trkpt>
      <trkpt lat="45.85259" lon="4.80914">
        <ele>394.60000610352</ele>
        <time>2016-09-09T21:29:01.000Z</time>
      </trkpt>
      <trkpt lat="45.85253" lon="4.80905">
        <ele>394.39999389648</ele>
        <time>2016-09-09T21:29:12.000Z</time>
      </trkpt>
      <trkpt lat="45.85245" lon="4.80904">
        <ele>397.60000610352</ele>
        <time>2016-09-09T21:29:18.000Z</time>
      </trkpt>
      <trkpt lat="45.85228" lon="4.80898">
        <ele>403</ele>
        <time>2016-09-09T21:29:32.000Z</time>
      </trkpt>
      <trkpt lat="45.85223" lon="4.80895">
        <ele>404</ele>
        <time>2016-09-09T21:29:36.000Z</time>
      </trkpt>
      <trkpt lat="45.85214" lon="4.80885">
        <ele>405.39999389648</ele>
        <time>2016-09-09T21:29:51.000Z</time>
      </trkpt>
      <trkpt lat="45.85199" lon="4.80888">
        <ele>412.79998779297</ele>
        <time>2016-09-09T21:30:21.000Z</time>
      </trkpt>
      <trkpt lat="45.85191" lon="4.80889">
        <ele>416.60000610352</ele>
        <time>2016-09-09T21:30:31.000Z</time>
      </trkpt>
      <trkpt lat="45.85173" lon="4.80887">
        <ele>424</ele>
        <time>2016-09-09T21:30:58.000Z</time>
      </trkpt>
      <trkpt lat="45.85168" lon="4.80884">
        <ele>425.39999389648</ele>
        <time>2016-09-09T21:31:05.000Z</time>
      </trkpt>
      <trkpt lat="45.85167" lon="4.80883">
        <ele>425.60000610352</ele>
        <time>2016-09-09T21:31:07.000Z</time>
      </trkpt>
      <trkpt lat="45.8516" lon="4.80883">
        <ele>428.79998779297</ele>
        <time>2016-09-09T21:31:17.000Z</time>
      </trkpt>
      <trkpt lat="45.85148" lon="4.80886">
        <ele>435.20001220703</ele>
        <time>2016-09-09T21:31:38.000Z</time>
      </trkpt>
      <trkpt lat="45.85131" lon="4.80874">
        <ele>439.79998779297</ele>
        <time>2016-09-09T21:32:02.000Z</time>
      </trkpt>
      <trkpt lat="45.85128" lon="4.80873">
        <ele>440.79998779297</ele>
        <time>2016-09-09T21:32:05.000Z</time>
      </trkpt>
      <trkpt lat="45.85116" lon="4.80863">
        <ele>444.60000610352</ele>
        <time>2016-09-09T21:32:21.000Z</time>
      </trkpt>
      <trkpt lat="45.85109" lon="4.80856">
        <ele>446.20001220703</ele>
        <time>2016-09-09T21:32:28.000Z</time>
      </trkpt>
      <trkpt lat="45.85106" lon="4.80853">
        <ele>447</ele>
        <time>2016-09-09T21:32:31.000Z</time>
      </trkpt>
      <trkpt lat="45.85103" lon="4.80849">
        <ele>447.39999389648</ele>
        <time>2016-09-09T21:32:35.000Z</time>
      </trkpt>
      <trkpt lat="45.85096" lon="4.80842">
        <ele>449.39999389648</ele>
        <time>2016-09-09T21:32:43.000Z</time>
      </trkpt>
      <trkpt lat="45.85089" lon="4.80839">
        <ele>452</ele>
        <time>2016-09-09T21:32:50.000Z</time>
      </trkpt>
      <trkpt lat="45.85086" lon="4.80834">
        <ele>452.20001220703</ele>
        <time>2016-09-09T21:32:54.000Z</time>
      </trkpt>
      <trkpt lat="45.85081" lon="4.80825">
        <ele>452.39999389648</ele>
        <time>2016-09-09T21:33:01.000Z</time>
      </trkpt>
      <trkpt lat="45.85081" lon="4.80823">
        <ele>452.20001220703</ele>
        <time>2016-09-09T21:33:02.000Z</time>
      </trkpt>
      <trkpt lat="45.85076" lon="4.80818">
        <ele>453.39999389648</ele>
        <time>2016-09-09T21:33:07.000Z</time>
      </trkpt>
      <trkpt lat="45.85073" lon="4.80813">
        <ele>453.60000610352</ele>
        <time>2016-09-09T21:33:12.000Z</time>
      </trkpt>
      <trkpt lat="45.85068" lon="4.80807">
        <ele>454.60000610352</ele>
        <time>2016-09-09T21:33:21.000Z</time>
      </trkpt>
      <trkpt lat="45.85055" lon="4.80796">
        <ele>458.20001220703</ele>
        <time>2016-09-09T21:33:34.000Z</time>
      </trkpt>
      <trkpt lat="45.85039" lon="4.80784">
        <ele>461.79998779297</ele>
        <time>2016-09-09T21:33:52.000Z</time>
      </trkpt>
      <trkpt lat="45.85025" lon="4.80768">
        <ele>465.20001220703</ele>
        <time>2016-09-09T21:34:05.000Z</time>
      </trkpt>
      <trkpt lat="45.85023" lon="4.80764">
        <ele>465.20001220703</ele>
        <time>2016-09-09T21:34:09.000Z</time>
      </trkpt>
      <trkpt lat="45.85022" lon="4.8076">
        <ele>465</ele>
        <time>2016-09-09T21:34:13.000Z</time>
      </trkpt>
      <trkpt lat="45.85019" lon="4.80756">
        <ele>465.39999389648</ele>
        <time>2016-09-09T21:34:17.000Z</time>
      </trkpt>
      <trkpt lat="45.85014" lon="4.80756">
        <ele>467.39999389648</ele>
        <time>2016-09-09T21:34:19.000Z</time>
      </trkpt>
      <trkpt lat="45.85" lon="4.80743">
        <ele>471.20001220703</ele>
        <time>2016-09-09T21:34:36.000Z</time>
      </trkpt>
      <trkpt lat="45.84988" lon="4.80724">
        <ele>473</ele>
        <time>2016-09-09T21:34:56.000Z</time>
      </trkpt>
      <trkpt lat="45.84982" lon="4.80698">
        <ele>470</ele>
        <time>2016-09-09T21:35:06.000Z</time>
      </trkpt>
      <trkpt lat="45.84972" lon="4.80677">
        <ele>471.20001220703</ele>
        <time>2016-09-09T21:35:18.000Z</time>
      </trkpt>
      <trkpt lat="45.84971" lon="4.80676">
        <ele>471.60000610352</ele>
        <time>2016-09-09T21:35:19.000Z</time>
      </trkpt>
      <trkpt lat="45.84962" lon="4.80669">
        <ele>473.79998779297</ele>
        <time>2016-09-09T21:35:24.000Z</time>
      </trkpt>
      <trkpt lat="45.84944" lon="4.80662">
        <ele>480.39999389648</ele>
        <time>2016-09-09T21:35:34.000Z</time>
      </trkpt>
      <trkpt lat="45.84925" lon="4.80655">
        <ele>486.79998779297</ele>
        <time>2016-09-09T21:35:44.000Z</time>
      </trkpt>
      <trkpt lat="45.84906" lon="4.80649">
        <ele>491.79998779297</ele>
        <time>2016-09-09T21:35:53.000Z</time>
      </trkpt>
      <trkpt lat="45.84888" lon="4.80647">
        <ele>496.20001220703</ele>
        <time>2016-09-09T21:36:00.000Z</time>
      </trkpt>
      <trkpt lat="45.8487" lon="4.80641">
        <ele>498.20001220703</ele>
        <time>2016-09-09T21:36:08.000Z</time>
      </trkpt>
      <trkpt lat="45.84852" lon="4.80636">
        <ele>500</ele>
        <time>2016-09-09T21:36:16.000Z</time>
      </trkpt>
      <trkpt lat="45.84832" lon="4.8063">
        <ele>502.20001220703</ele>
        <time>2016-09-09T21:36:26.000Z</time>
      </trkpt>
      <trkpt lat="45.84814" lon="4.80625">
        <ele>504.20001220703</ele>
        <time>2016-09-09T21:36:35.000Z</time>
      </trkpt>
      <trkpt lat="45.84795" lon="4.8062">
        <ele>505</ele>
        <time>2016-09-09T21:36:45.000Z</time>
      </trkpt>
      <trkpt lat="45.84776" lon="4.80623">
        <ele>504</ele>
        <time>2016-09-09T21:36:56.000Z</time>
      </trkpt>
      <trkpt lat="45.84757" lon="4.8063">
        <ele>502.60000610352</ele>
        <time>2016-09-09T21:37:06.000Z</time>
      </trkpt>
      <trkpt lat="45.84737" lon="4.80632">
        <ele>501.79998779297</ele>
        <time>2016-09-09T21:37:16.000Z</time>
      </trkpt>
      <trkpt lat="45.84717" lon="4.80634">
        <ele>501</ele>
        <time>2016-09-09T21:37:23.000Z</time>
      </trkpt>
      <trkpt lat="45.84697" lon="4.80636">
        <ele>500</ele>
        <time>2016-09-09T21:37:32.000Z</time>
      </trkpt>
      <trkpt lat="45.84677" lon="4.80631">
        <ele>500</ele>
        <time>2016-09-09T21:37:41.000Z</time>
      </trkpt>
      <trkpt lat="45.84659" lon="4.80627">
        <ele>499.79998779297</ele>
        <time>2016-09-09T21:37:49.000Z</time>
      </trkpt>
      <trkpt lat="45.84637" lon="4.80626">
        <ele>499.39999389648</ele>
        <time>2016-09-09T21:37:59.000Z</time>
      </trkpt>
      <trkpt lat="45.84617" lon="4.80623">
        <ele>498.39999389648</ele>
        <time>2016-09-09T21:38:05.000Z</time>
      </trkpt>
      <trkpt lat="45.846" lon="4.80609">
        <ele>499</ele>
        <time>2016-09-09T21:38:12.000Z</time>
      </trkpt>
      <trkpt lat="45.8459" lon="4.80583">
        <ele>502</ele>
        <time>2016-09-09T21:38:19.000Z</time>
      </trkpt>
      <trkpt lat="45.84586" lon="4.80556">
        <ele>505.79998779297</ele>
        <time>2016-09-09T21:38:28.000Z</time>
      </trkpt>
      <trkpt lat="45.84584" lon="4.80549">
        <ele>506.60000610352</ele>
        <time>2016-09-09T21:38:32.000Z</time>
      </trkpt>
      <trkpt lat="45.84572" lon="4.80549">
        <ele>505.79998779297</ele>
        <time>2016-09-09T21:38:37.000Z</time>
      </trkpt>
      <trkpt lat="45.84553" lon="4.80556">
        <ele>503.60000610352</ele>
        <time>2016-09-09T21:38:46.000Z</time>
      </trkpt>
      <trkpt lat="45.84536" lon="4.80565">
        <ele>502.60000610352</ele>
        <time>2016-09-09T21:38:56.000Z</time>
      </trkpt>
      <trkpt lat="45.8452" lon="4.80578">
        <ele>501.20001220703</ele>
        <time>2016-09-09T21:39:06.000Z</time>
      </trkpt>
      <trkpt lat="45.84502" lon="4.80586">
        <ele>499.79998779297</ele>
        <time>2016-09-09T21:39:17.000Z</time>
      </trkpt>
      <trkpt lat="45.84484" lon="4.80588">
        <ele>499.20001220703</ele>
        <time>2016-09-09T21:39:28.000Z</time>
      </trkpt>
      <trkpt lat="45.84467" lon="4.80583">
        <ele>499.79998779297</ele>
        <time>2016-09-09T21:39:37.000Z</time>
      </trkpt>
      <trkpt lat="45.84448" lon="4.80578">
        <ele>500</ele>
        <time>2016-09-09T21:39:46.000Z</time>
      </trkpt>
      <trkpt lat="45.84443" lon="4.80578">
        <ele>499.79998779297</ele>
        <time>2016-09-09T21:39:49.000Z</time>
      </trkpt>
      <trkpt lat="45.84439" lon="4.80581">
        <ele>499.20001220703</ele>
        <time>2016-09-09T21:39:51.000Z</time>
      </trkpt>
      <trkpt lat="45.84428" lon="4.80604">
        <ele>496.79998779297</ele>
        <time>2016-09-09T21:39:58.000Z</time>
      </trkpt>
      <trkpt lat="45.84419" lon="4.80629">
        <ele>494.39999389648</ele>
        <time>2016-09-09T21:40:06.000Z</time>
      </trkpt>
      <trkpt lat="45.84413" lon="4.80653">
        <ele>491</ele>
        <time>2016-09-09T21:40:14.000Z</time>
      </trkpt>
      <trkpt lat="45.84413" lon="4.80658">
        <ele>490.20001220703</ele>
        <time>2016-09-09T21:40:16.000Z</time>
      </trkpt>
      <trkpt lat="45.84413" lon="4.80685">
        <ele>486.60000610352</ele>
        <time>2016-09-09T21:40:26.000Z</time>
      </trkpt>
      <trkpt lat="45.84406" lon="4.80712">
        <ele>483.79998779297</ele>
        <time>2016-09-09T21:40:34.000Z</time>
      </trkpt>
      <trkpt lat="45.84408" lon="4.80717">
        <ele>483.20001220703</ele>
        <time>2016-09-09T21:40:36.000Z</time>
      </trkpt>
      <trkpt lat="45.84413" lon="4.80727">
        <ele>481.60000610352</ele>
        <time>2016-09-09T21:40:40.000Z</time>
      </trkpt>
      <trkpt lat="45.84413" lon="4.80741">
        <ele>479.79998779297</ele>
        <time>2016-09-09T21:40:45.000Z</time>
      </trkpt>
      <trkpt lat="45.84414" lon="4.80756">
        <ele>477.79998779297</ele>
        <time>2016-09-09T21:40:50.000Z</time>
      </trkpt>
      <trkpt lat="45.84413" lon="4.80775">
        <ele>475.39999389648</ele>
        <time>2016-09-09T21:40:58.000Z</time>
      </trkpt>
      <trkpt lat="45.84416" lon="4.80787">
        <ele>473.60000610352</ele>
        <time>2016-09-09T21:41:03.000Z</time>
      </trkpt>
      <trkpt lat="45.84415" lon="4.80793">
        <ele>472.79998779297</ele>
        <time>2016-09-09T21:41:05.000Z</time>
      </trkpt>
      <trkpt lat="45.84412" lon="4.80819">
        <ele>469.79998779297</ele>
        <time>2016-09-09T21:41:13.000Z</time>
      </trkpt>
      <trkpt lat="45.84416" lon="4.80835">
        <ele>467.60000610352</ele>
        <time>2016-09-09T21:41:20.000Z</time>
      </trkpt>
      <trkpt lat="45.84411" lon="4.80863">
        <ele>464.20001220703</ele>
        <time>2016-09-09T21:41:31.000Z</time>
      </trkpt>
      <trkpt lat="45.84403" lon="4.8089">
        <ele>461.39999389648</ele>
        <time>2016-09-09T21:41:42.000Z</time>
      </trkpt>
      <trkpt lat="45.84394" lon="4.80915">
        <ele>460.39999389648</ele>
        <time>2016-09-09T21:41:49.000Z</time>
      </trkpt>
      <trkpt lat="45.84385" lon="4.8094">
        <ele>459.20001220703</ele>
        <time>2016-09-09T21:41:56.000Z</time>
      </trkpt>
      <trkpt lat="45.84378" lon="4.80968">
        <ele>456.79998779297</ele>
        <time>2016-09-09T21:42:03.000Z</time>
      </trkpt>
      <trkpt lat="45.84372" lon="4.80993">
        <ele>454</ele>
        <time>2016-09-09T21:42:09.000Z</time>
      </trkpt>
      <trkpt lat="45.84369" lon="4.8102">
        <ele>450.79998779297</ele>
        <time>2016-09-09T21:42:17.000Z</time>
      </trkpt>
      <trkpt lat="45.84363" lon="4.81047">
        <ele>447.79998779297</ele>
        <time>2016-09-09T21:42:24.000Z</time>
      </trkpt>
      <trkpt lat="45.84362" lon="4.81073">
        <ele>444</ele>
        <time>2016-09-09T21:42:32.000Z</time>
      </trkpt>
      <trkpt lat="45.8436" lon="4.81099">
        <ele>440.39999389648</ele>
        <time>2016-09-09T21:42:40.000Z</time>
      </trkpt>
      <trkpt lat="45.8436" lon="4.81127">
        <ele>437</ele>
        <time>2016-09-09T21:42:47.000Z</time>
      </trkpt>
      <trkpt lat="45.84355" lon="4.81151">
        <ele>433.79998779297</ele>
        <time>2016-09-09T21:42:52.000Z</time>
      </trkpt>
      <trkpt lat="45.84351" lon="4.81176">
        <ele>431</ele>
        <time>2016-09-09T21:42:58.000Z</time>
      </trkpt>
      <trkpt lat="45.84344" lon="4.81203">
        <ele>429.60000610352</ele>
        <time>2016-09-09T21:43:06.000Z</time>
      </trkpt>
      <trkpt lat="45.84338" lon="4.81231">
        <ele>426.79998779297</ele>
        <time>2016-09-09T21:43:14.000Z</time>
      </trkpt>
      <trkpt lat="45.84329" lon="4.81254">
        <ele>425.60000610352</ele>
        <time>2016-09-09T21:43:22.000Z</time>
      </trkpt>
      <trkpt lat="45.84327" lon="4.81259">
        <ele>425.39999389648</ele>
        <time>2016-09-09T21:43:24.000Z</time>
      </trkpt>
      <trkpt lat="45.84327" lon="4.81269">
        <ele>424.60000610352</ele>
        <time>2016-09-09T21:43:28.000Z</time>
      </trkpt>
      <trkpt lat="45.84327" lon="4.81283">
        <ele>423.20001220703</ele>
        <time>2016-09-09T21:43:32.000Z</time>
      </trkpt>
      <trkpt lat="45.84317" lon="4.81306">
        <ele>421.39999389648</ele>
        <time>2016-09-09T21:43:39.000Z</time>
      </trkpt>
      <trkpt lat="45.84315" lon="4.8131">
        <ele>421.39999389648</ele>
        <time>2016-09-09T21:43:40.000Z</time>
      </trkpt>
      <trkpt lat="45.84306" lon="4.81337">
        <ele>420.79998779297</ele>
        <time>2016-09-09T21:43:46.000Z</time>
      </trkpt>
      <trkpt lat="45.84299" lon="4.81362">
        <ele>418</ele>
        <time>2016-09-09T21:43:53.000Z</time>
      </trkpt>
      <trkpt lat="45.84297" lon="4.81389">
        <ele>413.60000610352</ele>
        <time>2016-09-09T21:44:01.000Z</time>
      </trkpt>
      <trkpt lat="45.84286" lon="4.81411">
        <ele>409.20001220703</ele>
        <time>2016-09-09T21:44:08.000Z</time>
      </trkpt>
      <trkpt lat="45.84283" lon="4.81423">
        <ele>407</ele>
        <time>2016-09-09T21:44:12.000Z</time>
      </trkpt>
      <trkpt lat="45.84281" lon="4.81448">
        <ele>404.20001220703</ele>
        <time>2016-09-09T21:44:21.000Z</time>
      </trkpt>
      <trkpt lat="45.84278" lon="4.81454">
        <ele>404</ele>
        <time>2016-09-09T21:44:23.000Z</time>
      </trkpt>
      <trkpt lat="45.84275" lon="4.81466">
        <ele>402</ele>
        <time>2016-09-09T21:44:29.000Z</time>
      </trkpt>
      <trkpt lat="45.84269" lon="4.81481">
        <ele>399.39999389648</ele>
        <time>2016-09-09T21:44:36.000Z</time>
      </trkpt>
      <trkpt lat="45.84263" lon="4.81501">
        <ele>396.60000610352</ele>
        <time>2016-09-09T21:44:44.000Z</time>
      </trkpt>
      <trkpt lat="45.84246" lon="4.81512">
        <ele>399.60000610352</ele>
        <time>2016-09-09T21:44:54.000Z</time>
      </trkpt>
      <trkpt lat="45.84238" lon="4.81514">
        <ele>401.39999389648</ele>
        <time>2016-09-09T21:44:57.000Z</time>
      </trkpt>
      <trkpt lat="45.84222" lon="4.81491">
        <ele>407</ele>
        <time>2016-09-09T21:45:17.000Z</time>
      </trkpt>
      <trkpt lat="45.84226" lon="4.81463">
        <ele>408.60000610352</ele>
        <time>2016-09-09T21:45:30.000Z</time>
      </trkpt>
      <trkpt lat="45.84219" lon="4.81446">
        <ele>410.79998779297</ele>
        <time>2016-09-09T21:45:38.000Z</time>
      </trkpt>
      <trkpt lat="45.8421" lon="4.81422">
        <ele>412.79998779297</ele>
        <time>2016-09-09T21:45:48.000Z</time>
      </trkpt>
      <trkpt lat="45.84194" lon="4.81406">
        <ele>414.20001220703</ele>
        <time>2016-09-09T21:45:56.000Z</time>
      </trkpt>
      <trkpt lat="45.84181" lon="4.81388">
        <ele>415.79998779297</ele>
        <time>2016-09-09T21:46:06.000Z</time>
      </trkpt>
      <trkpt lat="45.84164" lon="4.81377">
        <ele>417</ele>
        <time>2016-09-09T21:46:18.000Z</time>
      </trkpt>
      <trkpt lat="45.84146" lon="4.81366">
        <ele>418.60000610352</ele>
        <time>2016-09-09T21:46:30.000Z</time>
      </trkpt>
      <trkpt lat="45.84145" lon="4.81365">
        <ele>418.79998779297</ele>
        <time>2016-09-09T21:46:31.000Z</time>
      </trkpt>
      <trkpt lat="45.84144" lon="4.81362">
        <ele>419.20001220703</ele>
        <time>2016-09-09T21:46:34.000Z</time>
      </trkpt>
      <trkpt lat="45.84141" lon="4.81354">
        <ele>420.39999389648</ele>
        <time>2016-09-09T21:46:39.000Z</time>
      </trkpt>
      <trkpt lat="45.8414" lon="4.81353">
        <ele>420.39999389648</ele>
        <time>2016-09-09T21:46:40.000Z</time>
      </trkpt>
      <trkpt lat="45.84133" lon="4.81341">
        <ele>422.20001220703</ele>
        <time>2016-09-09T21:46:46.000Z</time>
      </trkpt>
      <trkpt lat="45.84117" lon="4.81326">
        <ele>424.79998779297</ele>
        <time>2016-09-09T21:47:00.000Z</time>
      </trkpt>
      <trkpt lat="45.84103" lon="4.81311">
        <ele>427.39999389648</ele>
        <time>2016-09-09T21:47:12.000Z</time>
      </trkpt>
      <trkpt lat="45.84098" lon="4.813">
        <ele>429</ele>
        <time>2016-09-09T21:47:21.000Z</time>
      </trkpt>
      <trkpt lat="45.84094" lon="4.81274">
        <ele>432.60000610352</ele>
        <time>2016-09-09T21:47:40.000Z</time>
      </trkpt>
      <trkpt lat="45.84088" lon="4.81263">
        <ele>434.20001220703</ele>
        <time>2016-09-09T21:47:47.000Z</time>
      </trkpt>
      <trkpt lat="45.84086" lon="4.81259">
        <ele>434.79998779297</ele>
        <time>2016-09-09T21:47:51.000Z</time>
      </trkpt>
      <trkpt lat="45.84085" lon="4.81255">
        <ele>435.39999389648</ele>
        <time>2016-09-09T21:47:54.000Z</time>
      </trkpt>
      <trkpt lat="45.84079" lon="4.81247">
        <ele>436.60000610352</ele>
        <time>2016-09-09T21:48:02.000Z</time>
      </trkpt>
      <trkpt lat="45.8406" lon="4.81241">
        <ele>438.20001220703</ele>
        <time>2016-09-09T21:48:14.000Z</time>
      </trkpt>
      <trkpt lat="45.84042" lon="4.8123">
        <ele>438.60000610352</ele>
        <time>2016-09-09T21:48:26.000Z</time>
      </trkpt>
      <trkpt lat="45.84026" lon="4.81215">
        <ele>439.20001220703</ele>
        <time>2016-09-09T21:48:35.000Z</time>
      </trkpt>
      <trkpt lat="45.84013" lon="4.81197">
        <ele>439.79998779297</ele>
        <time>2016-09-09T21:48:42.000Z</time>
      </trkpt>
      <trkpt lat="45.84002" lon="4.81177">
        <ele>439.79998779297</ele>
        <time>2016-09-09T21:48:50.000Z</time>
      </trkpt>
      <trkpt lat="45.83992" lon="4.81153">
        <ele>440</ele>
        <time>2016-09-09T21:48:59.000Z</time>
      </trkpt>
      <trkpt lat="45.83981" lon="4.81127">
        <ele>440.60000610352</ele>
        <time>2016-09-09T21:49:08.000Z</time>
      </trkpt>
      <trkpt lat="45.8397" lon="4.81104">
        <ele>439.79998779297</ele>
        <time>2016-09-09T21:49:17.000Z</time>
      </trkpt>
      <trkpt lat="45.83961" lon="4.81079">
        <ele>438.39999389648</ele>
        <time>2016-09-09T21:49:26.000Z</time>
      </trkpt>
      <trkpt lat="45.83956" lon="4.81054">
        <ele>437.79998779297</ele>
        <time>2016-09-09T21:49:35.000Z</time>
      </trkpt>
      <trkpt lat="45.83955" lon="4.81049">
        <ele>437.79998779297</ele>
        <time>2016-09-09T21:49:37.000Z</time>
      </trkpt>
      <trkpt lat="45.83956" lon="4.8102">
        <ele>438.39999389648</ele>
        <time>2016-09-09T21:49:45.000Z</time>
      </trkpt>
      <trkpt lat="45.83958" lon="4.80993">
        <ele>438.60000610352</ele>
        <time>2016-09-09T21:49:54.000Z</time>
      </trkpt>
      <trkpt lat="45.83957" lon="4.80968">
        <ele>438</ele>
        <time>2016-09-09T21:50:01.000Z</time>
      </trkpt>
      <trkpt lat="45.83951" lon="4.80964">
        <ele>436.20001220703</ele>
        <time>2016-09-09T21:50:05.000Z</time>
      </trkpt>
      <trkpt lat="45.83931" lon="4.8096">
        <ele>430.79998779297</ele>
        <time>2016-09-09T21:50:19.000Z</time>
      </trkpt>
      <trkpt lat="45.83923" lon="4.80963">
        <ele>428.39999389648</ele>
        <time>2016-09-09T21:50:25.000Z</time>
      </trkpt>
      <trkpt lat="45.83906" lon="4.80967">
        <ele>423.79998779297</ele>
        <time>2016-09-09T21:50:38.000Z</time>
      </trkpt>
      <trkpt lat="45.83889" lon="4.80979">
        <ele>419.39999389648</ele>
        <time>2016-09-09T21:50:47.000Z</time>
      </trkpt>
      <trkpt lat="45.83883" lon="4.80981">
        <ele>418.20001220703</ele>
        <time>2016-09-09T21:50:51.000Z</time>
      </trkpt>
      <trkpt lat="45.83867" lon="4.80991">
        <ele>415.39999389648</ele>
        <time>2016-09-09T21:51:02.000Z</time>
      </trkpt>
      <trkpt lat="45.83862" lon="4.80984">
        <ele>414.39999389648</ele>
        <time>2016-09-09T21:51:07.000Z</time>
      </trkpt>
      <trkpt lat="45.83858" lon="4.8098">
        <ele>413.79998779297</ele>
        <time>2016-09-09T21:51:09.000Z</time>
      </trkpt>
      <trkpt lat="45.8386" lon="4.80953">
        <ele>414.20001220703</ele>
        <time>2016-09-09T21:51:21.000Z</time>
      </trkpt>
      <trkpt lat="45.83861" lon="4.80951">
        <ele>415</ele>
        <time>2016-09-09T21:51:22.000Z</time>
      </trkpt>
      <trkpt lat="45.83865" lon="4.80926">
        <ele>421.20001220703</ele>
        <time>2016-09-09T21:51:31.000Z</time>
      </trkpt>
      <trkpt lat="45.83863" lon="4.80926">
        <ele>420.79998779297</ele>
        <time>2016-09-09T21:51:32.000Z</time>
      </trkpt>
      <trkpt lat="45.83844" lon="4.80936">
        <ele>415.20001220703</ele>
        <time>2016-09-09T21:51:44.000Z</time>
      </trkpt>
      <trkpt lat="45.83827" lon="4.8095">
        <ele>409</ele>
        <time>2016-09-09T21:51:54.000Z</time>
      </trkpt>
      <trkpt lat="45.83815" lon="4.80968">
        <ele>405.20001220703</ele>
        <time>2016-09-09T21:52:06.000Z</time>
      </trkpt>
      <trkpt lat="45.83813" lon="4.80968">
        <ele>404.39999389648</ele>
        <time>2016-09-09T21:52:07.000Z</time>
      </trkpt>
      <trkpt lat="45.8381" lon="4.80968">
        <ele>403.39999389648</ele>
        <time>2016-09-09T21:52:11.000Z</time>
      </trkpt>
      <trkpt lat="45.83797" lon="4.80985">
        <ele>398.60000610352</ele>
        <time>2016-09-09T21:52:22.000Z</time>
      </trkpt>
      <trkpt lat="45.83798" lon="4.8099">
        <ele>397.79998779297</ele>
        <time>2016-09-09T21:52:24.000Z</time>
      </trkpt>
      <trkpt lat="45.83797" lon="4.80995">
        <ele>396.79998779297</ele>
        <time>2016-09-09T21:52:26.000Z</time>
      </trkpt>
      <trkpt lat="45.83794" lon="4.81019">
        <ele>392.60000610352</ele>
        <time>2016-09-09T21:52:36.000Z</time>
      </trkpt>
      <trkpt lat="45.83791" lon="4.81024">
        <ele>391.79998779297</ele>
        <time>2016-09-09T21:52:39.000Z</time>
      </trkpt>
      <trkpt lat="45.83789" lon="4.81034">
        <ele>390.20001220703</ele>
        <time>2016-09-09T21:52:44.000Z</time>
      </trkpt>
      <trkpt lat="45.83788" lon="4.8104">
        <ele>389.20001220703</ele>
        <time>2016-09-09T21:52:49.000Z</time>
      </trkpt>
      <trkpt lat="45.83785" lon="4.81051">
        <ele>387.79998779297</ele>
        <time>2016-09-09T21:52:55.000Z</time>
      </trkpt>
      <trkpt lat="45.83786" lon="4.81076">
        <ele>384.20001220703</ele>
        <time>2016-09-09T21:53:04.000Z</time>
      </trkpt>
      <trkpt lat="45.83792" lon="4.81095">
        <ele>381.60000610352</ele>
        <time>2016-09-09T21:53:12.000Z</time>
      </trkpt>
      <trkpt lat="45.83789" lon="4.81122">
        <ele>376.20001220703</ele>
        <time>2016-09-09T21:53:19.000Z</time>
      </trkpt>
      <trkpt lat="45.83791" lon="4.81147">
        <ele>372.39999389648</ele>
        <time>2016-09-09T21:53:28.000Z</time>
      </trkpt>
      <trkpt lat="45.83788" lon="4.81159">
        <ele>370.39999389648</ele>
        <time>2016-09-09T21:53:32.000Z</time>
      </trkpt>
      <trkpt lat="45.83786" lon="4.81187">
        <ele>365.79998779297</ele>
        <time>2016-09-09T21:53:41.000Z</time>
      </trkpt>
      <trkpt lat="45.83782" lon="4.81214">
        <ele>361.20001220703</ele>
        <time>2016-09-09T21:53:49.000Z</time>
      </trkpt>
      <trkpt lat="45.83772" lon="4.81238">
        <ele>355.79998779297</ele>
        <time>2016-09-09T21:53:59.000Z</time>
      </trkpt>
      <trkpt lat="45.83767" lon="4.81252">
        <ele>352.79998779297</ele>
        <time>2016-09-09T21:54:05.000Z</time>
      </trkpt>
      <trkpt lat="45.83768" lon="4.8128">
        <ele>348</ele>
        <time>2016-09-09T21:54:15.000Z</time>
      </trkpt>
      <trkpt lat="45.83772" lon="4.81306">
        <ele>343</ele>
        <time>2016-09-09T21:54:25.000Z</time>
      </trkpt>
      <trkpt lat="45.83771" lon="4.81309">
        <ele>342.39999389648</ele>
        <time>2016-09-09T21:54:26.000Z</time>
      </trkpt>
      <trkpt lat="45.83781" lon="4.81334">
        <ele>337.79998779297</ele>
        <time>2016-09-09T21:54:33.000Z</time>
      </trkpt>
      <trkpt lat="45.83781" lon="4.81363">
        <ele>333</ele>
        <time>2016-09-09T21:54:42.000Z</time>
      </trkpt>
      <trkpt lat="45.83784" lon="4.81389">
        <ele>327.79998779297</ele>
        <time>2016-09-09T21:54:51.000Z</time>
      </trkpt>
      <trkpt lat="45.83783" lon="4.81396">
        <ele>326.39999389648</ele>
        <time>2016-09-09T21:54:53.000Z</time>
      </trkpt>
      <trkpt lat="45.83779" lon="4.8142">
        <ele>320.60000610352</ele>
        <time>2016-09-09T21:55:01.000Z</time>
      </trkpt>
      <trkpt lat="45.83783" lon="4.81431">
        <ele>318.20001220703</ele>
        <time>2016-09-09T21:55:04.000Z</time>
      </trkpt>
      <trkpt lat="45.83786" lon="4.81451">
        <ele>315</ele>
        <time>2016-09-09T21:55:11.000Z</time>
      </trkpt>
      <trkpt lat="45.83786" lon="4.81462">
        <ele>312.79998779297</ele>
        <time>2016-09-09T21:55:15.000Z</time>
      </trkpt>
      <trkpt lat="45.8379" lon="4.81487">
        <ele>306.79998779297</ele>
        <time>2016-09-09T21:55:23.000Z</time>
      </trkpt>
      <trkpt lat="45.83792" lon="4.81499">
        <ele>304.20001220703</ele>
        <time>2016-09-09T21:55:26.000Z</time>
      </trkpt>
      <trkpt lat="45.838" lon="4.81522">
        <ele>298.39999389648</ele>
        <time>2016-09-09T21:55:33.000Z</time>
      </trkpt>
      <trkpt lat="45.83798" lon="4.81531">
        <ele>296.20001220703</ele>
        <time>2016-09-09T21:55:37.000Z</time>
      </trkpt>
      <trkpt lat="45.83797" lon="4.81536">
        <ele>295.60000610352</ele>
        <time>2016-09-09T21:55:39.000Z</time>
      </trkpt>
      <trkpt lat="45.83797" lon="4.81559">
        <ele>291.79998779297</ele>
        <time>2016-09-09T21:55:47.000Z</time>
      </trkpt>
      <trkpt lat="45.83796" lon="4.81585">
        <ele>288</ele>
        <time>2016-09-09T21:55:55.000Z</time>
      </trkpt>
      <trkpt lat="45.83803" lon="4.81611">
        <ele>283</ele>
        <time>2016-09-09T21:56:03.000Z</time>
      </trkpt>
      <trkpt lat="45.83809" lon="4.81638">
        <ele>277.79998779297</ele>
        <time>2016-09-09T21:56:11.000Z</time>
      </trkpt>
      <trkpt lat="45.83818" lon="4.81663">
        <ele>272.39999389648</ele>
        <time>2016-09-09T21:56:20.000Z</time>
      </trkpt>
      <trkpt lat="45.83823" lon="4.81676">
        <ele>269.60000610352</ele>
        <time>2016-09-09T21:56:25.000Z</time>
      </trkpt>
      <trkpt lat="45.83826" lon="4.81685">
        <ele>267.60000610352</ele>
        <time>2016-09-09T21:56:29.000Z</time>
      </trkpt>
      <trkpt lat="45.8383" lon="4.81693">
        <ele>266</ele>
        <time>2016-09-09T21:56:32.000Z</time>
      </trkpt>
      <trkpt lat="45.83836" lon="4.81718">
        <ele>261.60000610352</ele>
        <time>2016-09-09T21:56:41.000Z</time>
      </trkpt>
      <trkpt lat="45.83838" lon="4.81725">
        <ele>260.39999389648</ele>
        <time>2016-09-09T21:56:43.000Z</time>
      </trkpt>
      <trkpt lat="45.83843" lon="4.8174">
        <ele>258</ele>
        <time>2016-09-09T21:56:48.000Z</time>
      </trkpt>
      <trkpt lat="45.83847" lon="4.81768">
        <ele>253.19999694824</ele>
        <time>2016-09-09T21:56:56.000Z</time>
      </trkpt>
      <trkpt lat="45.83856" lon="4.81792">
        <ele>249.39999389648</ele>
        <time>2016-09-09T21:57:05.000Z</time>
      </trkpt>
      <trkpt lat="45.83861" lon="4.81817">
        <ele>248</ele>
        <time>2016-09-09T21:57:12.000Z</time>
      </trkpt>
      <trkpt lat="45.8387" lon="4.81842">
        <ele>246.60000610352</ele>
        <time>2016-09-09T21:57:19.000Z</time>
      </trkpt>
      <trkpt lat="45.83871" lon="4.81869">
        <ele>244.19999694824</ele>
        <time>2016-09-09T21:57:27.000Z</time>
      </trkpt>
      <trkpt lat="45.83867" lon="4.81898">
        <ele>241.19999694824</ele>
        <time>2016-09-09T21:57:35.000Z</time>
      </trkpt>
      <trkpt lat="45.83865" lon="4.81925">
        <ele>238.39999389648</ele>
        <time>2016-09-09T21:57:42.000Z</time>
      </trkpt>
      <trkpt lat="45.83868" lon="4.81952">
        <ele>236.80000305176</ele>
        <time>2016-09-09T21:57:49.000Z</time>
      </trkpt>
      <trkpt lat="45.83873" lon="4.8198">
        <ele>234.80000305176</ele>
        <time>2016-09-09T21:57:56.000Z</time>
      </trkpt>
      <trkpt lat="45.83876" lon="4.82008">
        <ele>232.80000305176</ele>
        <time>2016-09-09T21:58:03.000Z</time>
      </trkpt>
      <trkpt lat="45.83878" lon="4.82036">
        <ele>230.60000610352</ele>
        <time>2016-09-09T21:58:11.000Z</time>
      </trkpt>
      <trkpt lat="45.83877" lon="4.82063">
        <ele>229</ele>
        <time>2016-09-09T21:58:19.000Z</time>
      </trkpt>
      <trkpt lat="45.83875" lon="4.82089">
        <ele>227.19999694824</ele>
        <time>2016-09-09T21:58:26.000Z</time>
      </trkpt>
      <trkpt lat="45.83873" lon="4.82117">
        <ele>225.39999389648</ele>
        <time>2016-09-09T21:58:34.000Z</time>
      </trkpt>
      <trkpt lat="45.83873" lon="4.82144">
        <ele>223.39999389648</ele>
        <time>2016-09-09T21:58:41.000Z</time>
      </trkpt>
      <trkpt lat="45.83872" lon="4.82148">
        <ele>223</ele>
        <time>2016-09-09T21:58:42.000Z</time>
      </trkpt>
      <trkpt lat="45.83865" lon="4.82173">
        <ele>221</ele>
        <time>2016-09-09T21:58:49.000Z</time>
      </trkpt>
      <trkpt lat="45.83865" lon="4.82202">
        <ele>219.39999389648</ele>
        <time>2016-09-09T21:58:56.000Z</time>
      </trkpt>
      <trkpt lat="45.83865" lon="4.82231">
        <ele>218.19999694824</ele>
        <time>2016-09-09T21:59:03.000Z</time>
      </trkpt>
      <trkpt lat="45.83865" lon="4.82256">
        <ele>217.19999694824</ele>
        <time>2016-09-09T21:59:09.000Z</time>
      </trkpt>
      <trkpt lat="45.83864" lon="4.82283">
        <ele>215.60000610352</ele>
        <time>2016-09-09T21:59:16.000Z</time>
      </trkpt>
      <trkpt lat="45.83863" lon="4.82312">
        <ele>215.19999694824</ele>
        <time>2016-09-09T21:59:24.000Z</time>
      </trkpt>
      <trkpt lat="45.83857" lon="4.82335">
        <ele>214.60000610352</ele>
        <time>2016-09-09T21:59:31.000Z</time>
      </trkpt>
      <trkpt lat="45.83848" lon="4.82346">
        <ele>212.80000305176</ele>
        <time>2016-09-09T21:59:37.000Z</time>
      </trkpt>
      <trkpt lat="45.83829" lon="4.82347">
        <ele>209.80000305176</ele>
        <time>2016-09-09T21:59:48.000Z</time>
      </trkpt>
      <trkpt lat="45.83828" lon="4.82348">
        <ele>209.39999389648</ele>
        <time>2016-09-09T21:59:49.000Z</time>
      </trkpt>
      <trkpt lat="45.83818" lon="4.82368">
        <ele>206.19999694824</ele>
        <time>2016-09-09T21:59:54.000Z</time>
      </trkpt>
      <trkpt lat="45.83805" lon="4.82372">
        <ele>204</ele>
        <time>2016-09-09T21:59:59.000Z</time>
      </trkpt>
      <trkpt lat="45.83786" lon="4.82376">
        <ele>203.80000305176</ele>
        <time>2016-09-09T22:00:06.000Z</time>
      </trkpt>
      <trkpt lat="45.83768" lon="4.82388">
        <ele>202.80000305176</ele>
        <time>2016-09-09T22:00:11.000Z</time>
      </trkpt>
      <trkpt lat="45.83752" lon="4.82401">
        <ele>202</ele>
        <time>2016-09-09T22:00:18.000Z</time>
      </trkpt>
      <trkpt lat="45.83733" lon="4.82413">
        <ele>201.39999389648</ele>
        <time>2016-09-09T22:00:25.000Z</time>
      </trkpt>
      <trkpt lat="45.83725" lon="4.82414">
        <ele>201.39999389648</ele>
        <time>2016-09-09T22:00:31.000Z</time>
      </trkpt>
      <trkpt lat="45.83722" lon="4.82415">
        <ele>201.39999389648</ele>
        <time>2016-09-09T22:00:36.000Z</time>
      </trkpt>
    </trkseg>
  </trk>
</gpx>